Darstellungsparameter: Aktuell verwendete Einstellungen:
Skalierung der Graphiken ... ?
xyx+y,   Skalierungsfaktor:      Skalierung: Modus: x, Faktor: 1
Darstellungszeitraum ... ?
Vom - - bis: - -   Zeitraum: 09.07.2020 - 15.07.2020
Min/Max/Avg-Anzeige ... ?
Zeige MMA aktuell
Zeige MMA Monat
Zeige MMA alles
Zeige --A aktuell
Zeige --A Monat
Zeige --A alles
Keine MMA-Anzeige
MMA:
Average (ber die Originaldaten)
MMA-Basis: 09.07.2020 - 15.07.2020
Quicknavigation für Darstellung... ?
Tage:      1T, 2T, 3T, 5T -1T -2T -3T -5T +1T +2T +3T +5T
Wochen: 1W, 2W, 3W -1W -2W -3W +1W +2W +3W
Monate: 1M, 3M, 6M -1M -3M -6M +1M +3M +6M
Jahre:    1J, 3J, 5J, 10J -1J -3J -5J -10J +1J +3J +5J +10J
Nutze für die Darstellung ... ?
Originaldaten oder Mittelwerte auf ...
Stundenbasis Tagesbasis Wochenbasis
Monatsbasis Jahresbasis      Datenbasis: Original-Daten
Darstellen als:
Statistik (Auto) Statistik J:M      Darstellung:
Zur Graphik,    zurück zur Übersicht aller Sensoren.
 
Tabellarische Datenbersicht: ?
 
Sensor: Nr:Datum:Temp:Abs-Feuchte:Windchill:Wind:
Aussen-T/F 1 09-07-2020 00:00:00 16.4 C 13.26 g/m*3 16.4 C 1.6 km/h
2 09-07-2020 00:05:00 16.4 C 13.26 g/m*3 16.4 C 4.8 km/h
3 09-07-2020 00:10:00 16.4 C 13.26 g/m*3 16.4 C 0 km/h
4 09-07-2020 00:15:00 16.4 C 13.26 g/m*3 16.4 C 0 km/h
5 09-07-2020 00:20:00 16.4 C 13.4 g/m*3 16.4 C 0 km/h
6 09-07-2020 00:25:00 16.5 C 13.48 g/m*3 16.5 C 1.6 km/h
7 09-07-2020 00:30:00 16.5 C 13.48 g/m*3 16.5 C 1.6 km/h
8 09-07-2020 00:35:00 16.6 C 13.56 g/m*3 16.6 C 1.6 km/h
9 09-07-2020 00:40:00 16.6 C 13.56 g/m*3 16.6 C 1.6 km/h
10 09-07-2020 00:45:00 16.6 C 13.56 g/m*3 16.6 C 0 km/h
11 09-07-2020 00:50:00 16.6 C 13.56 g/m*3 16.6 C 0 km/h
12 09-07-2020 00:55:00 16.6 C 13.56 g/m*3 16.6 C 0 km/h
13 09-07-2020 01:00:00 16.6 C 13.56 g/m*3 16.6 C 0 km/h
14 09-07-2020 01:05:00 16.6 C 13.56 g/m*3 16.6 C 0 km/h
15 09-07-2020 01:10:00 16.6 C 13.56 g/m*3 16.6 C 3.2 km/h
16 09-07-2020 01:15:00 16.6 C 13.56 g/m*3 16.6 C 1.6 km/h
17 09-07-2020 01:20:00 16.6 C 13.56 g/m*3 16.6 C 1.6 km/h
18 09-07-2020 01:25:00 16.7 C 13.64 g/m*3 16.7 C 3.2 km/h
19 09-07-2020 01:30:00 16.7 C 13.64 g/m*3 16.7 C 1.6 km/h
20 09-07-2020 01:35:00 16.7 C 13.64 g/m*3 16.7 C 3.2 km/h
21 09-07-2020 01:40:00 16.7 C 13.64 g/m*3 16.7 C 4.8 km/h
22 09-07-2020 01:45:00 16.8 C 13.73 g/m*3 16.8 C 3.2 km/h
23 09-07-2020 01:50:00 16.8 C 13.73 g/m*3 16.8 C 6.4 km/h
24 09-07-2020 01:55:00 16.8 C 13.73 g/m*3 16.8 C 6.4 km/h
25 09-07-2020 02:00:00 16.8 C 13.73 g/m*3 16.8 C 3.2 km/h
Sensor: Nr:Datum:Temp:Abs-Feuchte:Windchill:Wind:
Aussen-T/F 26 09-07-2020 02:05:00 16.8 C 13.73 g/m*3 16.8 C 1.6 km/h
27 09-07-2020 02:10:00 16.8 C 13.73 g/m*3 16.8 C 1.6 km/h
28 09-07-2020 02:15:00 16.8 C 13.73 g/m*3 16.8 C 1.6 km/h
29 09-07-2020 02:20:00 16.8 C 13.73 g/m*3 16.8 C 3.2 km/h
30 09-07-2020 02:25:00 16.8 C 13.73 g/m*3 16.8 C 3.2 km/h
31 09-07-2020 02:30:00 16.8 C 13.73 g/m*3 16.8 C 1.6 km/h
32 09-07-2020 02:35:00 16.7 C 13.64 g/m*3 16.7 C 1.6 km/h
33 09-07-2020 02:40:00 16.7 C 13.64 g/m*3 16.7 C 1.6 km/h
34 09-07-2020 02:45:00 16.7 C 13.64 g/m*3 16.7 C 0 km/h
35 09-07-2020 02:50:00 16.7 C 13.64 g/m*3 16.7 C 1.6 km/h
36 09-07-2020 02:55:00 16.7 C 13.64 g/m*3 16.7 C 0 km/h
37 09-07-2020 03:00:00 16.7 C 13.64 g/m*3 16.7 C 0 km/h
38 09-07-2020 03:05:00 16.7 C 13.64 g/m*3 16.7 C 3.2 km/h
39 09-07-2020 03:10:00 16.7 C 13.64 g/m*3 16.7 C 0 km/h
40 09-07-2020 03:15:00 16.7 C 13.64 g/m*3 16.7 C 1.6 km/h
41 09-07-2020 03:20:00 16.7 C 13.64 g/m*3 16.7 C 3.2 km/h
42 09-07-2020 03:25:00 16.6 C 13.56 g/m*3 16.6 C 4.8 km/h
43 09-07-2020 03:30:00 16.7 C 13.64 g/m*3 16.7 C 3.2 km/h
44 09-07-2020 03:35:00 16.7 C 13.64 g/m*3 16.7 C 3.2 km/h
45 09-07-2020 03:40:00 16.7 C 13.64 g/m*3 16.7 C 1.6 km/h
46 09-07-2020 03:45:00 16.7 C 13.64 g/m*3 16.7 C 3.2 km/h
47 09-07-2020 03:50:00 16.7 C 13.64 g/m*3 16.7 C 3.2 km/h
48 09-07-2020 03:55:00 16.7 C 13.64 g/m*3 16.7 C 1.6 km/h
49 09-07-2020 04:00:00 16.7 C 13.64 g/m*3 16.7 C 3.2 km/h
50 09-07-2020 04:05:00 16.7 C 13.64 g/m*3 16.7 C 8.1 km/h
Sensor: Nr:Datum:Temp:Abs-Feuchte:Windchill:Wind:
Aussen-T/F 51 09-07-2020 04:10:00 16.7 C 13.64 g/m*3 16.7 C 3.2 km/h
52 09-07-2020 04:15:00 16.7 C 13.64 g/m*3 16.7 C 3.2 km/h
53 09-07-2020 04:20:00 16.8 C 13.73 g/m*3 16.8 C 3.2 km/h
54 09-07-2020 04:25:00 16.8 C 13.73 g/m*3 16.8 C 3.2 km/h
55 09-07-2020 04:30:00 16.8 C 13.73 g/m*3 16.8 C 4.8 km/h
56 09-07-2020 04:35:00 16.8 C 13.73 g/m*3 16.8 C 0 km/h
57 09-07-2020 04:40:00 16.8 C 13.73 g/m*3 16.8 C 0 km/h
58 09-07-2020 04:45:00 16.8 C 13.73 g/m*3 16.8 C 1.6 km/h
59 09-07-2020 04:50:00 16.8 C 13.73 g/m*3 16.8 C 0 km/h
60 09-07-2020 04:55:00 16.8 C 13.73 g/m*3 16.8 C 0 km/h
61 09-07-2020 05:00:00 16.8 C 13.73 g/m*3 16.8 C 3.2 km/h
62 09-07-2020 05:05:00 16.8 C 13.73 g/m*3 16.8 C 1.6 km/h
63 09-07-2020 05:10:00 16.8 C 13.73 g/m*3 16.8 C 4.8 km/h
64 09-07-2020 05:15:00 16.8 C 13.73 g/m*3 16.8 C 1.6 km/h
65 09-07-2020 05:20:00 16.8 C 13.73 g/m*3 16.8 C 1.6 km/h
66 09-07-2020 05:25:00 16.8 C 13.73 g/m*3 16.8 C 1.6 km/h
67 09-07-2020 05:30:00 16.8 C 13.73 g/m*3 16.8 C 1.6 km/h
68 09-07-2020 05:35:00 16.9 C 13.81 g/m*3 16.9 C 3.2 km/h
69 09-07-2020 05:40:00 16.9 C 13.81 g/m*3 16.9 C 4.8 km/h
70 09-07-2020 05:45:00 16.9 C 13.81 g/m*3 16.9 C 3.2 km/h
71 09-07-2020 05:50:00 16.9 C 13.81 g/m*3 16.9 C 1.6 km/h
72 09-07-2020 05:55:00 16.9 C 13.81 g/m*3 16.9 C 4.8 km/h
73 09-07-2020 06:00:00 16.9 C 13.81 g/m*3 16.9 C 8.1 km/h
74 09-07-2020 06:05:00 16.9 C 13.81 g/m*3 16.9 C 3.2 km/h
75 09-07-2020 06:10:00 17 C 13.89 g/m*3 17 C 6.4 km/h
Sensor: Nr:Datum:Temp:Abs-Feuchte:Windchill:Wind:
Aussen-T/F 76 09-07-2020 06:15:00 17 C 13.89 g/m*3 17 C 6.4 km/h
77 09-07-2020 06:20:00 17 C 13.75 g/m*3 17 C 1.6 km/h
78 09-07-2020 06:25:00 17.1 C 13.83 g/m*3 17.1 C 0 km/h
79 09-07-2020 06:30:00 17.1 C 13.83 g/m*3 17.1 C 3.2 km/h
80 09-07-2020 06:35:00 17.1 C 13.83 g/m*3 17.1 C 3.2 km/h
81 09-07-2020 06:40:00 17.1 C 13.83 g/m*3 17.1 C 6.4 km/h
82 09-07-2020 06:45:00 17.2 C 13.91 g/m*3 17.2 C 3.2 km/h
83 09-07-2020 06:50:00 17.2 C 13.91 g/m*3 17.2 C 1.6 km/h
84 09-07-2020 06:55:00 17.2 C 13.91 g/m*3 17.2 C 4.8 km/h
85 09-07-2020 07:00:00 17.3 C 14 g/m*3 17.3 C 1.6 km/h
86 09-07-2020 07:05:00 17.3 C 14 g/m*3 17.3 C 4.8 km/h
87 09-07-2020 07:10:00 17.3 C 13.85 g/m*3 17.3 C 1.6 km/h
88 09-07-2020 07:15:00 17.4 C 13.93 g/m*3 17.4 C 14.5 km/h
89 09-07-2020 07:20:00 17.5 C 13.87 g/m*3 17.5 C 4.8 km/h
90 09-07-2020 07:25:00 17.6 C 13.95 g/m*3 17.6 C 9.7 km/h
91 09-07-2020 07:30:00 17.7 C 14.03 g/m*3 17.7 C 1.6 km/h
92 09-07-2020 07:35:00 17.7 C 13.88 g/m*3 17.7 C 8.1 km/h
93 09-07-2020 07:40:00 17.8 C 13.96 g/m*3 17.8 C 8.1 km/h
94 09-07-2020 07:45:00 17.9 C 14.05 g/m*3 17.9 C 6.4 km/h
95 09-07-2020 07:50:00 18 C 13.98 g/m*3 18 C 6.4 km/h
96 09-07-2020 07:55:00 18.1 C 14.06 g/m*3 18.1 C 4.8 km/h
97 09-07-2020 08:00:00 18.2 C 13.99 g/m*3 18.2 C 6.4 km/h
98 09-07-2020 08:05:00 18.3 C 14.07 g/m*3 18.3 C 9.7 km/h
99 09-07-2020 08:10:00 18.4 C 14.16 g/m*3 18.4 C 9.7 km/h
100 09-07-2020 08:15:00 18.6 C 14.17 g/m*3 18.6 C 6.4 km/h
Sensor: Nr:Datum:Temp:Abs-Feuchte:Windchill:Wind:
Aussen-T/F 101 09-07-2020 08:20:00 18.6 C 14.17 g/m*3 18.6 C 6.4 km/h
102 09-07-2020 08:25:00 18.7 C 14.09 g/m*3 18.7 C 8.1 km/h
103 09-07-2020 08:30:00 18.8 C 14.17 g/m*3 18.8 C 6.4 km/h
104 09-07-2020 08:35:00 18.8 C 14.17 g/m*3 18.8 C 4.8 km/h
105 09-07-2020 08:40:00 18.8 C 14.01 g/m*3 18.8 C 11.3 km/h
106 09-07-2020 08:45:00 18.9 C 14.26 g/m*3 18.9 C 1.6 km/h
107 09-07-2020 08:50:00 19 C 14.18 g/m*3 19 C 3.2 km/h
108 09-07-2020 08:55:00 19.1 C 14.26 g/m*3 19.1 C 6.4 km/h
109 09-07-2020 09:00:00 19.2 C 14.35 g/m*3 19.2 C 8.1 km/h
110 09-07-2020 09:05:00 19.3 C 14.43 g/m*3 19.3 C 6.4 km/h
111 09-07-2020 09:10:00 19.4 C 14.35 g/m*3 19.4 C 9.7 km/h
112 09-07-2020 09:15:00 19.5 C 14.43 g/m*3 19.5 C 8.1 km/h
113 09-07-2020 09:20:00 19.6 C 14.18 g/m*3 19.6 C 12.9 km/h
114 09-07-2020 09:25:00 19.7 C 14.43 g/m*3 19.7 C 8.1 km/h
115 09-07-2020 09:30:00 19.8 C 14.52 g/m*3 19.8 C 9.7 km/h
116 09-07-2020 09:35:00 19.9 C 14.43 g/m*3 19.9 C 11.3 km/h
117 09-07-2020 09:40:00 19.9 C 14.26 g/m*3 19.9 C 11.3 km/h
118 09-07-2020 09:45:00 20 C 14.34 g/m*3 20 C 9.7 km/h
119 09-07-2020 09:50:00 20 C 14.34 g/m*3 20 C 11.3 km/h
120 09-07-2020 09:55:00 20.1 C 14.43 g/m*3 20.1 C 9.7 km/h
121 09-07-2020 10:00:00 20.1 C 14.43 g/m*3 20.1 C 12.9 km/h
122 09-07-2020 10:05:00 20.2 C 14.51 g/m*3 20.2 C 8.1 km/h
123 09-07-2020 10:10:00 20.3 C 14.6 g/m*3 20.3 C 9.7 km/h
124 09-07-2020 10:15:00 20.3 C 14.42 g/m*3 20.3 C 11.3 km/h
125 09-07-2020 10:20:00 20.3 C 14.6 g/m*3 20.3 C 8.1 km/h
Sensor: Nr:Datum:Temp:Abs-Feuchte:Windchill:Wind:
Aussen-T/F 126 09-07-2020 10:25:00 20.3 C 14.42 g/m*3 20.3 C 4.8 km/h
127 09-07-2020 10:30:00 20.3 C 14.42 g/m*3 20.3 C 9.7 km/h
128 09-07-2020 10:35:00 20.5 C 14.77 g/m*3 20.5 C 4.8 km/h
129 09-07-2020 10:40:00 20.6 C 14.5 g/m*3 20.6 C 9.7 km/h
130 09-07-2020 10:45:00 20.7 C 14.58 g/m*3 20.7 C 11.3 km/h
131 09-07-2020 10:50:00 20.6 C 14.5 g/m*3 20.6 C 9.7 km/h
132 09-07-2020 10:55:00 20.7 C 14.58 g/m*3 20.7 C 12.9 km/h
133 09-07-2020 11:00:00 20.8 C 14.67 g/m*3 20.8 C 9.7 km/h
134 09-07-2020 11:05:00 21.1 C 14.74 g/m*3 21.1 C 11.3 km/h
135 09-07-2020 11:10:00 21.2 C 14.64 g/m*3 21.2 C 12.9 km/h
136 09-07-2020 11:15:00 21.3 C 14.73 g/m*3 21.3 C 12.9 km/h
137 09-07-2020 11:20:00 21.4 C 14.81 g/m*3 21.4 C 9.7 km/h
138 09-07-2020 11:25:00 21.7 C 14.69 g/m*3 21.7 C 14.5 km/h
139 09-07-2020 11:30:00 21.8 C 14.77 g/m*3 21.8 C 14.5 km/h
140 09-07-2020 11:35:00 21.8 C 14.77 g/m*3 21.8 C 6.4 km/h
141 09-07-2020 11:40:00 22 C 14.94 g/m*3 22 C 12.9 km/h
142 09-07-2020 11:45:00 22.1 C 14.84 g/m*3 22.1 C 12.9 km/h
143 09-07-2020 11:50:00 22.2 C 15.12 g/m*3 22.2 C 9.7 km/h
144 09-07-2020 11:55:00 22.3 C 14.81 g/m*3 22.3 C 9.7 km/h
145 09-07-2020 12:00:00 22.3 C 14.81 g/m*3 22.3 C 9.7 km/h
146 09-07-2020 12:05:00 22.4 C 14.7 g/m*3 22.4 C 11.3 km/h
147 09-07-2020 12:10:00 22.6 C 14.87 g/m*3 22.6 C 16.1 km/h
148 09-07-2020 12:15:00 22.7 C 14.75 g/m*3 22.7 C 16.1 km/h
149 09-07-2020 12:20:00 22.8 C 15.04 g/m*3 22.8 C 12.9 km/h
150 09-07-2020 12:25:00 22.8 C 14.83 g/m*3 22.8 C 8.1 km/h
Sensor: Nr:Datum:Temp:Abs-Feuchte:Windchill:Wind:
Aussen-T/F 151 09-07-2020 12:30:00 23 C 14.8 g/m*3 23 C 12.9 km/h
152 09-07-2020 12:35:00 23.2 C 15.18 g/m*3 23.2 C 8.1 km/h
153 09-07-2020 12:40:00 23.3 C 14.43 g/m*3 23.3 C 8.1 km/h
154 09-07-2020 12:45:00 23.4 C 14.3 g/m*3 23.4 C 9.7 km/h
155 09-07-2020 12:50:00 23.7 C 14.97 g/m*3 23.7 C 12.9 km/h
156 09-07-2020 12:55:00 23.8 C 14.84 g/m*3 23.8 C 9.7 km/h
157 09-07-2020 13:00:00 24 C 15.23 g/m*3 24 C 4.8 km/h
158 09-07-2020 13:05:00 24.2 C 15.4 g/m*3 24.2 C 11.3 km/h
159 09-07-2020 13:10:00 24.3 C 14.38 g/m*3 24.3 C 11.3 km/h
160 09-07-2020 13:15:00 24.4 C 13.8 g/m*3 24.4 C 12.9 km/h
161 09-07-2020 13:20:00 24.6 C 13.95 g/m*3 24.6 C 20.9 km/h
162 09-07-2020 13:25:00 24.7 C 14.49 g/m*3 24.7 C 14.5 km/h
163 09-07-2020 13:30:00 24.6 C 14.18 g/m*3 24.6 C 16.1 km/h
164 09-07-2020 13:35:00 24.6 C 13.73 g/m*3 24.6 C 14.5 km/h
165 09-07-2020 13:40:00 24.6 C 13.95 g/m*3 24.6 C 11.3 km/h
166 09-07-2020 13:45:00 24.6 C 13.73 g/m*3 24.6 C 17.7 km/h
167 09-07-2020 13:50:00 24.7 C 12.9 g/m*3 24.7 C 12.9 km/h
168 09-07-2020 13:55:00 24.9 C 13.28 g/m*3 24.9 C 17.7 km/h
169 09-07-2020 14:00:00 25.1 C 13.2 g/m*3 25.1 C 16.1 km/h
170 09-07-2020 14:05:00 25.4 C 13.89 g/m*3 25.4 C 20.9 km/h
171 09-07-2020 14:10:00 25.5 C 13.73 g/m*3 25.5 C 22.5 km/h
172 09-07-2020 14:15:00 25.6 C 13.09 g/m*3 25.6 C 16.1 km/h
173 09-07-2020 14:20:00 25.8 C 13.24 g/m*3 25.8 C 12.9 km/h
174 09-07-2020 14:25:00 26.1 C 13.22 g/m*3 26.1 C 19.3 km/h
175 09-07-2020 14:30:00 26.2 C 13.29 g/m*3 26.2 C 19.3 km/h
Sensor: Nr:Datum:Temp:Abs-Feuchte:Windchill:Wind:
Aussen-T/F 176 09-07-2020 14:35:00 26.4 C 13.19 g/m*3 26.4 C 12.9 km/h
177 09-07-2020 14:40:00 26.5 C 13.52 g/m*3 26.5 C 11.3 km/h
178 09-07-2020 14:45:00 26.8 C 13.74 g/m*3 26.8 C 9.7 km/h
179 09-07-2020 14:50:00 26.9 C 13.56 g/m*3 26.9 C 14.5 km/h
180 09-07-2020 14:55:00 27.1 C 13.97 g/m*3 27.1 C 12.9 km/h
181 09-07-2020 15:00:00 27.2 C 14.05 g/m*3 27.2 C 11.3 km/h
182 09-07-2020 15:05:00 27.3 C 12.82 g/m*3 27.3 C 14.5 km/h
183 09-07-2020 15:10:00 27 C 12.87 g/m*3 27 C 14.5 km/h
184 09-07-2020 15:15:00 26.8 C 13.49 g/m*3 26.8 C 11.3 km/h
185 09-07-2020 15:20:00 26.8 C 13.24 g/m*3 26.8 C 12.9 km/h
186 09-07-2020 15:25:00 26.8 C 12.98 g/m*3 26.8 C 12.9 km/h
187 09-07-2020 15:30:00 26.8 C 13.24 g/m*3 26.8 C 12.9 km/h
188 09-07-2020 15:35:00 26.9 C 12.54 g/m*3 26.9 C 16.1 km/h
189 09-07-2020 15:40:00 27 C 12.61 g/m*3 27 C 14.5 km/h
190 09-07-2020 15:45:00 27.3 C 13.08 g/m*3 27.3 C 11.3 km/h
191 09-07-2020 15:50:00 27.6 C 12.24 g/m*3 27.6 C 20.9 km/h
192 09-07-2020 15:55:00 27.5 C 12.7 g/m*3 27.5 C 16.1 km/h
193 09-07-2020 16:00:00 27.6 C 12.5 g/m*3 27.6 C 17.7 km/h
194 09-07-2020 16:05:00 27.7 C 12.57 g/m*3 27.7 C 16.1 km/h
195 09-07-2020 16:10:00 27.8 C 12.91 g/m*3 27.8 C 14.5 km/h
196 09-07-2020 16:15:00 28.3 C 12.44 g/m*3 28.3 C 20.9 km/h
197 09-07-2020 16:20:00 28.4 C 13.06 g/m*3 28.4 C 14.5 km/h
198 09-07-2020 16:25:00 28.6 C 12.37 g/m*3 28.6 C 19.3 km/h
199 09-07-2020 16:30:00 28.3 C 12.44 g/m*3 28.3 C 14.5 km/h
200 09-07-2020 16:35:00 28.1 C 12.3 g/m*3 28.1 C 17.7 km/h
Sensor: Nr:Datum:Temp:Abs-Feuchte:Windchill:Wind:
Aussen-T/F 201 09-07-2020 16:40:00 28 C 12.78 g/m*3 28 C 19.3 km/h
202 09-07-2020 16:45:00 27.9 C 12.17 g/m*3 27.9 C 20.9 km/h
203 09-07-2020 16:50:00 27.8 C 12.64 g/m*3 27.8 C 12.9 km/h
204 09-07-2020 16:55:00 28.1 C 12.03 g/m*3 28.1 C 22.5 km/h
205 09-07-2020 17:00:00 28.1 C 12.3 g/m*3 28.1 C 19.3 km/h
206 09-07-2020 17:05:00 28.1 C 12.3 g/m*3 28.1 C 24.1 km/h
207 09-07-2020 17:10:00 28.2 C 12.1 g/m*3 28.2 C 20.9 km/h
208 09-07-2020 17:15:00 28 C 12.24 g/m*3 28 C 22.5 km/h
209 09-07-2020 17:20:00 27.8 C 12.1 g/m*3 27.8 C 16.1 km/h
210 09-07-2020 17:25:00 27.7 C 12.3 g/m*3 27.7 C 12.9 km/h
211 09-07-2020 17:30:00 27.6 C 11.97 g/m*3 27.6 C 16.1 km/h
212 09-07-2020 17:35:00 27.6 C 12.24 g/m*3 27.6 C 11.3 km/h
213 09-07-2020 17:40:00 27.7 C 12.57 g/m*3 27.7 C 12.9 km/h
214 09-07-2020 17:45:00 27.8 C 12.37 g/m*3 27.8 C 11.3 km/h
215 09-07-2020 17:50:00 27.7 C 12.04 g/m*3 27.7 C 16.1 km/h
216 09-07-2020 17:55:00 27.7 C 12.57 g/m*3 27.7 C 8.1 km/h
217 09-07-2020 18:00:00 27.7 C 12.04 g/m*3 27.7 C 16.1 km/h
218 09-07-2020 18:05:00 27.7 C 12.57 g/m*3 27.7 C 11.3 km/h
219 09-07-2020 18:10:00 27.6 C 12.24 g/m*3 27.6 C 16.1 km/h
220 09-07-2020 18:15:00 27.6 C 11.97 g/m*3 27.6 C 11.3 km/h
221 09-07-2020 18:20:00 27.6 C 12.24 g/m*3 27.6 C 16.1 km/h
222 09-07-2020 18:25:00 27.7 C 12.04 g/m*3 27.7 C 8.1 km/h
223 09-07-2020 18:30:00 27.9 C 12.17 g/m*3 27.9 C 8.1 km/h
224 09-07-2020 18:35:00 28 C 12.24 g/m*3 28 C 11.3 km/h
225 09-07-2020 18:40:00 27.9 C 11.63 g/m*3 27.9 C 14.5 km/h
Sensor: Nr:Datum:Temp:Abs-Feuchte:Windchill:Wind:
Aussen-T/F 226 09-07-2020 18:45:00 27.8 C 11.83 g/m*3 27.8 C 11.3 km/h
227 09-07-2020 18:50:00 27.8 C 11.83 g/m*3 27.8 C 16.1 km/h
228 09-07-2020 18:55:00 27.9 C 12.17 g/m*3 27.9 C 8.1 km/h
229 09-07-2020 19:00:00 27.8 C 11.57 g/m*3 27.8 C 12.9 km/h
230 09-07-2020 19:05:00 27.6 C 11.71 g/m*3 27.6 C 11.3 km/h
231 09-07-2020 19:10:00 27.5 C 12.17 g/m*3 27.5 C 4.8 km/h
232 09-07-2020 19:15:00 27.4 C 11.58 g/m*3 27.4 C 12.9 km/h
233 09-07-2020 19:20:00 27.4 C 11.58 g/m*3 27.4 C 11.3 km/h
234 09-07-2020 19:25:00 27.4 C 12.1 g/m*3 27.4 C 9.7 km/h
235 09-07-2020 19:30:00 27.4 C 11.84 g/m*3 27.4 C 8.1 km/h
236 09-07-2020 19:35:00 27.3 C 13.08 g/m*3 27.3 C 3.2 km/h
237 09-07-2020 19:40:00 27.2 C 12.75 g/m*3 27.2 C 0 km/h
238 09-07-2020 19:45:00 26.9 C 12.8 g/m*3 26.9 C 1.6 km/h
239 09-07-2020 19:50:00 26.8 C 11.96 g/m*3 26.8 C 8.1 km/h
240 09-07-2020 19:55:00 26.7 C 13.16 g/m*3 26.7 C 3.2 km/h
241 09-07-2020 20:00:00 26.7 C 13.16 g/m*3 26.7 C 1.6 km/h
242 09-07-2020 20:05:00 26.6 C 13.34 g/m*3 26.6 C 4.8 km/h
243 09-07-2020 20:10:00 26.4 C 11.95 g/m*3 26.4 C 4.8 km/h
244 09-07-2020 20:15:00 26.6 C 12.08 g/m*3 26.6 C 8.1 km/h
245 09-07-2020 20:20:00 26.8 C 10.94 g/m*3 26.8 C 11.3 km/h
246 09-07-2020 20:25:00 26.9 C 12.29 g/m*3 26.9 C 9.7 km/h
247 09-07-2020 20:30:00 26.7 C 12.66 g/m*3 26.7 C 6.4 km/h
248 09-07-2020 20:35:00 26.3 C 12.87 g/m*3 26.3 C 6.4 km/h
249 09-07-2020 20:40:00 26.1 C 12.98 g/m*3 26.1 C 4.8 km/h
250 09-07-2020 20:45:00 25.8 C 13.24 g/m*3 25.8 C 4.8 km/h
Sensor: Nr:Datum:Temp:Abs-Feuchte:Windchill:Wind:
Aussen-T/F 251 09-07-2020 20:50:00 25.6 C 13.81 g/m*3 25.6 C 0 km/h
252 09-07-2020 20:55:00 25.4 C 14.13 g/m*3 25.4 C 0 km/h
253 09-07-2020 21:00:00 25.2 C 14.2 g/m*3 25.2 C 0 km/h
254 09-07-2020 21:05:00 24.8 C 14.11 g/m*3 24.8 C 0 km/h
255 09-07-2020 21:10:00 24.5 C 14.32 g/m*3 24.5 C 0 km/h
256 09-07-2020 21:15:00 24.2 C 14.3 g/m*3 24.2 C 0 km/h
257 09-07-2020 21:20:00 23.9 C 14.06 g/m*3 23.9 C 0 km/h
258 09-07-2020 21:25:00 23.6 C 14.25 g/m*3 23.6 C 0 km/h
259 09-07-2020 21:30:00 23.3 C 14.01 g/m*3 23.3 C 0 km/h
260 09-07-2020 21:35:00 23 C 13.98 g/m*3 23 C 0 km/h
261 09-07-2020 21:40:00 22.8 C 14.02 g/m*3 22.8 C 0 km/h
262 09-07-2020 21:45:00 22.6 C 14.26 g/m*3 22.6 C 0 km/h
263 09-07-2020 21:50:00 22.3 C 14.02 g/m*3 22.3 C 0 km/h
264 09-07-2020 21:55:00 22.1 C 13.86 g/m*3 22.1 C 0 km/h
265 09-07-2020 22:00:00 22 C 13.97 g/m*3 22 C 0 km/h
266 09-07-2020 22:05:00 21.8 C 14.01 g/m*3 21.8 C 0 km/h
267 09-07-2020 22:10:00 21.8 C 14.2 g/m*3 21.8 C 0 km/h
268 09-07-2020 22:15:00 21.7 C 14.12 g/m*3 21.7 C 0 km/h
269 09-07-2020 22:20:00 21.6 C 14.22 g/m*3 21.6 C 0 km/h
270 09-07-2020 22:25:00 21.4 C 14.06 g/m*3 21.4 C 0 km/h
271 09-07-2020 22:30:00 21.3 C 13.98 g/m*3 21.3 C 0 km/h
272 09-07-2020 22:35:00 21.2 C 13.9 g/m*3 21.2 C 0 km/h
273 09-07-2020 22:40:00 21.2 C 14.08 g/m*3 21.2 C 0 km/h
274 09-07-2020 22:45:00 21.1 C 14.19 g/m*3 21.1 C 0 km/h
275 09-07-2020 22:50:00 21.1 C 14.19 g/m*3 21.1 C 3.2 km/h
Sensor: Nr:Datum:Temp:Abs-Feuchte:Windchill:Wind:
Aussen-T/F 276 09-07-2020 22:55:00 20.9 C 14.02 g/m*3 20.9 C 3.2 km/h
277 09-07-2020 23:00:00 20.9 C 14.02 g/m*3 20.9 C 0 km/h
278 09-07-2020 23:05:00 20.8 C 13.94 g/m*3 20.8 C 0 km/h
279 09-07-2020 23:10:00 20.8 C 13.94 g/m*3 20.8 C 0 km/h
280 09-07-2020 23:15:00 20.7 C 14.04 g/m*3 20.7 C 0 km/h
281 09-07-2020 23:20:00 20.6 C 13.96 g/m*3 20.6 C 0 km/h
282 09-07-2020 23:25:00 20.4 C 13.98 g/m*3 20.4 C 0 km/h
283 09-07-2020 23:30:00 20.4 C 13.98 g/m*3 20.4 C 0 km/h
284 09-07-2020 23:35:00 20.3 C 13.89 g/m*3 20.3 C 0 km/h
285 09-07-2020 23:40:00 20.2 C 13.81 g/m*3 20.2 C 0 km/h
286 09-07-2020 23:45:00 20.2 C 13.81 g/m*3 20.2 C 0 km/h
287 09-07-2020 23:50:00 20.1 C 13.91 g/m*3 20.1 C 0 km/h
288 09-07-2020 23:55:00 19.9 C 13.57 g/m*3 19.9 C 0 km/h
289 10-07-2020 00:00:00 19.8 C 13.49 g/m*3 19.8 C 0 km/h
290 10-07-2020 00:05:00 19.7 C 13.58 g/m*3 19.7 C 0 km/h
291 10-07-2020 00:10:00 19.5 C 13.43 g/m*3 19.5 C 0 km/h
292 10-07-2020 00:15:00 19.3 C 13.44 g/m*3 19.3 C 0 km/h
293 10-07-2020 00:20:00 19.2 C 13.36 g/m*3 19.2 C 0 km/h
294 10-07-2020 00:25:00 19 C 13.36 g/m*3 19 C 0 km/h
295 10-07-2020 00:30:00 18.8 C 13.21 g/m*3 18.8 C 0 km/h
296 10-07-2020 00:35:00 18.7 C 13.29 g/m*3 18.7 C 0 km/h
297 10-07-2020 00:40:00 18.6 C 13.21 g/m*3 18.6 C 0 km/h
298 10-07-2020 00:45:00 18.4 C 13.21 g/m*3 18.4 C 0 km/h
299 10-07-2020 00:50:00 18.3 C 13.13 g/m*3 18.3 C 0 km/h
300 10-07-2020 00:55:00 18.3 C 13.13 g/m*3 18.3 C 0 km/h
Sensor: Nr:Datum:Temp:Abs-Feuchte:Windchill:Wind:
Aussen-T/F 301 10-07-2020 01:00:00 18.2 C 13.21 g/m*3 18.2 C 0 km/h
302 10-07-2020 01:05:00 18.1 C 13.13 g/m*3 18.1 C 0 km/h
303 10-07-2020 01:10:00 18 C 13.06 g/m*3 18 C 0 km/h
304 10-07-2020 01:15:00 17.9 C 12.98 g/m*3 17.9 C 0 km/h
305 10-07-2020 01:20:00 17.9 C 12.98 g/m*3 17.9 C 0 km/h
306 10-07-2020 01:25:00 17.9 C 12.98 g/m*3 17.9 C 0 km/h
307 10-07-2020 01:30:00 17.8 C 13.05 g/m*3 17.8 C 0 km/h
308 10-07-2020 01:35:00 17.8 C 13.05 g/m*3 17.8 C 0 km/h
309 10-07-2020 01:40:00 17.7 C 12.98 g/m*3 17.7 C 0 km/h
310 10-07-2020 01:45:00 17.6 C 12.9 g/m*3 17.6 C 0 km/h
311 10-07-2020 01:50:00 17.5 C 12.82 g/m*3 17.5 C 0 km/h
312 10-07-2020 01:55:00 17.4 C 12.75 g/m*3 17.4 C 0 km/h
313 10-07-2020 02:00:00 17.3 C 12.67 g/m*3 17.3 C 0 km/h
314 10-07-2020 02:05:00 17.2 C 12.74 g/m*3 17.2 C 0 km/h
315 10-07-2020 02:10:00 17.2 C 12.74 g/m*3 17.2 C 0 km/h
316 10-07-2020 02:15:00 17.1 C 12.81 g/m*3 17.1 C 0 km/h
317 10-07-2020 02:20:00 17.1 C 12.81 g/m*3 17.1 C 0 km/h
318 10-07-2020 02:25:00 17 C 12.73 g/m*3 17 C 0 km/h
319 10-07-2020 02:30:00 16.9 C 12.66 g/m*3 16.9 C 0 km/h
320 10-07-2020 02:35:00 16.9 C 12.66 g/m*3 16.9 C 0 km/h
321 10-07-2020 02:40:00 16.8 C 12.58 g/m*3 16.8 C 0 km/h
322 10-07-2020 02:45:00 16.7 C 12.51 g/m*3 16.7 C 0 km/h
323 10-07-2020 02:50:00 16.7 C 12.65 g/m*3 16.7 C 0 km/h
324 10-07-2020 02:55:00 16.7 C 12.65 g/m*3 16.7 C 0 km/h
325 10-07-2020 03:00:00 16.7 C 12.65 g/m*3 16.7 C 0 km/h
Sensor: Nr:Datum:Temp:Abs-Feuchte:Windchill:Wind:
Aussen-T/F 326 10-07-2020 03:05:00 16.7 C 12.65 g/m*3 16.7 C 0 km/h
327 10-07-2020 03:10:00 16.6 C 12.57 g/m*3 16.6 C 0 km/h
328 10-07-2020 03:15:00 16.6 C 12.57 g/m*3 16.6 C 0 km/h
329 10-07-2020 03:20:00 16.7 C 12.65 g/m*3 16.7 C 0 km/h
330 10-07-2020 03:25:00 16.7 C 12.65 g/m*3 16.7 C 0 km/h
331 10-07-2020 03:30:00 16.6 C 12.57 g/m*3 16.6 C 0 km/h
332 10-07-2020 03:35:00 16.6 C 12.57 g/m*3 16.6 C 0 km/h
333 10-07-2020 03:40:00 16.6 C 12.57 g/m*3 16.6 C 0 km/h
334 10-07-2020 03:45:00 16.6 C 12.57 g/m*3 16.6 C 0 km/h
335 10-07-2020 03:50:00 16.5 C 12.5 g/m*3 16.5 C 0 km/h
336 10-07-2020 03:55:00 16.5 C 12.5 g/m*3 16.5 C 0 km/h
337 10-07-2020 04:00:00 16.4 C 12.42 g/m*3 16.4 C 0 km/h
338 10-07-2020 04:05:00 16.4 C 12.42 g/m*3 16.4 C 0 km/h
339 10-07-2020 04:10:00 16.3 C 12.35 g/m*3 16.3 C 0 km/h
340 10-07-2020 04:15:00 16.3 C 12.49 g/m*3 16.3 C 0 km/h
341 10-07-2020 04:20:00 16.2 C 12.41 g/m*3 16.2 C 0 km/h
342 10-07-2020 04:25:00 16.1 C 12.34 g/m*3 16.1 C 0 km/h
343 10-07-2020 04:30:00 16.1 C 12.34 g/m*3 16.1 C 0 km/h
344 10-07-2020 04:35:00 16.1 C 12.34 g/m*3 16.1 C 0 km/h
345 10-07-2020 04:40:00 16.1 C 12.47 g/m*3 16.1 C 0 km/h
346 10-07-2020 04:45:00 16.1 C 12.47 g/m*3 16.1 C 0 km/h
347 10-07-2020 04:50:00 16.1 C 12.47 g/m*3 16.1 C 0 km/h
348 10-07-2020 04:55:00 16.2 C 12.55 g/m*3 16.2 C 0 km/h
349 10-07-2020 05:00:00 16.2 C 12.55 g/m*3 16.2 C 0 km/h
350 10-07-2020 05:05:00 16.2 C 12.55 g/m*3 16.2 C 0 km/h
Sensor: Nr:Datum:Temp:Abs-Feuchte:Windchill:Wind:
Aussen-T/F 351 10-07-2020 05:10:00 16.1 C 12.47 g/m*3 16.1 C 0 km/h
352 10-07-2020 05:15:00 16.1 C 12.47 g/m*3 16.1 C 0 km/h
353 10-07-2020 05:20:00 16.1 C 12.47 g/m*3 16.1 C 0 km/h
354 10-07-2020 05:25:00 16.1 C 12.47 g/m*3 16.1 C 0 km/h
355 10-07-2020 05:30:00 16.1 C 12.47 g/m*3 16.1 C 0 km/h
356 10-07-2020 05:35:00 16.1 C 12.47 g/m*3 16.1 C 8.1 km/h
357 10-07-2020 05:40:00 16.2 C 12.41 g/m*3 16.2 C 0 km/h
358 10-07-2020 05:45:00 16.2 C 12.41 g/m*3 16.2 C 0 km/h
359 10-07-2020 05:50:00 16.2 C 12.41 g/m*3 16.2 C 0 km/h
360 10-07-2020 05:55:00 16.2 C 12.41 g/m*3 16.2 C 6.4 km/h
361 10-07-2020 06:00:00 16.2 C 12.41 g/m*3 16.2 C 9.7 km/h
362 10-07-2020 06:05:00 16.2 C 12.41 g/m*3 16.2 C 0 km/h
363 10-07-2020 06:10:00 16.2 C 12.41 g/m*3 16.2 C 0 km/h
364 10-07-2020 06:15:00 16.2 C 12.41 g/m*3 16.2 C 0 km/h
365 10-07-2020 06:20:00 16.2 C 12.41 g/m*3 16.2 C 0 km/h
366 10-07-2020 06:25:00 16.3 C 12.62 g/m*3 16.3 C 0 km/h
367 10-07-2020 06:30:00 16.3 C 12.62 g/m*3 16.3 C 0 km/h
368 10-07-2020 06:35:00 16.4 C 12.7 g/m*3 16.4 C 0 km/h
369 10-07-2020 06:40:00 16.4 C 12.7 g/m*3 16.4 C 0 km/h
370 10-07-2020 06:45:00 16.5 C 12.64 g/m*3 16.5 C 0 km/h
371 10-07-2020 06:50:00 16.5 C 12.64 g/m*3 16.5 C 3.2 km/h
372 10-07-2020 06:55:00 16.6 C 12.57 g/m*3 16.6 C 0 km/h
373 10-07-2020 07:00:00 16.7 C 12.65 g/m*3 16.7 C 0 km/h
374 10-07-2020 07:05:00 16.7 C 12.65 g/m*3 16.7 C 0 km/h
375 10-07-2020 07:10:00 16.8 C 12.72 g/m*3 16.8 C 4.8 km/h
Sensor: Nr:Datum:Temp:Abs-Feuchte:Windchill:Wind:
Aussen-T/F 376 10-07-2020 07:15:00 17 C 12.73 g/m*3 17 C 3.2 km/h
377 10-07-2020 07:20:00 17.2 C 12.89 g/m*3 17.2 C 3.2 km/h
378 10-07-2020 07:25:00 17.3 C 12.96 g/m*3 17.3 C 0 km/h
379 10-07-2020 07:30:00 17.4 C 12.89 g/m*3 17.4 C 0 km/h
380 10-07-2020 07:35:00 17.6 C 13.05 g/m*3 17.6 C 6.4 km/h
381 10-07-2020 07:40:00 17.7 C 12.98 g/m*3 17.7 C 4.8 km/h
382 10-07-2020 07:45:00 17.9 C 13.13 g/m*3 17.9 C 0 km/h
383 10-07-2020 07:50:00 18.1 C 13.13 g/m*3 18.1 C 3.2 km/h
384 10-07-2020 07:55:00 18.2 C 13.21 g/m*3 18.2 C 3.2 km/h
385 10-07-2020 08:00:00 18.4 C 13.37 g/m*3 18.4 C 0 km/h
386 10-07-2020 08:05:00 18.5 C 13.29 g/m*3 18.5 C 0 km/h
387 10-07-2020 08:10:00 18.6 C 13.37 g/m*3 18.6 C 3.2 km/h
388 10-07-2020 08:15:00 18.7 C 13.45 g/m*3 18.7 C 0 km/h
389 10-07-2020 08:20:00 18.8 C 13.37 g/m*3 18.8 C 3.2 km/h
390 10-07-2020 08:25:00 19 C 13.69 g/m*3 19 C 4.8 km/h
391 10-07-2020 08:30:00 19.2 C 13.52 g/m*3 19.2 C 4.8 km/h
392 10-07-2020 08:35:00 19.4 C 13.68 g/m*3 19.4 C 8.1 km/h
393 10-07-2020 08:40:00 19.6 C 13.51 g/m*3 19.6 C 4.8 km/h
394 10-07-2020 08:45:00 19.8 C 13.32 g/m*3 19.8 C 8.1 km/h
395 10-07-2020 08:50:00 20.1 C 13.39 g/m*3 20.1 C 9.7 km/h
396 10-07-2020 08:55:00 20.2 C 13.46 g/m*3 20.2 C 19.3 km/h
397 10-07-2020 09:00:00 20.3 C 13.37 g/m*3 20.3 C 11.3 km/h
398 10-07-2020 09:05:00 20.3 C 13.37 g/m*3 20.3 C 9.7 km/h
399 10-07-2020 09:10:00 20.3 C 13.19 g/m*3 20.3 C 14.5 km/h
400 10-07-2020 09:15:00 20.3 C 13.19 g/m*3 20.3 C 14.5 km/h
Sensor: Nr:Datum:Temp:Abs-Feuchte:Windchill:Wind:
Aussen-T/F 401 10-07-2020 09:20:00 20.3 C 13.37 g/m*3 20.3 C 12.9 km/h
402 10-07-2020 09:25:00 20.3 C 13.37 g/m*3 20.3 C 9.7 km/h
403 10-07-2020 09:30:00 20.3 C 13.37 g/m*3 20.3 C 14.5 km/h
404 10-07-2020 09:35:00 20.2 C 13.46 g/m*3 20.2 C 9.7 km/h
405 10-07-2020 09:40:00 20.2 C 13.46 g/m*3 20.2 C 11.3 km/h
406 10-07-2020 09:45:00 20.2 C 13.29 g/m*3 20.2 C 9.7 km/h
407 10-07-2020 09:50:00 20.2 C 13.29 g/m*3 20.2 C 14.5 km/h
408 10-07-2020 09:55:00 20.3 C 13.19 g/m*3 20.3 C 14.5 km/h
409 10-07-2020 10:00:00 20.4 C 13.27 g/m*3 20.4 C 9.7 km/h
410 10-07-2020 10:05:00 20.4 C 13.27 g/m*3 20.4 C 16.1 km/h
411 10-07-2020 10:10:00 20.4 C 13.27 g/m*3 20.4 C 11.3 km/h
412 10-07-2020 10:15:00 20.4 C 12.91 g/m*3 20.4 C 17.7 km/h
413 10-07-2020 10:20:00 20.6 C 12.89 g/m*3 20.6 C 12.9 km/h
414 10-07-2020 10:25:00 20.7 C 12.78 g/m*3 20.7 C 16.1 km/h
415 10-07-2020 10:30:00 20.8 C 12.86 g/m*3 20.8 C 16.1 km/h
416 10-07-2020 10:35:00 20.8 C 12.49 g/m*3 20.8 C 19.3 km/h
417 10-07-2020 10:40:00 20.8 C 12.86 g/m*3 20.8 C 17.7 km/h
418 10-07-2020 10:45:00 20.9 C 12.93 g/m*3 20.9 C 16.1 km/h
419 10-07-2020 10:50:00 21 C 13.01 g/m*3 21 C 12.9 km/h
420 10-07-2020 10:55:00 21.1 C 13.08 g/m*3 21.1 C 12.9 km/h
421 10-07-2020 11:00:00 21.2 C 13.16 g/m*3 21.2 C 14.5 km/h
422 10-07-2020 11:05:00 21.2 C 12.79 g/m*3 21.2 C 14.5 km/h
423 10-07-2020 11:10:00 21.3 C 12.86 g/m*3 21.3 C 14.5 km/h
424 10-07-2020 11:15:00 21.3 C 12.68 g/m*3 21.3 C 17.7 km/h
425 10-07-2020 11:20:00 21.2 C 12.79 g/m*3 21.2 C 17.7 km/h
Sensor: Nr:Datum:Temp:Abs-Feuchte:Windchill:Wind:
Aussen-T/F 426 10-07-2020 11:25:00 21.3 C 12.86 g/m*3 21.3 C 14.5 km/h
427 10-07-2020 11:30:00 21.3 C 12.68 g/m*3 21.3 C 17.7 km/h
428 10-07-2020 11:35:00 21.4 C 12.94 g/m*3 21.4 C 11.3 km/h
429 10-07-2020 11:40:00 21.6 C 12.52 g/m*3 21.6 C 17.7 km/h
430 10-07-2020 11:45:00 21.6 C 12.52 g/m*3 21.6 C 22.5 km/h
431 10-07-2020 11:50:00 21.8 C 12.66 g/m*3 21.8 C 22.5 km/h
432 10-07-2020 11:55:00 21.9 C 12.35 g/m*3 21.9 C 20.9 km/h
433 10-07-2020 12:00:00 21.9 C 12.35 g/m*3 21.9 C 17.7 km/h
434 10-07-2020 12:05:00 22.1 C 12.69 g/m*3 22.1 C 17.7 km/h
435 10-07-2020 12:10:00 22.2 C 12.96 g/m*3 22.2 C 16.1 km/h
436 10-07-2020 12:15:00 22.1 C 12.88 g/m*3 22.1 C 17.7 km/h
437 10-07-2020 12:20:00 21.9 C 12.74 g/m*3 21.9 C 14.5 km/h
438 10-07-2020 12:25:00 21.9 C 12.54 g/m*3 21.9 C 11.3 km/h
439 10-07-2020 12:30:00 21.9 C 12.54 g/m*3 21.9 C 14.5 km/h
440 10-07-2020 12:35:00 21.9 C 12.54 g/m*3 21.9 C 19.3 km/h
441 10-07-2020 12:40:00 21.9 C 12.35 g/m*3 21.9 C 16.1 km/h
442 10-07-2020 12:45:00 22 C 12.42 g/m*3 22 C 16.1 km/h
443 10-07-2020 12:50:00 22.1 C 12.49 g/m*3 22.1 C 12.9 km/h
444 10-07-2020 12:55:00 21.9 C 12.35 g/m*3 21.9 C 19.3 km/h
445 10-07-2020 13:00:00 21.8 C 12.47 g/m*3 21.8 C 17.7 km/h
446 10-07-2020 13:05:00 21.8 C 12.28 g/m*3 21.8 C 16.1 km/h
447 10-07-2020 13:10:00 21.9 C 12.35 g/m*3 21.9 C 11.3 km/h
448 10-07-2020 13:15:00 21.9 C 12.35 g/m*3 21.9 C 19.3 km/h
449 10-07-2020 13:20:00 21.6 C 12.33 g/m*3 21.6 C 22.5 km/h
450 10-07-2020 13:25:00 21.2 C 11.86 g/m*3 21.2 C 16.1 km/h
Sensor: Nr:Datum:Temp:Abs-Feuchte:Windchill:Wind:
Aussen-T/F 451 10-07-2020 13:30:00 20.9 C 12.2 g/m*3 20.9 C 12.9 km/h
452 10-07-2020 13:35:00 20.8 C 11.95 g/m*3 20.8 C 17.7 km/h
453 10-07-2020 13:40:00 20.8 C 11.95 g/m*3 20.8 C 16.1 km/h
454 10-07-2020 13:45:00 20.8 C 11.95 g/m*3 20.8 C 14.5 km/h
455 10-07-2020 13:50:00 20.8 C 12.13 g/m*3 20.8 C 16.1 km/h
456 10-07-2020 13:55:00 20.8 C 11.95 g/m*3 20.8 C 17.7 km/h
457 10-07-2020 14:00:00 20.8 C 12.13 g/m*3 20.8 C 11.3 km/h
458 10-07-2020 14:05:00 20.9 C 12.57 g/m*3 20.9 C 6.4 km/h
459 10-07-2020 14:10:00 21.2 C 12.23 g/m*3 21.2 C 20.9 km/h
460 10-07-2020 14:15:00 21.2 C 12.23 g/m*3 21.2 C 19.3 km/h
461 10-07-2020 14:20:00 21.2 C 12.23 g/m*3 21.2 C 14.5 km/h
462 10-07-2020 14:25:00 21.1 C 11.98 g/m*3 21.1 C 14.5 km/h
463 10-07-2020 14:30:00 20.9 C 12.02 g/m*3 20.9 C 25.7 km/h
464 10-07-2020 14:35:00 20.9 C 12.02 g/m*3 20.9 C 9.7 km/h
465 10-07-2020 14:40:00 20.9 C 12.02 g/m*3 20.9 C 12.9 km/h
466 10-07-2020 14:45:00 20.8 C 11.77 g/m*3 20.8 C 16.1 km/h
467 10-07-2020 14:50:00 20.8 C 11.95 g/m*3 20.8 C 17.7 km/h
468 10-07-2020 14:55:00 20.8 C 11.95 g/m*3 20.8 C 12.9 km/h
469 10-07-2020 15:00:00 20.8 C 11.95 g/m*3 20.8 C 16.1 km/h
470 10-07-2020 15:05:00 20.7 C 12.06 g/m*3 20.7 C 14.5 km/h
471 10-07-2020 15:10:00 20.7 C 12.42 g/m*3 20.7 C 11.3 km/h
472 10-07-2020 15:15:00 20.2 C 12.76 g/m*3 20.2 C 14.5 km/h
473 10-07-2020 15:20:00 19.5 C 13.09 g/m*3 19.5 C 11.3 km/h
474 10-07-2020 15:25:00 19 C 13.2 g/m*3 19 C 6.4 km/h
475 10-07-2020 15:30:00 18.7 C 13.29 g/m*3 18.7 C 9.7 km/h
Sensor: Nr:Datum:Temp:Abs-Feuchte:Windchill:Wind:
Aussen-T/F 476 10-07-2020 15:35:00 18.4 C 13.53 g/m*3 18.4 C 8.1 km/h
477 10-07-2020 15:40:00 18.4 C 13.68 g/m*3 18.4 C 8.1 km/h
478 10-07-2020 15:45:00 18.4 C 14 g/m*3 18.4 C 6.4 km/h
479 10-07-2020 15:50:00 18.4 C 13.68 g/m*3 18.4 C 9.7 km/h
480 10-07-2020 15:55:00 18.4 C 13.84 g/m*3 18.4 C 4.8 km/h
481 10-07-2020 16:00:00 18.4 C 13.84 g/m*3 18.4 C 0 km/h
482 10-07-2020 16:05:00 18.4 C 13.84 g/m*3 18.4 C 0 km/h
483 10-07-2020 16:10:00 18.5 C 14.08 g/m*3 18.5 C 4.8 km/h
484 10-07-2020 16:15:00 18.6 C 14.32 g/m*3 18.6 C 4.8 km/h
485 10-07-2020 16:20:00 18.7 C 14.41 g/m*3 18.7 C 8.1 km/h
486 10-07-2020 16:25:00 18.6 C 14.32 g/m*3 18.6 C 4.8 km/h
487 10-07-2020 16:30:00 18.5 C 14.08 g/m*3 18.5 C 8.1 km/h
488 10-07-2020 16:35:00 18.3 C 13.92 g/m*3 18.3 C 6.4 km/h
489 10-07-2020 16:40:00 18.2 C 13.83 g/m*3 18.2 C 8.1 km/h
490 10-07-2020 16:45:00 18.1 C 13.75 g/m*3 18.1 C 6.4 km/h
491 10-07-2020 16:50:00 17.9 C 13.59 g/m*3 17.9 C 8.1 km/h
492 10-07-2020 16:55:00 17.8 C 13.66 g/m*3 17.8 C 9.7 km/h
493 10-07-2020 17:00:00 17.7 C 13.58 g/m*3 17.7 C 8.1 km/h
494 10-07-2020 17:05:00 17.6 C 13.65 g/m*3 17.6 C 6.4 km/h
495 10-07-2020 17:10:00 17.6 C 13.65 g/m*3 17.6 C 6.4 km/h
496 10-07-2020 17:15:00 17.7 C 13.88 g/m*3 17.7 C 11.3 km/h
497 10-07-2020 17:20:00 17.8 C 13.96 g/m*3 17.8 C 9.7 km/h
498 10-07-2020 17:25:00 17.9 C 14.05 g/m*3 17.9 C 6.4 km/h
499 10-07-2020 17:30:00 18.2 C 14.46 g/m*3 18.2 C 4.8 km/h
500 10-07-2020 17:35:00 18.4 C 14.63 g/m*3 18.4 C 4.8 km/h
Sensor: Nr:Datum:Temp:Abs-Feuchte:Windchill:Wind:
Aussen-T/F 501 10-07-2020 17:40:00 18.8 C 15.14 g/m*3 18.8 C 3.2 km/h
502 10-07-2020 17:45:00 18.9 C 15.07 g/m*3 18.9 C 1.6 km/h
503 10-07-2020 17:50:00 19.2 C 15.17 g/m*3 19.2 C 3.2 km/h
504 10-07-2020 17:55:00 19.3 C 14.6 g/m*3 19.3 C 4.8 km/h
505 10-07-2020 18:00:00 19.7 C 13.58 g/m*3 19.7 C 6.4 km/h
506 10-07-2020 18:05:00 20.1 C 13.04 g/m*3 20.1 C 11.3 km/h
507 10-07-2020 18:10:00 20 C 12.27 g/m*3 20 C 19.3 km/h
508 10-07-2020 18:15:00 19.3 C 11.78 g/m*3 19.3 C 20.9 km/h
509 10-07-2020 18:20:00 18.8 C 11.76 g/m*3 18.8 C 19.3 km/h
510 10-07-2020 18:25:00 18.6 C 11.46 g/m*3 18.6 C 16.1 km/h
511 10-07-2020 18:30:00 18.5 C 11.55 g/m*3 18.5 C 16.1 km/h
512 10-07-2020 18:35:00 18.6 C 11.78 g/m*3 18.6 C 12.9 km/h
513 10-07-2020 18:40:00 18.8 C 11.92 g/m*3 18.8 C 11.3 km/h
514 10-07-2020 18:45:00 19.3 C 12.11 g/m*3 19.3 C 9.7 km/h
515 10-07-2020 18:50:00 19.8 C 12.13 g/m*3 19.8 C 12.9 km/h
516 10-07-2020 18:55:00 20.1 C 12.17 g/m*3 20.1 C 17.7 km/h
517 10-07-2020 19:00:00 20.4 C 12.03 g/m*3 20.4 C 16.1 km/h
518 10-07-2020 19:05:00 20.3 C 11.78 g/m*3 20.3 C 14.5 km/h
519 10-07-2020 19:10:00 19.9 C 11.68 g/m*3 19.9 C 14.5 km/h
520 10-07-2020 19:15:00 20.1 C 11.82 g/m*3 20.1 C 11.3 km/h
521 10-07-2020 19:20:00 20.1 C 11.47 g/m*3 20.1 C 16.1 km/h
522 10-07-2020 19:25:00 20.1 C 11.65 g/m*3 20.1 C 12.9 km/h
523 10-07-2020 19:30:00 19.8 C 11.44 g/m*3 19.8 C 16.1 km/h
524 10-07-2020 19:35:00 19.4 C 11.51 g/m*3 19.4 C 14.5 km/h
525 10-07-2020 19:40:00 19.2 C 11.71 g/m*3 19.2 C 12.9 km/h
Sensor: Nr:Datum:Temp:Abs-Feuchte:Windchill:Wind:
Aussen-T/F 526 10-07-2020 19:45:00 19 C 11.57 g/m*3 19 C 12.9 km/h
527 10-07-2020 19:50:00 18.8 C 11.43 g/m*3 18.8 C 16.1 km/h
528 10-07-2020 19:55:00 18.8 C 11.6 g/m*3 18.8 C 8.1 km/h
529 10-07-2020 20:00:00 18.8 C 11.6 g/m*3 18.8 C 11.3 km/h
530 10-07-2020 20:05:00 19 C 11.41 g/m*3 19 C 14.5 km/h
531 10-07-2020 20:10:00 19.1 C 11.47 g/m*3 19.1 C 6.4 km/h
532 10-07-2020 20:15:00 19 C 11.57 g/m*3 19 C 11.3 km/h
533 10-07-2020 20:20:00 18.8 C 11.6 g/m*3 18.8 C 16.1 km/h
534 10-07-2020 20:25:00 18.6 C 11.3 g/m*3 18.6 C 14.5 km/h
535 10-07-2020 20:30:00 18.4 C 11.32 g/m*3 18.4 C 11.3 km/h
536 10-07-2020 20:35:00 18.3 C 11.41 g/m*3 18.3 C 11.3 km/h
537 10-07-2020 20:40:00 18.3 C 11.1 g/m*3 18.3 C 16.1 km/h
538 10-07-2020 20:45:00 18.3 C 11.1 g/m*3 18.3 C 8.1 km/h
539 10-07-2020 20:50:00 18.2 C 10.88 g/m*3 18.2 C 12.9 km/h
540 10-07-2020 20:55:00 18.2 C 10.88 g/m*3 18.2 C 8.1 km/h
541 10-07-2020 21:00:00 18.1 C 10.82 g/m*3 18.1 C 6.4 km/h
542 10-07-2020 21:05:00 17.9 C 10.84 g/m*3 17.9 C 8.1 km/h
543 10-07-2020 21:10:00 17.9 C 10.84 g/m*3 17.9 C 4.8 km/h
544 10-07-2020 21:15:00 17.8 C 10.62 g/m*3 17.8 C 3.2 km/h
545 10-07-2020 21:20:00 17.8 C 10.78 g/m*3 17.8 C 6.4 km/h
546 10-07-2020 21:25:00 17.8 C 10.78 g/m*3 17.8 C 4.8 km/h
547 10-07-2020 21:30:00 17.7 C 10.71 g/m*3 17.7 C 4.8 km/h
548 10-07-2020 21:35:00 17.7 C 10.86 g/m*3 17.7 C 3.2 km/h
549 10-07-2020 21:40:00 17.6 C 10.65 g/m*3 17.6 C 4.8 km/h
550 10-07-2020 21:45:00 17.6 C 10.65 g/m*3 17.6 C 4.8 km/h
Sensor: Nr:Datum:Temp:Abs-Feuchte:Windchill:Wind:
Aussen-T/F 551 10-07-2020 21:50:00 17.6 C 10.8 g/m*3 17.6 C 4.8 km/h
552 10-07-2020 21:55:00 17.5 C 10.73 g/m*3 17.5 C 1.6 km/h
553 10-07-2020 22:00:00 17.4 C 10.82 g/m*3 17.4 C 6.4 km/h
554 10-07-2020 22:05:00 17.4 C 10.82 g/m*3 17.4 C 6.4 km/h
555 10-07-2020 22:10:00 17.3 C 10.61 g/m*3 17.3 C 6.4 km/h
556 10-07-2020 22:15:00 17.3 C 10.61 g/m*3 17.3 C 8.1 km/h
557 10-07-2020 22:20:00 17.2 C 10.54 g/m*3 17.2 C 6.4 km/h
558 10-07-2020 22:25:00 17.2 C 10.54 g/m*3 17.2 C 4.8 km/h
559 10-07-2020 22:30:00 17.2 C 10.54 g/m*3 17.2 C 6.4 km/h
560 10-07-2020 22:35:00 17.1 C 10.48 g/m*3 17.1 C 4.8 km/h
561 10-07-2020 22:40:00 17.1 C 10.48 g/m*3 17.1 C 1.6 km/h
562 10-07-2020 22:45:00 17.1 C 10.48 g/m*3 17.1 C 1.6 km/h
563 10-07-2020 22:50:00 17 C 10.71 g/m*3 17 C 0 km/h
564 10-07-2020 22:55:00 16.9 C 10.5 g/m*3 16.9 C 1.6 km/h
565 10-07-2020 23:00:00 16.9 C 10.64 g/m*3 16.9 C 1.6 km/h
566 10-07-2020 23:05:00 16.8 C 10.58 g/m*3 16.8 C 0 km/h
567 10-07-2020 23:10:00 16.8 C 10.44 g/m*3 16.8 C 0 km/h
568 10-07-2020 23:15:00 16.7 C 10.37 g/m*3 16.7 C 4.8 km/h
569 10-07-2020 23:20:00 16.7 C 10.52 g/m*3 16.7 C 0 km/h
570 10-07-2020 23:25:00 16.7 C 10.37 g/m*3 16.7 C 4.8 km/h
571 10-07-2020 23:30:00 16.6 C 10.31 g/m*3 16.6 C 4.8 km/h
572 10-07-2020 23:35:00 16.6 C 10.31 g/m*3 16.6 C 1.6 km/h
573 10-07-2020 23:40:00 16.6 C 10.45 g/m*3 16.6 C 1.6 km/h
574 10-07-2020 23:45:00 16.5 C 10.39 g/m*3 16.5 C 1.6 km/h
575 10-07-2020 23:50:00 16.4 C 10.47 g/m*3 16.4 C 0 km/h
Sensor: Nr:Datum:Temp:Abs-Feuchte:Windchill:Wind:
Aussen-T/F 576 10-07-2020 23:55:00 16.3 C 10.41 g/m*3 16.3 C 1.6 km/h
577 11-07-2020 00:00:00 16.3 C 10.54 g/m*3 16.3 C 1.6 km/h
578 11-07-2020 00:05:00 16.2 C 10.48 g/m*3 16.2 C 0 km/h
579 11-07-2020 00:10:00 16 C 10.49 g/m*3 16 C 1.6 km/h
580 11-07-2020 00:15:00 15.9 C 10.56 g/m*3 15.9 C 0 km/h
581 11-07-2020 00:20:00 15.7 C 10.44 g/m*3 15.7 C 0 km/h
582 11-07-2020 00:25:00 15.6 C 10.51 g/m*3 15.6 C 0 km/h
583 11-07-2020 00:30:00 15.5 C 10.44 g/m*3 15.5 C 1.6 km/h
584 11-07-2020 00:35:00 15.4 C 10.51 g/m*3 15.4 C 1.6 km/h
585 11-07-2020 00:40:00 15.2 C 10.38 g/m*3 15.2 C 0 km/h
586 11-07-2020 00:45:00 15.2 C 10.38 g/m*3 15.2 C 0 km/h
587 11-07-2020 00:50:00 15.1 C 10.45 g/m*3 15.1 C 1.6 km/h
588 11-07-2020 00:55:00 14.9 C 10.2 g/m*3 14.9 C 3.2 km/h
589 11-07-2020 01:00:00 14.8 C 10.26 g/m*3 14.8 C 3.2 km/h
590 11-07-2020 01:05:00 14.6 C 10.14 g/m*3 14.6 C 3.2 km/h
591 11-07-2020 01:10:00 14.6 C 10.14 g/m*3 14.6 C 1.6 km/h
592 11-07-2020 01:15:00 14.5 C 10.2 g/m*3 14.5 C 1.6 km/h
593 11-07-2020 01:20:00 14.4 C 10.14 g/m*3 14.4 C 1.6 km/h
594 11-07-2020 01:25:00 14.3 C 10.07 g/m*3 14.3 C 1.6 km/h
595 11-07-2020 01:30:00 14.3 C 10.07 g/m*3 14.3 C 4.8 km/h
596 11-07-2020 01:35:00 14.3 C 10.07 g/m*3 14.3 C 1.6 km/h
597 11-07-2020 01:40:00 14.3 C 10.07 g/m*3 14.3 C 1.6 km/h
598 11-07-2020 01:45:00 14.1 C 9.95 g/m*3 14.1 C 3.2 km/h
599 11-07-2020 01:50:00 13.8 C 9.89 g/m*3 13.8 C 1.6 km/h
600 11-07-2020 01:55:00 13.6 C 9.77 g/m*3 13.6 C 4.8 km/h
Sensor: Nr:Datum:Temp:Abs-Feuchte:Windchill:Wind:
Aussen-T/F 601 11-07-2020 02:00:00 13.4 C 9.76 g/m*3 13.4 C 4.8 km/h
602 11-07-2020 02:05:00 13.3 C 9.82 g/m*3 13.3 C 3.2 km/h
603 11-07-2020 02:10:00 13.1 C 9.7 g/m*3 13.1 C 3.2 km/h
604 11-07-2020 02:15:00 12.9 C 9.69 g/m*3 12.9 C 3.2 km/h
605 11-07-2020 02:20:00 12.8 C 9.63 g/m*3 12.8 C 3.2 km/h
606 11-07-2020 02:25:00 12.7 C 9.68 g/m*3 12.7 C 3.2 km/h
607 11-07-2020 02:30:00 12.6 C 9.62 g/m*3 12.6 C 3.2 km/h
608 11-07-2020 02:35:00 12.5 C 9.68 g/m*3 12.5 C 0 km/h
609 11-07-2020 02:40:00 12.4 C 9.62 g/m*3 12.4 C 4.8 km/h
610 11-07-2020 02:45:00 12.4 C 9.62 g/m*3 12.4 C 0 km/h
611 11-07-2020 02:50:00 12.3 C 9.66 g/m*3 12.3 C 0 km/h
612 11-07-2020 02:55:00 12.3 C 9.66 g/m*3 12.3 C 1.6 km/h
613 11-07-2020 03:00:00 12.2 C 9.6 g/m*3 12.2 C 1.6 km/h
614 11-07-2020 03:05:00 12.1 C 9.54 g/m*3 12.1 C 3.2 km/h
615 11-07-2020 03:10:00 12.1 C 9.65 g/m*3 12.1 C 6.4 km/h
616 11-07-2020 03:15:00 12 C 9.59 g/m*3 12 C 3.2 km/h
617 11-07-2020 03:20:00 11.9 C 9.53 g/m*3 11.9 C 4.8 km/h
618 11-07-2020 03:25:00 11.9 C 9.53 g/m*3 11.9 C 6.4 km/h
619 11-07-2020 03:30:00 11.8 C 9.47 g/m*3 11.8 C 3.2 km/h
620 11-07-2020 03:35:00 11.8 C 9.58 g/m*3 11.8 C 0 km/h
621 11-07-2020 03:40:00 11.7 C 9.52 g/m*3 11.7 C 4.8 km/h
622 11-07-2020 03:45:00 11.7 C 9.52 g/m*3 11.7 C 1.6 km/h
623 11-07-2020 03:50:00 11.7 C 9.52 g/m*3 11.7 C 1.6 km/h
624 11-07-2020 03:55:00 11.7 C 9.52 g/m*3 11.7 C 0 km/h
625 11-07-2020 04:00:00 11.6 C 9.46 g/m*3 11.6 C 0 km/h
Sensor: Nr:Datum:Temp:Abs-Feuchte:Windchill:Wind:
Aussen-T/F 626 11-07-2020 04:05:00 11.5 C 9.4 g/m*3 11.5 C 0 km/h
627 11-07-2020 04:10:00 11.4 C 9.34 g/m*3 11.4 C 0 km/h
628 11-07-2020 04:15:00 11.4 C 9.34 g/m*3 11.4 C 0 km/h
629 11-07-2020 04:20:00 11.3 C 9.28 g/m*3 11.3 C 0 km/h
630 11-07-2020 04:25:00 11.3 C 9.28 g/m*3 11.3 C 0 km/h
631 11-07-2020 04:30:00 11.2 C 9.22 g/m*3 11.2 C 0 km/h
632 11-07-2020 04:35:00 11.1 C 9.17 g/m*3 11.1 C 0 km/h
633 11-07-2020 04:40:00 11.1 C 9.17 g/m*3 11.1 C 0 km/h
634 11-07-2020 04:45:00 10.9 C 9.15 g/m*3 10.9 C 0 km/h
635 11-07-2020 04:50:00 10.9 C 9.15 g/m*3 10.9 C 0 km/h
636 11-07-2020 04:55:00 10.8 C 9.09 g/m*3 10.8 C 0 km/h
637 11-07-2020 05:00:00 10.8 C 9.09 g/m*3 10.8 C 0 km/h
638 11-07-2020 05:05:00 10.7 C 9.04 g/m*3 10.7 C 0 km/h
639 11-07-2020 05:10:00 10.6 C 8.98 g/m*3 10.6 C 0 km/h
640 11-07-2020 05:15:00 10.6 C 8.98 g/m*3 10.6 C 0 km/h
641 11-07-2020 05:20:00 10.5 C 8.92 g/m*3 10.5 C 0 km/h
642 11-07-2020 05:25:00 10.4 C 8.87 g/m*3 10.4 C 0 km/h
643 11-07-2020 05:30:00 10.4 C 8.96 g/m*3 10.4 C 0 km/h
644 11-07-2020 05:35:00 10.3 C 8.91 g/m*3 10.3 C 0 km/h
645 11-07-2020 05:40:00 10.3 C 8.91 g/m*3 10.3 C 0 km/h
646 11-07-2020 05:45:00 10.3 C 8.91 g/m*3 10.3 C 0 km/h
647 11-07-2020 05:50:00 10.3 C 8.91 g/m*3 10.3 C 0 km/h
648 11-07-2020 05:55:00 10.2 C 8.85 g/m*3 10.2 C 3.2 km/h
649 11-07-2020 06:00:00 10.3 C 8.91 g/m*3 10.3 C 0 km/h
650 11-07-2020 06:05:00 10.3 C 9 g/m*3 10.3 C 0 km/h
Sensor: Nr:Datum:Temp:Abs-Feuchte:Windchill:Wind:
Aussen-T/F 651 11-07-2020 06:10:00 10.3 C 9 g/m*3 10.3 C 0 km/h
652 11-07-2020 06:15:00 10.4 C 9.06 g/m*3 10.4 C 0 km/h
653 11-07-2020 06:20:00 10.4 C 9.06 g/m*3 10.4 C 0 km/h
654 11-07-2020 06:25:00 10.4 C 9.06 g/m*3 10.4 C 0 km/h
655 11-07-2020 06:30:00 10.4 C 9.06 g/m*3 10.4 C 0 km/h
656 11-07-2020 06:35:00 10.4 C 9.06 g/m*3 10.4 C 0 km/h
657 11-07-2020 06:40:00 10.4 C 9.06 g/m*3 10.4 C 0 km/h
658 11-07-2020 06:45:00 10.5 C 9.12 g/m*3 10.5 C 0 km/h
659 11-07-2020 06:50:00 10.6 C 9.17 g/m*3 10.6 C 0 km/h
660 11-07-2020 06:55:00 10.6 C 9.17 g/m*3 10.6 C 0 km/h
661 11-07-2020 07:00:00 10.7 C 9.33 g/m*3 10.7 C 0 km/h
662 11-07-2020 07:05:00 10.7 C 9.33 g/m*3 10.7 C 0 km/h
663 11-07-2020 07:10:00 10.8 C 9.39 g/m*3 10.8 C 0 km/h
664 11-07-2020 07:15:00 10.8 C 9.39 g/m*3 10.8 C 0 km/h
665 11-07-2020 07:20:00 10.9 C 9.45 g/m*3 10.9 C 0 km/h
666 11-07-2020 07:25:00 10.9 C 9.45 g/m*3 10.9 C 0 km/h
667 11-07-2020 07:30:00 11 C 9.51 g/m*3 11 C 0 km/h
668 11-07-2020 07:35:00 11.1 C 9.57 g/m*3 11.1 C 0 km/h
669 11-07-2020 07:40:00 11.3 C 9.69 g/m*3 11.3 C 0 km/h
670 11-07-2020 07:45:00 11.4 C 9.75 g/m*3 11.4 C 0 km/h
671 11-07-2020 07:50:00 11.7 C 10.04 g/m*3 11.7 C 0 km/h
672 11-07-2020 07:55:00 12 C 10.23 g/m*3 12 C 0 km/h
673 11-07-2020 08:00:00 12.3 C 10.42 g/m*3 12.3 C 1.6 km/h
674 11-07-2020 08:05:00 12.5 C 10.44 g/m*3 12.5 C 0 km/h
675 11-07-2020 08:10:00 12.7 C 10.46 g/m*3 12.7 C 4.8 km/h
Sensor: Nr:Datum:Temp:Abs-Feuchte:Windchill:Wind:
Aussen-T/F 676 11-07-2020 08:15:00 13 C 10.55 g/m*3 13 C 6.4 km/h
677 11-07-2020 08:20:00 13.3 C 10.63 g/m*3 13.3 C 1.6 km/h
678 11-07-2020 08:25:00 13.5 C 10.53 g/m*3 13.5 C 0 km/h
679 11-07-2020 08:30:00 13.7 C 10.54 g/m*3 13.7 C 6.4 km/h
680 11-07-2020 08:35:00 13.9 C 10.43 g/m*3 13.9 C 3.2 km/h
681 11-07-2020 08:40:00 14.1 C 10.44 g/m*3 14.1 C 3.2 km/h
682 11-07-2020 08:45:00 14.3 C 10.57 g/m*3 14.3 C 4.8 km/h
683 11-07-2020 08:50:00 14.4 C 10.51 g/m*3 14.4 C 3.2 km/h
684 11-07-2020 08:55:00 14.5 C 10.57 g/m*3 14.5 C 3.2 km/h
685 11-07-2020 09:00:00 14.7 C 10.58 g/m*3 14.7 C 3.2 km/h
686 11-07-2020 09:05:00 14.8 C 10.64 g/m*3 14.8 C 0 km/h
687 11-07-2020 09:10:00 15 C 10.64 g/m*3 15 C 0 km/h
688 11-07-2020 09:15:00 15.2 C 10.38 g/m*3 15.2 C 6.4 km/h
689 11-07-2020 09:20:00 15.3 C 10.19 g/m*3 15.3 C 8.1 km/h
690 11-07-2020 09:25:00 15.4 C 9.85 g/m*3 15.4 C 8.1 km/h
691 11-07-2020 09:30:00 15.4 C 9.85 g/m*3 15.4 C 6.4 km/h
692 11-07-2020 09:35:00 15.6 C 9.71 g/m*3 15.6 C 9.7 km/h
693 11-07-2020 09:40:00 15.7 C 9.77 g/m*3 15.7 C 8.1 km/h
694 11-07-2020 09:45:00 15.8 C 9.83 g/m*3 15.8 C 6.4 km/h
695 11-07-2020 09:50:00 15.8 C 9.83 g/m*3 15.8 C 3.2 km/h
696 11-07-2020 09:55:00 15.9 C 9.75 g/m*3 15.9 C 1.6 km/h
697 11-07-2020 10:00:00 16 C 9.54 g/m*3 16 C 4.8 km/h
698 11-07-2020 10:05:00 16.1 C 9.73 g/m*3 16.1 C 9.7 km/h
699 11-07-2020 10:10:00 16.2 C 9.52 g/m*3 16.2 C 8.1 km/h
700 11-07-2020 10:15:00 16.1 C 9.46 g/m*3 16.1 C 8.1 km/h
Sensor: Nr:Datum:Temp:Abs-Feuchte:Windchill:Wind:
Aussen-T/F 701 11-07-2020 10:20:00 16.1 C 9.46 g/m*3 16.1 C 4.8 km/h
702 11-07-2020 10:25:00 16.2 C 9.52 g/m*3 16.2 C 8.1 km/h
703 11-07-2020 10:30:00 16.6 C 9.61 g/m*3 16.6 C 4.8 km/h
704 11-07-2020 10:35:00 16.9 C 9.49 g/m*3 16.9 C 11.3 km/h
705 11-07-2020 10:40:00 17.3 C 9.13 g/m*3 17.3 C 9.7 km/h
706 11-07-2020 10:45:00 17.3 C 9.13 g/m*3 17.3 C 1.6 km/h
707 11-07-2020 10:50:00 17.2 C 9.08 g/m*3 17.2 C 4.8 km/h
708 11-07-2020 10:55:00 17.2 C 9.23 g/m*3 17.2 C 4.8 km/h
709 11-07-2020 11:00:00 17.2 C 9.08 g/m*3 17.2 C 0 km/h
710 11-07-2020 11:05:00 17.4 C 9.34 g/m*3 17.4 C 6.4 km/h
711 11-07-2020 11:10:00 17.8 C 9.11 g/m*3 17.8 C 12.9 km/h
712 11-07-2020 11:15:00 18 C 9.22 g/m*3 18 C 8.1 km/h
713 11-07-2020 11:20:00 17.9 C 9.16 g/m*3 17.9 C 8.1 km/h
714 11-07-2020 11:25:00 17.8 C 8.95 g/m*3 17.8 C 4.8 km/h
715 11-07-2020 11:30:00 17.6 C 9 g/m*3 17.6 C 6.4 km/h
716 11-07-2020 11:35:00 17.5 C 9.09 g/m*3 17.5 C 6.4 km/h
717 11-07-2020 11:40:00 17.6 C 8.7 g/m*3 17.6 C 3.2 km/h
718 11-07-2020 11:45:00 17.8 C 8.65 g/m*3 17.8 C 4.8 km/h
719 11-07-2020 11:50:00 18.1 C 8.81 g/m*3 18.1 C 12.9 km/h
720 11-07-2020 11:55:00 18.3 C 8.6 g/m*3 18.3 C 8.1 km/h
721 11-07-2020 12:00:00 18.4 C 8.49 g/m*3 18.4 C 9.7 km/h
722 11-07-2020 12:05:00 18.4 C 8.65 g/m*3 18.4 C 11.3 km/h
723 11-07-2020 12:10:00 18.4 C 8.65 g/m*3 18.4 C 12.9 km/h
724 11-07-2020 12:15:00 18.3 C 8.76 g/m*3 18.3 C 8.1 km/h
725 11-07-2020 12:20:00 18.1 C 8.81 g/m*3 18.1 C 11.3 km/h
Sensor: Nr:Datum:Temp:Abs-Feuchte:Windchill:Wind:
Aussen-T/F 726 11-07-2020 12:25:00 18 C 9.06 g/m*3 18 C 11.3 km/h
727 11-07-2020 12:30:00 18 C 8.91 g/m*3 18 C 6.4 km/h
728 11-07-2020 12:35:00 18.2 C 9.01 g/m*3 18.2 C 3.2 km/h
729 11-07-2020 12:40:00 18.5 C 8.7 g/m*3 18.5 C 9.7 km/h
730 11-07-2020 12:45:00 18.8 C 8.86 g/m*3 18.8 C 14.5 km/h
731 11-07-2020 12:50:00 18.8 C 8.86 g/m*3 18.8 C 6.4 km/h
732 11-07-2020 12:55:00 18.9 C 8.91 g/m*3 18.9 C 8.1 km/h
733 11-07-2020 13:00:00 18.9 C 8.59 g/m*3 18.9 C 8.1 km/h
734 11-07-2020 13:05:00 18.9 C 8.75 g/m*3 18.9 C 4.8 km/h
735 11-07-2020 13:10:00 19.1 C 8.69 g/m*3 19.1 C 9.7 km/h
736 11-07-2020 13:15:00 19.2 C 8.74 g/m*3 19.2 C 6.4 km/h
737 11-07-2020 13:20:00 19.2 C 8.9 g/m*3 19.2 C 12.9 km/h
738 11-07-2020 13:25:00 19.1 C 9.02 g/m*3 19.1 C 9.7 km/h
739 11-07-2020 13:30:00 18.9 C 8.75 g/m*3 18.9 C 8.1 km/h
740 11-07-2020 13:35:00 18.9 C 8.59 g/m*3 18.9 C 8.1 km/h
741 11-07-2020 13:40:00 19.1 C 8.52 g/m*3 19.1 C 11.3 km/h
742 11-07-2020 13:45:00 19.3 C 8.29 g/m*3 19.3 C 9.7 km/h
743 11-07-2020 13:50:00 19.3 C 8.46 g/m*3 19.3 C 8.1 km/h
744 11-07-2020 13:55:00 19.4 C 8.34 g/m*3 19.4 C 6.4 km/h
745 11-07-2020 14:00:00 19.7 C 8.49 g/m*3 19.7 C 14.5 km/h
746 11-07-2020 14:05:00 19.8 C 8.88 g/m*3 19.8 C 16.1 km/h
747 11-07-2020 14:10:00 19.6 C 8.78 g/m*3 19.6 C 16.1 km/h
748 11-07-2020 14:15:00 19.6 C 8.61 g/m*3 19.6 C 11.3 km/h
749 11-07-2020 14:20:00 19.7 C 8.66 g/m*3 19.7 C 12.9 km/h
750 11-07-2020 14:25:00 19.8 C 8.71 g/m*3 19.8 C 11.3 km/h
Sensor: Nr:Datum:Temp:Abs-Feuchte:Windchill:Wind:
Aussen-T/F 751 11-07-2020 14:30:00 19.8 C 8.2 g/m*3 19.8 C 11.3 km/h
752 11-07-2020 14:35:00 19.7 C 8.15 g/m*3 19.7 C 11.3 km/h
753 11-07-2020 14:40:00 19.8 C 8.37 g/m*3 19.8 C 8.1 km/h
754 11-07-2020 14:45:00 19.8 C 8.54 g/m*3 19.8 C 8.1 km/h
755 11-07-2020 14:50:00 19.8 C 8.03 g/m*3 19.8 C 4.8 km/h
756 11-07-2020 14:55:00 20.2 C 8.74 g/m*3 20.2 C 8.1 km/h
757 11-07-2020 15:00:00 20.4 C 7.96 g/m*3 20.4 C 6.4 km/h
758 11-07-2020 15:05:00 20.5 C 8.01 g/m*3 20.5 C 16.1 km/h
759 11-07-2020 15:10:00 20.7 C 7.92 g/m*3 20.7 C 14.5 km/h
760 11-07-2020 15:15:00 20.8 C 7.79 g/m*3 20.8 C 14.5 km/h
761 11-07-2020 15:20:00 20.8 C 7.79 g/m*3 20.8 C 6.4 km/h
762 11-07-2020 15:25:00 21.1 C 7.92 g/m*3 21.1 C 11.3 km/h
763 11-07-2020 15:30:00 21.4 C 8.06 g/m*3 21.4 C 9.7 km/h
764 11-07-2020 15:35:00 21.4 C 8.06 g/m*3 21.4 C 12.9 km/h
765 11-07-2020 15:40:00 21.4 C 8.25 g/m*3 21.4 C 11.3 km/h
766 11-07-2020 15:45:00 21.7 C 8.01 g/m*3 21.7 C 14.5 km/h
767 11-07-2020 15:50:00 22 C 7.76 g/m*3 22 C 6.4 km/h
768 11-07-2020 15:55:00 22.2 C 7.85 g/m*3 22.2 C 11.3 km/h
769 11-07-2020 16:00:00 22.4 C 7.75 g/m*3 22.4 C 12.9 km/h
770 11-07-2020 16:05:00 22.8 C 7.92 g/m*3 22.8 C 11.3 km/h
771 11-07-2020 16:10:00 23 C 8.43 g/m*3 23 C 9.7 km/h
772 11-07-2020 16:15:00 22.7 C 8.28 g/m*3 22.7 C 12.9 km/h
773 11-07-2020 16:20:00 22.1 C 7.81 g/m*3 22.1 C 12.9 km/h
774 11-07-2020 16:25:00 21.7 C 8.2 g/m*3 21.7 C 8.1 km/h
775 11-07-2020 16:30:00 21.6 C 7.97 g/m*3 21.6 C 8.1 km/h
Sensor: Nr:Datum:Temp:Abs-Feuchte:Windchill:Wind:
Aussen-T/F 776 11-07-2020 16:35:00 21.4 C 7.87 g/m*3 21.4 C 12.9 km/h
777 11-07-2020 16:40:00 21.2 C 7.78 g/m*3 21.2 C 12.9 km/h
778 11-07-2020 16:45:00 21.3 C 7.64 g/m*3 21.3 C 8.1 km/h
779 11-07-2020 16:50:00 22 C 7.38 g/m*3 22 C 11.3 km/h
780 11-07-2020 16:55:00 22.4 C 7.15 g/m*3 22.4 C 9.7 km/h
781 11-07-2020 17:00:00 22.4 C 7.75 g/m*3 22.4 C 8.1 km/h
782 11-07-2020 17:05:00 22.7 C 7.88 g/m*3 22.7 C 6.4 km/h
783 11-07-2020 17:10:00 23 C 8.02 g/m*3 23 C 6.4 km/h
784 11-07-2020 17:15:00 22.8 C 8.13 g/m*3 22.8 C 9.7 km/h
785 11-07-2020 17:20:00 22.5 C 8.19 g/m*3 22.5 C 6.4 km/h
786 11-07-2020 17:25:00 22.4 C 8.14 g/m*3 22.4 C 11.3 km/h
787 11-07-2020 17:30:00 22.5 C 8.39 g/m*3 22.5 C 11.3 km/h
788 11-07-2020 17:35:00 22.6 C 7.83 g/m*3 22.6 C 9.7 km/h
789 11-07-2020 17:40:00 22.1 C 7.81 g/m*3 22.1 C 6.4 km/h
790 11-07-2020 17:45:00 21.8 C 7.87 g/m*3 21.8 C 3.2 km/h
791 11-07-2020 17:50:00 21.8 C 7.67 g/m*3 21.8 C 9.7 km/h
792 11-07-2020 17:55:00 22 C 7.76 g/m*3 22 C 8.1 km/h
793 11-07-2020 18:00:00 22.2 C 7.85 g/m*3 22.2 C 12.9 km/h
794 11-07-2020 18:05:00 21.8 C 7.67 g/m*3 21.8 C 11.3 km/h
795 11-07-2020 18:10:00 21.8 C 8.06 g/m*3 21.8 C 11.3 km/h
796 11-07-2020 18:15:00 22.4 C 7.94 g/m*3 22.4 C 6.4 km/h
797 11-07-2020 18:20:00 22.6 C 7.63 g/m*3 22.6 C 9.7 km/h
798 11-07-2020 18:25:00 22.2 C 7.85 g/m*3 22.2 C 9.7 km/h
799 11-07-2020 18:30:00 21.7 C 7.63 g/m*3 21.7 C 11.3 km/h
800 11-07-2020 18:35:00 21.6 C 7.78 g/m*3 21.6 C 6.4 km/h
Sensor: Nr:Datum:Temp:Abs-Feuchte:Windchill:Wind:
Aussen-T/F 801 11-07-2020 18:40:00 21.6 C 7.78 g/m*3 21.6 C 4.8 km/h
802 11-07-2020 18:45:00 21.9 C 7.91 g/m*3 21.9 C 6.4 km/h
803 11-07-2020 18:50:00 22 C 7.96 g/m*3 22 C 4.8 km/h
804 11-07-2020 18:55:00 22.1 C 8.2 g/m*3 22.1 C 6.4 km/h
805 11-07-2020 19:00:00 22.3 C 8.1 g/m*3 22.3 C 8.1 km/h
806 11-07-2020 19:05:00 22.3 C 8.1 g/m*3 22.3 C 11.3 km/h
807 11-07-2020 19:10:00 22.2 C 8.05 g/m*3 22.2 C 6.4 km/h
808 11-07-2020 19:15:00 22 C 7.96 g/m*3 22 C 8.1 km/h
809 11-07-2020 19:20:00 21.8 C 8.06 g/m*3 21.8 C 6.4 km/h
810 11-07-2020 19:25:00 21.8 C 7.87 g/m*3 21.8 C 9.7 km/h
811 11-07-2020 19:30:00 21.6 C 7.97 g/m*3 21.6 C 6.4 km/h
812 11-07-2020 19:35:00 21.7 C 8.01 g/m*3 21.7 C 9.7 km/h
813 11-07-2020 19:40:00 21.7 C 8.01 g/m*3 21.7 C 9.7 km/h
814 11-07-2020 19:45:00 21.7 C 8.01 g/m*3 21.7 C 8.1 km/h
815 11-07-2020 19:50:00 21.8 C 8.06 g/m*3 21.8 C 6.4 km/h
816 11-07-2020 19:55:00 21.7 C 8.2 g/m*3 21.7 C 6.4 km/h
817 11-07-2020 20:00:00 21.7 C 7.82 g/m*3 21.7 C 6.4 km/h
818 11-07-2020 20:05:00 21.8 C 7.67 g/m*3 21.8 C 8.1 km/h
819 11-07-2020 20:10:00 21.7 C 7.82 g/m*3 21.7 C 6.4 km/h
820 11-07-2020 20:15:00 21.7 C 8.01 g/m*3 21.7 C 6.4 km/h
821 11-07-2020 20:20:00 21.6 C 7.78 g/m*3 21.6 C 4.8 km/h
822 11-07-2020 20:25:00 21.4 C 7.87 g/m*3 21.4 C 6.4 km/h
823 11-07-2020 20:30:00 21.2 C 7.97 g/m*3 21.2 C 6.4 km/h
824 11-07-2020 20:35:00 21 C 8.24 g/m*3 21 C 9.7 km/h
825 11-07-2020 20:40:00 20.8 C 8.33 g/m*3 20.8 C 8.1 km/h
Sensor: Nr:Datum:Temp:Abs-Feuchte:Windchill:Wind:
Aussen-T/F 826 11-07-2020 20:45:00 20.6 C 8.23 g/m*3 20.6 C 14.5 km/h
827 11-07-2020 20:50:00 20.2 C 8.92 g/m*3 20.2 C 11.3 km/h
828 11-07-2020 20:55:00 19.8 C 9.05 g/m*3 19.8 C 11.3 km/h
829 11-07-2020 21:00:00 19.3 C 9.29 g/m*3 19.3 C 9.7 km/h
830 11-07-2020 21:05:00 18.9 C 9.23 g/m*3 18.9 C 12.9 km/h
831 11-07-2020 21:10:00 18.6 C 9.39 g/m*3 18.6 C 8.1 km/h
832 11-07-2020 21:15:00 18.3 C 9.38 g/m*3 18.3 C 9.7 km/h
833 11-07-2020 21:20:00 18.1 C 9.43 g/m*3 18.1 C 8.1 km/h
834 11-07-2020 21:25:00 17.9 C 9.47 g/m*3 17.9 C 8.1 km/h
835 11-07-2020 21:30:00 17.7 C 9.51 g/m*3 17.7 C 4.8 km/h
836 11-07-2020 21:35:00 17.6 C 9.45 g/m*3 17.6 C 8.1 km/h
837 11-07-2020 21:40:00 17.4 C 9.63 g/m*3 17.4 C 1.6 km/h
838 11-07-2020 21:45:00 17.3 C 9.43 g/m*3 17.3 C 6.4 km/h
839 11-07-2020 21:50:00 17.1 C 9.46 g/m*3 17.1 C 4.8 km/h
840 11-07-2020 21:55:00 17 C 9.41 g/m*3 17 C 11.3 km/h
841 11-07-2020 22:00:00 16.9 C 9.49 g/m*3 16.9 C 0 km/h
842 11-07-2020 22:05:00 16.8 C 9.44 g/m*3 16.8 C 1.6 km/h
843 11-07-2020 22:10:00 16.7 C 9.52 g/m*3 16.7 C 1.6 km/h
844 11-07-2020 22:15:00 16.6 C 9.61 g/m*3 16.6 C 3.2 km/h
845 11-07-2020 22:20:00 16.4 C 9.63 g/m*3 16.4 C 0 km/h
846 11-07-2020 22:25:00 16.2 C 9.65 g/m*3 16.2 C 0 km/h
847 11-07-2020 22:30:00 16 C 9.54 g/m*3 16 C 0 km/h
848 11-07-2020 22:35:00 15.8 C 9.42 g/m*3 15.8 C 8.1 km/h
849 11-07-2020 22:40:00 15.9 C 9.48 g/m*3 15.9 C 6.4 km/h
850 11-07-2020 22:45:00 15.9 C 9.62 g/m*3 15.9 C 0 km/h
Sensor: Nr:Datum:Temp:Abs-Feuchte:Windchill:Wind:
Aussen-T/F 851 11-07-2020 22:50:00 15.9 C 9.62 g/m*3 15.9 C 0 km/h
852 11-07-2020 22:55:00 15.9 C 9.62 g/m*3 15.9 C 0 km/h
853 11-07-2020 23:00:00 15.8 C 9.56 g/m*3 15.8 C 3.2 km/h
854 11-07-2020 23:05:00 15.6 C 9.58 g/m*3 15.6 C 3.2 km/h
855 11-07-2020 23:10:00 15.4 C 9.46 g/m*3 15.4 C 4.8 km/h
856 11-07-2020 23:15:00 15.2 C 9.48 g/m*3 15.2 C 3.2 km/h
857 11-07-2020 23:20:00 15 C 9.49 g/m*3 15 C 4.8 km/h
858 11-07-2020 23:25:00 14.8 C 9.37 g/m*3 14.8 C 4.8 km/h
859 11-07-2020 23:30:00 14.6 C 9.39 g/m*3 14.6 C 3.2 km/h
860 11-07-2020 23:35:00 14.4 C 9.27 g/m*3 14.4 C 1.6 km/h
861 11-07-2020 23:40:00 14.3 C 9.34 g/m*3 14.3 C 3.2 km/h
862 11-07-2020 23:45:00 14.2 C 9.28 g/m*3 14.2 C 4.8 km/h
863 11-07-2020 23:50:00 14 C 9.29 g/m*3 14 C 4.8 km/h
864 11-07-2020 23:55:00 13.8 C 9.29 g/m*3 13.8 C 4.8 km/h
865 12-07-2020 00:00:00 13.7 C 9.24 g/m*3 13.7 C 1.6 km/h
866 12-07-2020 00:05:00 13.7 C 9.24 g/m*3 13.7 C 4.8 km/h
867 12-07-2020 00:10:00 13.6 C 9.3 g/m*3 13.6 C 6.4 km/h
868 12-07-2020 00:15:00 13.5 C 9.24 g/m*3 13.5 C 4.8 km/h
869 12-07-2020 00:20:00 13.4 C 9.3 g/m*3 13.4 C 4.8 km/h
870 12-07-2020 00:25:00 13.4 C 9.3 g/m*3 13.4 C 6.4 km/h
871 12-07-2020 00:30:00 13.3 C 9.24 g/m*3 13.3 C 6.4 km/h
872 12-07-2020 00:35:00 13.2 C 9.19 g/m*3 13.2 C 3.2 km/h
873 12-07-2020 00:40:00 13.2 C 9.19 g/m*3 13.2 C 4.8 km/h
874 12-07-2020 00:45:00 13.1 C 9.24 g/m*3 13.1 C 4.8 km/h
875 12-07-2020 00:50:00 13.1 C 9.24 g/m*3 13.1 C 6.4 km/h
Sensor: Nr:Datum:Temp:Abs-Feuchte:Windchill:Wind:
Aussen-T/F 876 12-07-2020 00:55:00 13 C 9.3 g/m*3 13 C 4.8 km/h
877 12-07-2020 01:00:00 12.9 C 9.24 g/m*3 12.9 C 4.8 km/h
878 12-07-2020 01:05:00 12.9 C 9.24 g/m*3 12.9 C 4.8 km/h
879 12-07-2020 01:10:00 12.8 C 9.3 g/m*3 12.8 C 3.2 km/h
880 12-07-2020 01:15:00 12.8 C 9.3 g/m*3 12.8 C 4.8 km/h
881 12-07-2020 01:20:00 12.7 C 9.24 g/m*3 12.7 C 6.4 km/h
882 12-07-2020 01:25:00 12.7 C 9.35 g/m*3 12.7 C 4.8 km/h
883 12-07-2020 01:30:00 12.6 C 9.29 g/m*3 12.6 C 0 km/h
884 12-07-2020 01:35:00 12.6 C 9.29 g/m*3 12.6 C 0 km/h
885 12-07-2020 01:40:00 12.4 C 9.18 g/m*3 12.4 C 1.6 km/h
886 12-07-2020 01:45:00 12.4 C 9.29 g/m*3 12.4 C 0 km/h
887 12-07-2020 01:50:00 12.3 C 9.23 g/m*3 12.3 C 0 km/h
888 12-07-2020 01:55:00 12.3 C 9.23 g/m*3 12.3 C 0 km/h
889 12-07-2020 02:00:00 12.2 C 9.17 g/m*3 12.2 C 0 km/h
890 12-07-2020 02:05:00 12.2 C 9.28 g/m*3 12.2 C 3.2 km/h
891 12-07-2020 02:10:00 12.2 C 9.28 g/m*3 12.2 C 3.2 km/h
892 12-07-2020 02:15:00 12.2 C 9.28 g/m*3 12.2 C 0 km/h
893 12-07-2020 02:20:00 12.1 C 9.22 g/m*3 12.1 C 0 km/h
894 12-07-2020 02:25:00 12.1 C 9.22 g/m*3 12.1 C 0 km/h
895 12-07-2020 02:30:00 12 C 9.17 g/m*3 12 C 0 km/h
896 12-07-2020 02:35:00 11.9 C 9.11 g/m*3 11.9 C 0 km/h
897 12-07-2020 02:40:00 11.8 C 9.05 g/m*3 11.8 C 1.6 km/h
898 12-07-2020 02:45:00 11.7 C 8.99 g/m*3 11.7 C 0 km/h
899 12-07-2020 02:50:00 11.6 C 8.94 g/m*3 11.6 C 0 km/h
900 12-07-2020 02:55:00 11.5 C 8.99 g/m*3 11.5 C 0 km/h
Sensor: Nr:Datum:Temp:Abs-Feuchte:Windchill:Wind:
Aussen-T/F 901 12-07-2020 03:00:00 11.3 C 8.87 g/m*3 11.3 C 0 km/h
902 12-07-2020 03:05:00 11.2 C 8.82 g/m*3 11.2 C 0 km/h
903 12-07-2020 03:10:00 11.1 C 8.76 g/m*3 11.1 C 0 km/h
904 12-07-2020 03:15:00 10.9 C 8.75 g/m*3 10.9 C 0 km/h
905 12-07-2020 03:20:00 10.8 C 8.7 g/m*3 10.8 C 0 km/h
906 12-07-2020 03:25:00 10.7 C 8.74 g/m*3 10.7 C 0 km/h
907 12-07-2020 03:30:00 10.7 C 8.74 g/m*3 10.7 C 0 km/h
908 12-07-2020 03:35:00 10.6 C 8.69 g/m*3 10.6 C 0 km/h
909 12-07-2020 03:40:00 10.5 C 8.63 g/m*3 10.5 C 0 km/h
910 12-07-2020 03:45:00 10.4 C 8.58 g/m*3 10.4 C 0 km/h
911 12-07-2020 03:50:00 10.3 C 8.62 g/m*3 10.3 C 0 km/h
912 12-07-2020 03:55:00 10.3 C 8.62 g/m*3 10.3 C 0 km/h
913 12-07-2020 04:00:00 10.2 C 8.56 g/m*3 10.2 C 0 km/h
914 12-07-2020 04:05:00 10.2 C 8.56 g/m*3 10.2 C 0 km/h
915 12-07-2020 04:10:00 10.1 C 8.51 g/m*3 10.1 C 0 km/h
916 12-07-2020 04:15:00 10 C 8.55 g/m*3 10 C 0 km/h
917 12-07-2020 04:20:00 10 C 8.55 g/m*3 10 C 0 km/h
918 12-07-2020 04:25:00 10 C 8.55 g/m*3 10 C 0 km/h
919 12-07-2020 04:30:00 9.9 C 8.5 g/m*3 9.9 C 0 km/h
920 12-07-2020 04:35:00 9.8 C 8.44 g/m*3 9.8 C 0 km/h
921 12-07-2020 04:40:00 9.8 C 8.44 g/m*3 9.8 C 0 km/h
922 12-07-2020 04:45:00 9.7 C 8.48 g/m*3 9.7 C 0 km/h
923 12-07-2020 04:50:00 9.7 C 8.48 g/m*3 9.7 C 0 km/h
924 12-07-2020 04:55:00 9.6 C 8.43 g/m*3 9.6 C 0 km/h
925 12-07-2020 05:00:00 9.6 C 8.43 g/m*3 9.6 C 0 km/h
Sensor: Nr:Datum:Temp:Abs-Feuchte:Windchill:Wind:
Aussen-T/F 926 12-07-2020 05:05:00 9.6 C 8.43 g/m*3 9.6 C 0 km/h
927 12-07-2020 05:10:00 9.6 C 8.43 g/m*3 9.6 C 0 km/h
928 12-07-2020 05:15:00 9.5 C 8.37 g/m*3 9.5 C 0 km/h
929 12-07-2020 05:20:00 9.4 C 8.32 g/m*3 9.4 C 0 km/h
930 12-07-2020 05:25:00 9.4 C 8.32 g/m*3 9.4 C 0 km/h
931 12-07-2020 05:30:00 9.3 C 8.27 g/m*3 9.3 C 0 km/h
932 12-07-2020 05:35:00 9.3 C 8.27 g/m*3 9.3 C 0 km/h
933 12-07-2020 05:40:00 9.3 C 8.36 g/m*3 9.3 C 0 km/h
934 12-07-2020 05:45:00 9.3 C 8.36 g/m*3 9.3 C 0 km/h
935 12-07-2020 05:50:00 9.2 C 8.3 g/m*3 9.2 C 0 km/h
936 12-07-2020 05:55:00 9.2 C 8.3 g/m*3 9.2 C 0 km/h
937 12-07-2020 06:00:00 9.2 C 8.3 g/m*3 9.2 C 0 km/h
938 12-07-2020 06:05:00 9.2 C 8.3 g/m*3 9.2 C 0 km/h
939 12-07-2020 06:10:00 9.3 C 8.36 g/m*3 9.3 C 0 km/h
940 12-07-2020 06:15:00 9.2 C 8.3 g/m*3 9.2 C 0 km/h
941 12-07-2020 06:20:00 9.2 C 8.3 g/m*3 9.2 C 0 km/h
942 12-07-2020 06:25:00 9.2 C 8.3 g/m*3 9.2 C 0 km/h
943 12-07-2020 06:30:00 9.2 C 8.3 g/m*3 9.2 C 0 km/h
944 12-07-2020 06:35:00 9.2 C 8.39 g/m*3 9.2 C 0 km/h
945 12-07-2020 06:40:00 9.3 C 8.45 g/m*3 9.3 C 0 km/h
946 12-07-2020 06:45:00 9.3 C 8.45 g/m*3 9.3 C 0 km/h
947 12-07-2020 06:50:00 9.3 C 8.45 g/m*3 9.3 C 0 km/h
948 12-07-2020 06:55:00 9.4 C 8.5 g/m*3 9.4 C 0 km/h
949 12-07-2020 07:00:00 9.4 C 8.5 g/m*3 9.4 C 0 km/h
950 12-07-2020 07:05:00 9.4 C 8.5 g/m*3 9.4 C 0 km/h
Sensor: Nr:Datum:Temp:Abs-Feuchte:Windchill:Wind:
Aussen-T/F 951 12-07-2020 07:10:00 9.5 C 8.56 g/m*3 9.5 C 0 km/h
952 12-07-2020 07:15:00 9.6 C 8.61 g/m*3 9.6 C 0 km/h
953 12-07-2020 07:20:00 9.6 C 8.61 g/m*3 9.6 C 0 km/h
954 12-07-2020 07:25:00 9.7 C 8.67 g/m*3 9.7 C 0 km/h
955 12-07-2020 07:30:00 9.7 C 8.67 g/m*3 9.7 C 0 km/h
956 12-07-2020 07:35:00 9.8 C 8.81 g/m*3 9.8 C 0 km/h
957 12-07-2020 07:40:00 9.8 C 8.72 g/m*3 9.8 C 0 km/h
958 12-07-2020 07:45:00 9.9 C 8.87 g/m*3 9.9 C 0 km/h
959 12-07-2020 07:50:00 10 C 8.93 g/m*3 10 C 0 km/h
960 12-07-2020 07:55:00 10.1 C 8.98 g/m*3 10.1 C 0 km/h
961 12-07-2020 08:00:00 10.2 C 9.04 g/m*3 10.2 C 0 km/h
962 12-07-2020 08:05:00 10.3 C 9.1 g/m*3 10.3 C 0 km/h
963 12-07-2020 08:10:00 10.4 C 9.16 g/m*3 10.4 C 0 km/h
964 12-07-2020 08:15:00 10.5 C 9.21 g/m*3 10.5 C 0 km/h
965 12-07-2020 08:20:00 10.6 C 9.27 g/m*3 10.6 C 0 km/h
966 12-07-2020 08:25:00 10.7 C 9.33 g/m*3 10.7 C 0 km/h
967 12-07-2020 08:30:00 10.9 C 9.45 g/m*3 10.9 C 0 km/h
968 12-07-2020 08:35:00 11 C 9.51 g/m*3 11 C 0 km/h
969 12-07-2020 08:40:00 11.2 C 9.63 g/m*3 11.2 C 0 km/h
970 12-07-2020 08:45:00 11.3 C 9.69 g/m*3 11.3 C 0 km/h
971 12-07-2020 08:50:00 11.4 C 9.75 g/m*3 11.4 C 0 km/h
972 12-07-2020 08:55:00 11.6 C 9.87 g/m*3 11.6 C 0 km/h
973 12-07-2020 09:00:00 11.8 C 10 g/m*3 11.8 C 0 km/h
974 12-07-2020 09:05:00 11.9 C 10.06 g/m*3 11.9 C 0 km/h
975 12-07-2020 09:10:00 12.1 C 10.19 g/m*3 12.1 C 0 km/h
Sensor: Nr:Datum:Temp:Abs-Feuchte:Windchill:Wind:
Aussen-T/F 976 12-07-2020 09:15:00 12.3 C 10.32 g/m*3 12.3 C 0 km/h
977 12-07-2020 09:20:00 12.5 C 10.44 g/m*3 12.5 C 0 km/h
978 12-07-2020 09:25:00 12.7 C 10.46 g/m*3 12.7 C 1.6 km/h
979 12-07-2020 09:30:00 12.8 C 10.53 g/m*3 12.8 C 0 km/h
980 12-07-2020 09:35:00 13.1 C 10.73 g/m*3 13.1 C 0 km/h
981 12-07-2020 09:40:00 13.2 C 10.68 g/m*3 13.2 C 0 km/h
982 12-07-2020 09:45:00 13.4 C 10.69 g/m*3 13.4 C 1.6 km/h
983 12-07-2020 09:50:00 13.6 C 10.71 g/m*3 13.6 C 1.6 km/h
984 12-07-2020 09:55:00 13.8 C 10.6 g/m*3 13.8 C 1.6 km/h
985 12-07-2020 10:00:00 14.1 C 10.68 g/m*3 14.1 C 3.2 km/h
986 12-07-2020 10:05:00 14.4 C 10.63 g/m*3 14.4 C 3.2 km/h
987 12-07-2020 10:10:00 14.8 C 10.77 g/m*3 14.8 C 3.2 km/h
988 12-07-2020 10:15:00 15.1 C 10.58 g/m*3 15.1 C 1.6 km/h
989 12-07-2020 10:20:00 15.5 C 10.57 g/m*3 15.5 C 3.2 km/h
990 12-07-2020 10:25:00 15.9 C 10.43 g/m*3 15.9 C 4.8 km/h
991 12-07-2020 10:30:00 16.4 C 10.61 g/m*3 16.4 C 1.6 km/h
992 12-07-2020 10:35:00 16.9 C 10.07 g/m*3 16.9 C 4.8 km/h
993 12-07-2020 10:40:00 17.6 C 9.9 g/m*3 17.6 C 8.1 km/h
994 12-07-2020 10:45:00 17.9 C 9.92 g/m*3 17.9 C 3.2 km/h
995 12-07-2020 10:50:00 18.3 C 9.69 g/m*3 18.3 C 4.8 km/h
996 12-07-2020 10:55:00 18.6 C 9.87 g/m*3 18.6 C 3.2 km/h
997 12-07-2020 11:00:00 18.7 C 10.09 g/m*3 18.7 C 3.2 km/h
998 12-07-2020 11:05:00 18.8 C 9.82 g/m*3 18.8 C 6.4 km/h
999 12-07-2020 11:10:00 18.9 C 9.72 g/m*3 18.9 C 9.7 km/h
1000 12-07-2020 11:15:00 19 C 9.94 g/m*3 19 C 3.2 km/h
Sensor: Nr:Datum:Temp:Abs-Feuchte:Windchill:Wind:
Aussen-T/F 1001 12-07-2020 11:20:00 19.1 C 9.67 g/m*3 19.1 C 11.3 km/h
1002 12-07-2020 11:25:00 19.2 C 9.89 g/m*3 19.2 C 8.1 km/h
1003 12-07-2020 11:30:00 19.2 C 9.56 g/m*3 19.2 C 11.3 km/h
1004 12-07-2020 11:35:00 19.3 C 9.62 g/m*3 19.3 C 9.7 km/h
1005 12-07-2020 11:40:00 19.4 C 9.68 g/m*3 19.4 C 11.3 km/h
1006 12-07-2020 11:45:00 19.5 C 9.4 g/m*3 19.5 C 9.7 km/h
1007 12-07-2020 11:50:00 19.6 C 9.62 g/m*3 19.6 C 6.4 km/h
1008 12-07-2020 11:55:00 19.7 C 9.34 g/m*3 19.7 C 9.7 km/h
1009 12-07-2020 12:00:00 19.8 C 9.39 g/m*3 19.8 C 6.4 km/h
1010 12-07-2020 12:05:00 19.8 C 9.39 g/m*3 19.8 C 6.4 km/h
1011 12-07-2020 12:10:00 19.8 C 9.05 g/m*3 19.8 C 12.9 km/h
1012 12-07-2020 12:15:00 19.8 C 9.22 g/m*3 19.8 C 8.1 km/h
1013 12-07-2020 12:20:00 19.9 C 9.11 g/m*3 19.9 C 4.8 km/h
1014 12-07-2020 12:25:00 20.1 C 9.04 g/m*3 20.1 C 6.4 km/h
1015 12-07-2020 12:30:00 20.3 C 8.97 g/m*3 20.3 C 4.8 km/h
1016 12-07-2020 12:35:00 20.4 C 8.85 g/m*3 20.4 C 4.8 km/h
1017 12-07-2020 12:40:00 20.6 C 8.77 g/m*3 20.6 C 9.7 km/h
1018 12-07-2020 12:45:00 20.6 C 8.77 g/m*3 20.6 C 11.3 km/h
1019 12-07-2020 12:50:00 20.5 C 8.72 g/m*3 20.5 C 9.7 km/h
1020 12-07-2020 12:55:00 20.6 C 8.59 g/m*3 20.6 C 8.1 km/h
1021 12-07-2020 13:00:00 20.7 C 8.46 g/m*3 20.7 C 6.4 km/h
1022 12-07-2020 13:05:00 20.8 C 8.33 g/m*3 20.8 C 3.2 km/h
1023 12-07-2020 13:10:00 20.9 C 8.38 g/m*3 20.9 C 9.7 km/h
1024 12-07-2020 13:15:00 21.1 C 8.48 g/m*3 21.1 C 8.1 km/h
1025 12-07-2020 13:20:00 21.1 C 8.48 g/m*3 21.1 C 8.1 km/h
Sensor: Nr:Datum:Temp:Abs-Feuchte:Windchill:Wind:
Aussen-T/F 1026 12-07-2020 13:25:00 21.1 C 8.48 g/m*3 21.1 C 11.3 km/h
1027 12-07-2020 13:30:00 21.4 C 8.62 g/m*3 21.4 C 12.9 km/h
1028 12-07-2020 13:35:00 21.6 C 8.53 g/m*3 21.6 C 12.9 km/h
1029 12-07-2020 13:40:00 21.7 C 8.39 g/m*3 21.7 C 12.9 km/h
1030 12-07-2020 13:45:00 21.9 C 8.3 g/m*3 21.9 C 12.9 km/h
1031 12-07-2020 13:50:00 21.8 C 8.06 g/m*3 21.8 C 8.1 km/h
1032 12-07-2020 13:55:00 21.7 C 8.2 g/m*3 21.7 C 4.8 km/h
1033 12-07-2020 14:00:00 21.8 C 8.25 g/m*3 21.8 C 12.9 km/h
1034 12-07-2020 14:05:00 21.8 C 7.87 g/m*3 21.8 C 11.3 km/h
1035 12-07-2020 14:10:00 21.7 C 8.01 g/m*3 21.7 C 6.4 km/h
1036 12-07-2020 14:15:00 21.6 C 7.97 g/m*3 21.6 C 4.8 km/h
1037 12-07-2020 14:20:00 21.6 C 8.16 g/m*3 21.6 C 9.7 km/h
1038 12-07-2020 14:25:00 21.9 C 8.49 g/m*3 21.9 C 12.9 km/h
1039 12-07-2020 14:30:00 22.3 C 8.69 g/m*3 22.3 C 12.9 km/h
1040 12-07-2020 14:35:00 22.3 C 8.29 g/m*3 22.3 C 12.9 km/h
1041 12-07-2020 14:40:00 22.1 C 8.39 g/m*3 22.1 C 9.7 km/h
1042 12-07-2020 14:45:00 21.9 C 8.3 g/m*3 21.9 C 9.7 km/h
1043 12-07-2020 14:50:00 21.9 C 8.49 g/m*3 21.9 C 9.7 km/h
1044 12-07-2020 14:55:00 22.3 C 8.49 g/m*3 22.3 C 8.1 km/h
1045 12-07-2020 15:00:00 22.6 C 8.04 g/m*3 22.6 C 9.7 km/h
1046 12-07-2020 15:05:00 22.6 C 7.83 g/m*3 22.6 C 4.8 km/h
1047 12-07-2020 15:10:00 22.8 C 8.13 g/m*3 22.8 C 8.1 km/h
1048 12-07-2020 15:15:00 23.1 C 7.86 g/m*3 23.1 C 9.7 km/h
1049 12-07-2020 15:20:00 23.1 C 7.65 g/m*3 23.1 C 4.8 km/h
1050 12-07-2020 15:25:00 23.1 C 8.06 g/m*3 23.1 C 14.5 km/h
Sensor: Nr:Datum:Temp:Abs-Feuchte:Windchill:Wind:
Aussen-T/F 1051 12-07-2020 15:30:00 23.2 C 8.32 g/m*3 23.2 C 16.1 km/h
1052 12-07-2020 15:35:00 23.2 C 8.11 g/m*3 23.2 C 11.3 km/h
1053 12-07-2020 15:40:00 23.4 C 8.2 g/m*3 23.4 C 8.1 km/h
1054 12-07-2020 15:45:00 23.7 C 8.34 g/m*3 23.7 C 6.4 km/h
1055 12-07-2020 15:50:00 24.3 C 8.19 g/m*3 24.3 C 11.3 km/h
1056 12-07-2020 15:55:00 24.8 C 8.19 g/m*3 24.8 C 9.7 km/h
1057 12-07-2020 16:00:00 24.8 C 7.97 g/m*3 24.8 C 12.9 km/h
1058 12-07-2020 16:05:00 24.8 C 8.42 g/m*3 24.8 C 16.1 km/h
1059 12-07-2020 16:10:00 23.9 C 8.22 g/m*3 23.9 C 17.7 km/h
1060 12-07-2020 16:15:00 23.3 C 8.36 g/m*3 23.3 C 17.7 km/h
1061 12-07-2020 16:20:00 23.6 C 8.29 g/m*3 23.6 C 8.1 km/h
1062 12-07-2020 16:25:00 23.9 C 8.65 g/m*3 23.9 C 11.3 km/h
1063 12-07-2020 16:30:00 24.4 C 8.46 g/m*3 24.4 C 9.7 km/h
1064 12-07-2020 16:35:00 24.7 C 8.37 g/m*3 24.7 C 12.9 km/h
1065 12-07-2020 16:40:00 25 C 8.52 g/m*3 25 C 6.4 km/h
1066 12-07-2020 16:45:00 25.1 C 8.1 g/m*3 25.1 C 12.9 km/h
1067 12-07-2020 16:50:00 25.2 C 7.92 g/m*3 25.2 C 9.7 km/h
1068 12-07-2020 16:55:00 25.3 C 7.96 g/m*3 25.3 C 12.9 km/h
1069 12-07-2020 17:00:00 25.3 C 8.43 g/m*3 25.3 C 12.9 km/h
1070 12-07-2020 17:05:00 25.6 C 8.33 g/m*3 25.6 C 8.1 km/h
1071 12-07-2020 17:10:00 25.7 C 7.9 g/m*3 25.7 C 11.3 km/h
1072 12-07-2020 17:15:00 25.2 C 7.92 g/m*3 25.2 C 16.1 km/h
1073 12-07-2020 17:20:00 24.3 C 7.97 g/m*3 24.3 C 16.1 km/h
1074 12-07-2020 17:25:00 23.8 C 7.96 g/m*3 23.8 C 11.3 km/h
1075 12-07-2020 17:30:00 23.5 C 8.04 g/m*3 23.5 C 12.9 km/h
Sensor: Nr:Datum:Temp:Abs-Feuchte:Windchill:Wind:
Aussen-T/F 1076 12-07-2020 17:35:00 23.2 C 7.9 g/m*3 23.2 C 9.7 km/h
1077 12-07-2020 17:40:00 23.3 C 8.15 g/m*3 23.3 C 11.3 km/h
1078 12-07-2020 17:45:00 23.7 C 8.13 g/m*3 23.7 C 11.3 km/h
1079 12-07-2020 17:50:00 24.1 C 8.31 g/m*3 24.1 C 12.9 km/h
1080 12-07-2020 17:55:00 24.3 C 8.41 g/m*3 24.3 C 11.3 km/h
1081 12-07-2020 18:00:00 24.9 C 8.24 g/m*3 24.9 C 3.2 km/h
1082 12-07-2020 18:05:00 25.3 C 7.96 g/m*3 25.3 C 9.7 km/h
1083 12-07-2020 18:10:00 25.3 C 7.96 g/m*3 25.3 C 11.3 km/h
1084 12-07-2020 18:15:00 25.3 C 8.19 g/m*3 25.3 C 6.4 km/h
1085 12-07-2020 18:20:00 25.1 C 7.87 g/m*3 25.1 C 8.1 km/h
1086 12-07-2020 18:25:00 24.8 C 7.97 g/m*3 24.8 C 14.5 km/h
1087 12-07-2020 18:30:00 24.2 C 8.14 g/m*3 24.2 C 11.3 km/h
1088 12-07-2020 18:35:00 24 C 8.27 g/m*3 24 C 16.1 km/h
1089 12-07-2020 18:40:00 23.9 C 8.22 g/m*3 23.9 C 14.5 km/h
1090 12-07-2020 18:45:00 23.8 C 8.17 g/m*3 23.8 C 12.9 km/h
1091 12-07-2020 18:50:00 23.7 C 8.13 g/m*3 23.7 C 9.7 km/h
1092 12-07-2020 18:55:00 23.4 C 8.2 g/m*3 23.4 C 6.4 km/h
1093 12-07-2020 19:00:00 23.4 C 8.41 g/m*3 23.4 C 9.7 km/h
1094 12-07-2020 19:05:00 23.3 C 8.15 g/m*3 23.3 C 12.9 km/h
1095 12-07-2020 19:10:00 23 C 8.22 g/m*3 23 C 9.7 km/h
1096 12-07-2020 19:15:00 22.7 C 8.28 g/m*3 22.7 C 11.3 km/h
1097 12-07-2020 19:20:00 22.6 C 8.44 g/m*3 22.6 C 4.8 km/h
1098 12-07-2020 19:25:00 22.5 C 8.99 g/m*3 22.5 C 1.6 km/h
1099 12-07-2020 19:30:00 22.5 C 8.59 g/m*3 22.5 C 4.8 km/h
1100 12-07-2020 19:35:00 22.6 C 8.44 g/m*3 22.6 C 8.1 km/h
Sensor: Nr:Datum:Temp:Abs-Feuchte:Windchill:Wind:
Aussen-T/F 1101 12-07-2020 19:40:00 22.8 C 8.33 g/m*3 22.8 C 4.8 km/h
1102 12-07-2020 19:45:00 22.9 C 8.38 g/m*3 22.9 C 4.8 km/h
1103 12-07-2020 19:50:00 23 C 8.43 g/m*3 23 C 4.8 km/h
1104 12-07-2020 19:55:00 22.9 C 8.38 g/m*3 22.9 C 4.8 km/h
1105 12-07-2020 20:00:00 22.9 C 8.17 g/m*3 22.9 C 9.7 km/h
1106 12-07-2020 20:05:00 22.8 C 8.33 g/m*3 22.8 C 11.3 km/h
1107 12-07-2020 20:10:00 22.7 C 8.28 g/m*3 22.7 C 14.5 km/h
1108 12-07-2020 20:15:00 22.6 C 8.44 g/m*3 22.6 C 14.5 km/h
1109 12-07-2020 20:20:00 22.4 C 8.34 g/m*3 22.4 C 11.3 km/h
1110 12-07-2020 20:25:00 22.4 C 8.74 g/m*3 22.4 C 12.9 km/h
1111 12-07-2020 20:30:00 22.4 C 8.54 g/m*3 22.4 C 9.7 km/h
1112 12-07-2020 20:35:00 22.4 C 8.54 g/m*3 22.4 C 9.7 km/h
1113 12-07-2020 20:40:00 22.3 C 8.49 g/m*3 22.3 C 11.3 km/h
1114 12-07-2020 20:45:00 22.1 C 8.39 g/m*3 22.1 C 11.3 km/h
1115 12-07-2020 20:50:00 22.1 C 8.39 g/m*3 22.1 C 9.7 km/h
1116 12-07-2020 20:55:00 21.9 C 8.3 g/m*3 21.9 C 8.1 km/h
1117 12-07-2020 21:00:00 21.9 C 8.49 g/m*3 21.9 C 6.4 km/h
1118 12-07-2020 21:05:00 21.8 C 8.44 g/m*3 21.8 C 8.1 km/h
1119 12-07-2020 21:10:00 21.6 C 8.53 g/m*3 21.6 C 9.7 km/h
1120 12-07-2020 21:15:00 21.4 C 8.81 g/m*3 21.4 C 8.1 km/h
1121 12-07-2020 21:20:00 21.3 C 9.32 g/m*3 21.3 C 3.2 km/h
1122 12-07-2020 21:25:00 20.9 C 9.29 g/m*3 20.9 C 0 km/h
1123 12-07-2020 21:30:00 20.6 C 9.31 g/m*3 20.6 C 0 km/h
1124 12-07-2020 21:35:00 20.1 C 9.04 g/m*3 20.1 C 3.2 km/h
1125 12-07-2020 21:40:00 19.7 C 9.17 g/m*3 19.7 C 1.6 km/h
Sensor: Nr:Datum:Temp:Abs-Feuchte:Windchill:Wind:
Aussen-T/F 1126 12-07-2020 21:45:00 19.3 C 9.12 g/m*3 19.3 C 1.6 km/h
1127 12-07-2020 21:50:00 18.9 C 9.07 g/m*3 18.9 C 3.2 km/h
1128 12-07-2020 21:55:00 18.6 C 8.91 g/m*3 18.6 C 3.2 km/h
1129 12-07-2020 22:00:00 18.2 C 8.86 g/m*3 18.2 C 4.8 km/h
1130 12-07-2020 22:05:00 17.9 C 9.01 g/m*3 17.9 C 4.8 km/h
1131 12-07-2020 22:10:00 17.7 C 8.9 g/m*3 17.7 C 3.2 km/h
1132 12-07-2020 22:15:00 17.4 C 8.89 g/m*3 17.4 C 3.2 km/h
1133 12-07-2020 22:20:00 17.3 C 8.84 g/m*3 17.3 C 4.8 km/h
1134 12-07-2020 22:25:00 17.1 C 9.03 g/m*3 17.1 C 1.6 km/h
1135 12-07-2020 22:30:00 16.9 C 8.92 g/m*3 16.9 C 0 km/h
1136 12-07-2020 22:35:00 16.8 C 9.01 g/m*3 16.8 C 3.2 km/h
1137 12-07-2020 22:40:00 16.7 C 8.95 g/m*3 16.7 C 3.2 km/h
1138 12-07-2020 22:45:00 16.6 C 9.04 g/m*3 16.6 C 3.2 km/h
1139 12-07-2020 22:50:00 16.5 C 8.99 g/m*3 16.5 C 4.8 km/h
1140 12-07-2020 22:55:00 16.4 C 9.07 g/m*3 16.4 C 6.4 km/h
1141 12-07-2020 23:00:00 16.3 C 9.02 g/m*3 16.3 C 3.2 km/h
1142 12-07-2020 23:05:00 16.2 C 9.1 g/m*3 16.2 C 3.2 km/h
1143 12-07-2020 23:10:00 16.1 C 9.18 g/m*3 16.1 C 3.2 km/h
1144 12-07-2020 23:15:00 15.9 C 9.21 g/m*3 15.9 C 3.2 km/h
1145 12-07-2020 23:20:00 15.8 C 9.29 g/m*3 15.8 C 3.2 km/h
1146 12-07-2020 23:25:00 15.6 C 9.31 g/m*3 15.6 C 1.6 km/h
1147 12-07-2020 23:30:00 15.4 C 9.2 g/m*3 15.4 C 0 km/h
1148 12-07-2020 23:35:00 15.2 C 9.22 g/m*3 15.2 C 0 km/h
1149 12-07-2020 23:40:00 15.1 C 9.16 g/m*3 15.1 C 3.2 km/h
1150 12-07-2020 23:45:00 14.9 C 9.18 g/m*3 14.9 C 1.6 km/h
Sensor: Nr:Datum:Temp:Abs-Feuchte:Windchill:Wind:
Aussen-T/F 1151 12-07-2020 23:50:00 14.8 C 9.12 g/m*3 14.8 C 1.6 km/h
1152 12-07-2020 23:55:00 14.7 C 9.07 g/m*3 14.7 C 1.6 km/h
1153 13-07-2020 00:00:00 14.7 C 9.07 g/m*3 14.7 C 0 km/h
1154 13-07-2020 00:05:00 14.6 C 9.13 g/m*3 14.6 C 0 km/h
1155 13-07-2020 00:10:00 14.5 C 9.08 g/m*3 14.5 C 1.6 km/h
1156 13-07-2020 00:15:00 14.4 C 9.15 g/m*3 14.4 C 0 km/h
1157 13-07-2020 00:20:00 14.3 C 9.09 g/m*3 14.3 C 0 km/h
1158 13-07-2020 00:25:00 14.2 C 9.16 g/m*3 14.2 C 0 km/h
1159 13-07-2020 00:30:00 14 C 9.05 g/m*3 14 C 0 km/h
1160 13-07-2020 00:35:00 13.8 C 8.94 g/m*3 13.8 C 0 km/h
1161 13-07-2020 00:40:00 13.7 C 8.88 g/m*3 13.7 C 0 km/h
1162 13-07-2020 00:45:00 13.5 C 8.89 g/m*3 13.5 C 0 km/h
1163 13-07-2020 00:50:00 13.4 C 8.83 g/m*3 13.4 C 0 km/h
1164 13-07-2020 00:55:00 13.3 C 8.9 g/m*3 13.3 C 0 km/h
1165 13-07-2020 01:00:00 13.2 C 8.84 g/m*3 13.2 C 0 km/h
1166 13-07-2020 01:05:00 13.1 C 8.79 g/m*3 13.1 C 0 km/h
1167 13-07-2020 01:10:00 13 C 8.85 g/m*3 13 C 0 km/h
1168 13-07-2020 01:15:00 12.8 C 8.74 g/m*3 12.8 C 0 km/h
1169 13-07-2020 01:20:00 12.8 C 8.85 g/m*3 12.8 C 0 km/h
1170 13-07-2020 01:25:00 12.7 C 8.79 g/m*3 12.7 C 1.6 km/h
1171 13-07-2020 01:30:00 12.6 C 8.74 g/m*3 12.6 C 0 km/h
1172 13-07-2020 01:35:00 12.5 C 8.69 g/m*3 12.5 C 0 km/h
1173 13-07-2020 01:40:00 12.4 C 8.74 g/m*3 12.4 C 0 km/h
1174 13-07-2020 01:45:00 12.4 C 8.74 g/m*3 12.4 C 0 km/h
1175 13-07-2020 01:50:00 12.4 C 8.74 g/m*3 12.4 C 0 km/h
Sensor: Nr:Datum:Temp:Abs-Feuchte:Windchill:Wind:
Aussen-T/F 1176 13-07-2020 01:55:00 12.3 C 8.69 g/m*3 12.3 C 1.6 km/h
1177 13-07-2020 02:00:00 12.2 C 8.63 g/m*3 12.2 C 0 km/h
1178 13-07-2020 02:05:00 12.1 C 8.69 g/m*3 12.1 C 0 km/h
1179 13-07-2020 02:10:00 12.1 C 8.69 g/m*3 12.1 C 0 km/h
1180 13-07-2020 02:15:00 12 C 8.63 g/m*3 12 C 0 km/h
1181 13-07-2020 02:20:00 11.9 C 8.68 g/m*3 11.9 C 0 km/h
1182 13-07-2020 02:25:00 11.8 C 8.63 g/m*3 11.8 C 0 km/h
1183 13-07-2020 02:30:00 11.7 C 8.58 g/m*3 11.7 C 0 km/h
1184 13-07-2020 02:35:00 11.7 C 8.58 g/m*3 11.7 C 0 km/h
1185 13-07-2020 02:40:00 11.6 C 8.52 g/m*3 11.6 C 0 km/h
1186 13-07-2020 02:45:00 11.6 C 8.63 g/m*3 11.6 C 0 km/h
1187 13-07-2020 02:50:00 11.5 C 8.57 g/m*3 11.5 C 0 km/h
1188 13-07-2020 02:55:00 11.4 C 8.52 g/m*3 11.4 C 0 km/h
1189 13-07-2020 03:00:00 11.3 C 8.47 g/m*3 11.3 C 0 km/h
1190 13-07-2020 03:05:00 11.3 C 8.57 g/m*3 11.3 C 0 km/h
1191 13-07-2020 03:10:00 11.3 C 8.57 g/m*3 11.3 C 0 km/h
1192 13-07-2020 03:15:00 11.2 C 8.51 g/m*3 11.2 C 0 km/h
1193 13-07-2020 03:20:00 11.1 C 8.46 g/m*3 11.1 C 0 km/h
1194 13-07-2020 03:25:00 11.1 C 8.56 g/m*3 11.1 C 0 km/h
1195 13-07-2020 03:30:00 11 C 8.51 g/m*3 11 C 0 km/h
1196 13-07-2020 03:35:00 10.9 C 8.45 g/m*3 10.9 C 0 km/h
1197 13-07-2020 03:40:00 10.9 C 8.45 g/m*3 10.9 C 0 km/h
1198 13-07-2020 03:45:00 10.8 C 8.5 g/m*3 10.8 C 0 km/h
1199 13-07-2020 03:50:00 10.8 C 8.5 g/m*3 10.8 C 0 km/h
1200 13-07-2020 03:55:00 10.8 C 8.5 g/m*3 10.8 C 0 km/h
Sensor: Nr:Datum:Temp:Abs-Feuchte:Windchill:Wind:
Aussen-T/F 1201 13-07-2020 04:00:00 10.7 C 8.45 g/m*3 10.7 C 0 km/h
1202 13-07-2020 04:05:00 10.6 C 8.39 g/m*3 10.6 C 0 km/h
1203 13-07-2020 04:10:00 10.5 C 8.34 g/m*3 10.5 C 0 km/h
1204 13-07-2020 04:15:00 10.4 C 8.29 g/m*3 10.4 C 0 km/h
1205 13-07-2020 04:20:00 10.4 C 8.38 g/m*3 10.4 C 0 km/h
1206 13-07-2020 04:25:00 10.3 C 8.33 g/m*3 10.3 C 0 km/h
1207 13-07-2020 04:30:00 10.3 C 8.33 g/m*3 10.3 C 0 km/h
1208 13-07-2020 04:35:00 10.2 C 8.28 g/m*3 10.2 C 0 km/h
1209 13-07-2020 04:40:00 10.2 C 8.28 g/m*3 10.2 C 0 km/h
1210 13-07-2020 04:45:00 10.1 C 8.23 g/m*3 10.1 C 0 km/h
1211 13-07-2020 04:50:00 10.1 C 8.32 g/m*3 10.1 C 0 km/h
1212 13-07-2020 04:55:00 10 C 8.27 g/m*3 10 C 0 km/h
1213 13-07-2020 05:00:00 9.9 C 8.22 g/m*3 9.9 C 0 km/h
1214 13-07-2020 05:05:00 9.9 C 8.22 g/m*3 9.9 C 0 km/h
1215 13-07-2020 05:10:00 9.9 C 8.22 g/m*3 9.9 C 0 km/h
1216 13-07-2020 05:15:00 9.9 C 8.22 g/m*3 9.9 C 0 km/h
1217 13-07-2020 05:20:00 9.8 C 8.16 g/m*3 9.8 C 0 km/h
1218 13-07-2020 05:25:00 9.8 C 8.26 g/m*3 9.8 C 0 km/h
1219 13-07-2020 05:30:00 9.8 C 8.26 g/m*3 9.8 C 0 km/h
1220 13-07-2020 05:35:00 9.8 C 8.26 g/m*3 9.8 C 0 km/h
1221 13-07-2020 05:40:00 9.8 C 8.35 g/m*3 9.8 C 0 km/h
1222 13-07-2020 05:45:00 9.8 C 8.35 g/m*3 9.8 C 0 km/h
1223 13-07-2020 05:50:00 9.8 C 8.35 g/m*3 9.8 C 0 km/h
1224 13-07-2020 05:55:00 9.8 C 8.35 g/m*3 9.8 C 0 km/h
1225 13-07-2020 06:00:00 9.8 C 8.35 g/m*3 9.8 C 0 km/h
Sensor: Nr:Datum:Temp:Abs-Feuchte:Windchill:Wind:
Aussen-T/F 1226 13-07-2020 06:05:00 9.8 C 8.35 g/m*3 9.8 C 0 km/h
1227 13-07-2020 06:10:00 9.8 C 8.44 g/m*3 9.8 C 1.6 km/h
1228 13-07-2020 06:15:00 9.9 C 8.5 g/m*3 9.9 C 0 km/h
1229 13-07-2020 06:20:00 9.9 C 8.5 g/m*3 9.9 C 0 km/h
1230 13-07-2020 06:25:00 10 C 8.55 g/m*3 10 C 0 km/h
1231 13-07-2020 06:30:00 10.1 C 8.61 g/m*3 10.1 C 0 km/h
1232 13-07-2020 06:35:00 10.1 C 8.61 g/m*3 10.1 C 0 km/h
1233 13-07-2020 06:40:00 10.2 C 8.66 g/m*3 10.2 C 0 km/h
1234 13-07-2020 06:45:00 10.2 C 8.66 g/m*3 10.2 C 0 km/h
1235 13-07-2020 06:50:00 10.2 C 8.66 g/m*3 10.2 C 0 km/h
1236 13-07-2020 06:55:00 10.2 C 8.66 g/m*3 10.2 C 0 km/h
1237 13-07-2020 07:00:00 10.3 C 8.71 g/m*3 10.3 C 0 km/h
1238 13-07-2020 07:05:00 10.3 C 8.71 g/m*3 10.3 C 0 km/h
1239 13-07-2020 07:10:00 10.4 C 8.77 g/m*3 10.4 C 0 km/h
1240 13-07-2020 07:15:00 10.4 C 8.77 g/m*3 10.4 C 0 km/h
1241 13-07-2020 07:20:00 10.5 C 8.83 g/m*3 10.5 C 0 km/h
1242 13-07-2020 07:25:00 10.6 C 8.88 g/m*3 10.6 C 0 km/h
1243 13-07-2020 07:30:00 10.6 C 8.88 g/m*3 10.6 C 0 km/h
1244 13-07-2020 07:35:00 10.7 C 8.94 g/m*3 10.7 C 0 km/h
1245 13-07-2020 07:40:00 10.7 C 8.94 g/m*3 10.7 C 0 km/h
1246 13-07-2020 07:45:00 10.8 C 8.99 g/m*3 10.8 C 0 km/h
1247 13-07-2020 07:50:00 10.8 C 8.99 g/m*3 10.8 C 0 km/h
1248 13-07-2020 07:55:00 10.9 C 9.05 g/m*3 10.9 C 0 km/h
1249 13-07-2020 08:00:00 11.1 C 9.17 g/m*3 11.1 C 0 km/h
1250 13-07-2020 08:05:00 11.2 C 9.33 g/m*3 11.2 C 0 km/h
Sensor: Nr:Datum:Temp:Abs-Feuchte:Windchill:Wind:
Aussen-T/F 1251 13-07-2020 08:10:00 11.3 C 9.38 g/m*3 11.3 C 0 km/h
1252 13-07-2020 08:15:00 11.4 C 9.44 g/m*3 11.4 C 0 km/h
1253 13-07-2020 08:20:00 11.6 C 9.46 g/m*3 11.6 C 0 km/h
1254 13-07-2020 08:25:00 11.7 C 9.52 g/m*3 11.7 C 0 km/h
1255 13-07-2020 08:30:00 11.8 C 9.58 g/m*3 11.8 C 0 km/h
1256 13-07-2020 08:35:00 11.9 C 9.64 g/m*3 11.9 C 0 km/h
1257 13-07-2020 08:40:00 12.1 C 9.76 g/m*3 12.1 C 0 km/h
1258 13-07-2020 08:45:00 12.2 C 9.82 g/m*3 12.2 C 0 km/h
1259 13-07-2020 08:50:00 12.3 C 9.88 g/m*3 12.3 C 0 km/h
1260 13-07-2020 08:55:00 12.6 C 9.96 g/m*3 12.6 C 3.2 km/h
1261 13-07-2020 09:00:00 12.8 C 9.97 g/m*3 12.8 C 3.2 km/h
1262 13-07-2020 09:05:00 13 C 10.09 g/m*3 13 C 0 km/h
1263 13-07-2020 09:10:00 13.3 C 10.05 g/m*3 13.3 C 1.6 km/h
1264 13-07-2020 09:15:00 13.7 C 10.07 g/m*3 13.7 C 1.6 km/h
1265 13-07-2020 09:20:00 14 C 10.25 g/m*3 14 C 0 km/h
1266 13-07-2020 09:25:00 14.3 C 10.32 g/m*3 14.3 C 1.6 km/h
1267 13-07-2020 09:30:00 14.6 C 10.39 g/m*3 14.6 C 3.2 km/h
1268 13-07-2020 09:35:00 15 C 10.39 g/m*3 15 C 3.2 km/h
1269 13-07-2020 09:40:00 15.3 C 10.58 g/m*3 15.3 C 0 km/h
1270 13-07-2020 09:45:00 15.5 C 10.31 g/m*3 15.5 C 3.2 km/h
1271 13-07-2020 09:50:00 15.8 C 10.63 g/m*3 15.8 C 1.6 km/h
1272 13-07-2020 09:55:00 16 C 10.63 g/m*3 16 C 3.2 km/h
1273 13-07-2020 10:00:00 16.2 C 10.34 g/m*3 16.2 C 3.2 km/h
1274 13-07-2020 10:05:00 16.6 C 10.59 g/m*3 16.6 C 4.8 km/h
1275 13-07-2020 10:10:00 16.9 C 10.36 g/m*3 16.9 C 1.6 km/h
Sensor: Nr:Datum:Temp:Abs-Feuchte:Windchill:Wind:
Aussen-T/F 1276 13-07-2020 10:15:00 17.2 C 10.54 g/m*3 17.2 C 3.2 km/h
1277 13-07-2020 10:20:00 17.6 C 10.65 g/m*3 17.6 C 3.2 km/h
1278 13-07-2020 10:25:00 18 C 10.75 g/m*3 18 C 0 km/h
1279 13-07-2020 10:30:00 18.4 C 10.54 g/m*3 18.4 C 3.2 km/h
1280 13-07-2020 10:35:00 18.8 C 10.63 g/m*3 18.8 C 3.2 km/h
1281 13-07-2020 10:40:00 19.2 C 11.05 g/m*3 19.2 C 4.8 km/h
1282 13-07-2020 10:45:00 19.5 C 10.57 g/m*3 19.5 C 3.2 km/h
1283 13-07-2020 10:50:00 19.8 C 10.42 g/m*3 19.8 C 3.2 km/h
1284 13-07-2020 10:55:00 20.2 C 10.84 g/m*3 20.2 C 3.2 km/h
1285 13-07-2020 11:00:00 20.4 C 10.61 g/m*3 20.4 C 3.2 km/h
1286 13-07-2020 11:05:00 20.7 C 10.44 g/m*3 20.7 C 4.8 km/h
1287 13-07-2020 11:10:00 20.9 C 10.2 g/m*3 20.9 C 3.2 km/h
1288 13-07-2020 11:15:00 21.2 C 10.19 g/m*3 21.2 C 3.2 km/h
1289 13-07-2020 11:20:00 21.4 C 10.12 g/m*3 21.4 C 6.4 km/h
1290 13-07-2020 11:25:00 21.7 C 10.3 g/m*3 21.7 C 6.4 km/h
1291 13-07-2020 11:30:00 21.8 C 9.78 g/m*3 21.8 C 4.8 km/h
1292 13-07-2020 11:35:00 22.1 C 9.76 g/m*3 22.1 C 4.8 km/h
1293 13-07-2020 11:40:00 22.3 C 9.87 g/m*3 22.3 C 6.4 km/h
1294 13-07-2020 11:45:00 22.5 C 9.39 g/m*3 22.5 C 6.4 km/h
1295 13-07-2020 11:50:00 22.7 C 9.7 g/m*3 22.7 C 6.4 km/h
1296 13-07-2020 11:55:00 22.9 C 9.4 g/m*3 22.9 C 8.1 km/h
1297 13-07-2020 12:00:00 23.1 C 9.3 g/m*3 23.1 C 8.1 km/h
1298 13-07-2020 12:05:00 23.3 C 9.41 g/m*3 23.3 C 6.4 km/h
1299 13-07-2020 12:10:00 23.4 C 9.46 g/m*3 23.4 C 8.1 km/h
1300 13-07-2020 12:15:00 23.4 C 8.2 g/m*3 23.4 C 4.8 km/h
Sensor: Nr:Datum:Temp:Abs-Feuchte:Windchill:Wind:
Aussen-T/F 1301 13-07-2020 12:20:00 23.3 C 8.57 g/m*3 23.3 C 9.7 km/h
1302 13-07-2020 12:25:00 23.1 C 8.89 g/m*3 23.1 C 9.7 km/h
1303 13-07-2020 12:30:00 23.1 C 8.68 g/m*3 23.1 C 11.3 km/h
1304 13-07-2020 12:35:00 23.3 C 8.78 g/m*3 23.3 C 11.3 km/h
1305 13-07-2020 12:40:00 23.4 C 8.83 g/m*3 23.4 C 11.3 km/h
1306 13-07-2020 12:45:00 23.4 C 9.04 g/m*3 23.4 C 6.4 km/h
1307 13-07-2020 12:50:00 23.3 C 8.36 g/m*3 23.3 C 14.5 km/h
1308 13-07-2020 12:55:00 23.4 C 8.41 g/m*3 23.4 C 14.5 km/h
1309 13-07-2020 13:00:00 23.3 C 8.57 g/m*3 23.3 C 9.7 km/h
1310 13-07-2020 13:05:00 23.3 C 8.36 g/m*3 23.3 C 11.3 km/h
1311 13-07-2020 13:10:00 23.6 C 8.51 g/m*3 23.6 C 9.7 km/h
1312 13-07-2020 13:15:00 23.9 C 8.87 g/m*3 23.9 C 11.3 km/h
1313 13-07-2020 13:20:00 24.2 C 8.8 g/m*3 24.2 C 8.1 km/h
1314 13-07-2020 13:25:00 24.2 C 8.58 g/m*3 24.2 C 9.7 km/h
1315 13-07-2020 13:30:00 24.2 C 8.8 g/m*3 24.2 C 11.3 km/h
1316 13-07-2020 13:35:00 24.3 C 8.85 g/m*3 24.3 C 8.1 km/h
1317 13-07-2020 13:40:00 24.3 C 8.85 g/m*3 24.3 C 11.3 km/h
1318 13-07-2020 13:45:00 24.4 C 8.68 g/m*3 24.4 C 9.7 km/h
1319 13-07-2020 13:50:00 24.4 C 8.68 g/m*3 24.4 C 8.1 km/h
1320 13-07-2020 13:55:00 24.3 C 8.41 g/m*3 24.3 C 6.4 km/h
1321 13-07-2020 14:00:00 24.4 C 8.68 g/m*3 24.4 C 9.7 km/h
1322 13-07-2020 14:05:00 24.5 C 8.5 g/m*3 24.5 C 14.5 km/h
1323 13-07-2020 14:10:00 24.6 C 8.33 g/m*3 24.6 C 8.1 km/h
1324 13-07-2020 14:15:00 24.6 C 8.33 g/m*3 24.6 C 11.3 km/h
1325 13-07-2020 14:20:00 24.6 C 8.55 g/m*3 24.6 C 11.3 km/h
Sensor: Nr:Datum:Temp:Abs-Feuchte:Windchill:Wind:
Aussen-T/F 1326 13-07-2020 14:25:00 24.5 C 8.5 g/m*3 24.5 C 11.3 km/h
1327 13-07-2020 14:30:00 24.4 C 8.23 g/m*3 24.4 C 9.7 km/h
1328 13-07-2020 14:35:00 24.5 C 8.5 g/m*3 24.5 C 8.1 km/h
1329 13-07-2020 14:40:00 24.7 C 8.37 g/m*3 24.7 C 11.3 km/h
1330 13-07-2020 14:45:00 24.9 C 8.24 g/m*3 24.9 C 8.1 km/h
1331 13-07-2020 14:50:00 25.1 C 8.33 g/m*3 25.1 C 8.1 km/h
1332 13-07-2020 14:55:00 25.3 C 8.43 g/m*3 25.3 C 14.5 km/h
1333 13-07-2020 15:00:00 25.6 C 8.57 g/m*3 25.6 C 11.3 km/h
1334 13-07-2020 15:05:00 25.9 C 8.47 g/m*3 25.9 C 9.7 km/h
1335 13-07-2020 15:10:00 26 C 8.28 g/m*3 26 C 11.3 km/h
1336 13-07-2020 15:15:00 26.2 C 8.12 g/m*3 26.2 C 9.7 km/h
1337 13-07-2020 15:20:00 26.1 C 8.32 g/m*3 26.1 C 9.7 km/h
1338 13-07-2020 15:25:00 25.9 C 8.23 g/m*3 25.9 C 6.4 km/h
1339 13-07-2020 15:30:00 25.7 C 8.14 g/m*3 25.7 C 6.4 km/h
1340 13-07-2020 15:35:00 25.6 C 8.33 g/m*3 25.6 C 8.1 km/h
1341 13-07-2020 15:40:00 26.1 C 8.57 g/m*3 26.1 C 6.4 km/h
1342 13-07-2020 15:45:00 26.6 C 8.31 g/m*3 26.6 C 9.7 km/h
1343 13-07-2020 15:50:00 26.8 C 8.14 g/m*3 26.8 C 8.1 km/h
1344 13-07-2020 15:55:00 27.2 C 8.33 g/m*3 27.2 C 11.3 km/h
1345 13-07-2020 16:00:00 27.5 C 8.47 g/m*3 27.5 C 6.4 km/h
1346 13-07-2020 16:05:00 27.8 C 9.15 g/m*3 27.8 C 4.8 km/h
1347 13-07-2020 16:10:00 28.2 C 8.25 g/m*3 28.2 C 9.7 km/h
1348 13-07-2020 16:15:00 28.2 C 8.8 g/m*3 28.2 C 6.4 km/h
1349 13-07-2020 16:20:00 28.4 C 8.62 g/m*3 28.4 C 8.1 km/h
1350 13-07-2020 16:25:00 28.7 C 8.48 g/m*3 28.7 C 4.8 km/h
Sensor: Nr:Datum:Temp:Abs-Feuchte:Windchill:Wind:
Aussen-T/F 1351 13-07-2020 16:30:00 28.7 C 8.19 g/m*3 28.7 C 9.7 km/h
1352 13-07-2020 16:35:00 28.6 C 7.87 g/m*3 28.6 C 8.1 km/h
1353 13-07-2020 16:40:00 28.7 C 8.48 g/m*3 28.7 C 4.8 km/h
1354 13-07-2020 16:45:00 28.9 C 8.57 g/m*3 28.9 C 6.4 km/h
1355 13-07-2020 16:50:00 29.1 C 8.66 g/m*3 29.1 C 6.4 km/h
1356 13-07-2020 16:55:00 28.9 C 8.28 g/m*3 28.9 C 4.8 km/h
1357 13-07-2020 17:00:00 28.9 C 8 g/m*3 28.9 C 9.7 km/h
1358 13-07-2020 17:05:00 28.3 C 8.57 g/m*3 28.3 C 11.3 km/h
1359 13-07-2020 17:10:00 28 C 8.16 g/m*3 28 C 11.3 km/h
1360 13-07-2020 17:15:00 28.1 C 8.48 g/m*3 28.1 C 11.3 km/h
1361 13-07-2020 17:20:00 28.3 C 8.02 g/m*3 28.3 C 9.7 km/h
1362 13-07-2020 17:25:00 28.7 C 8.19 g/m*3 28.7 C 6.4 km/h
1363 13-07-2020 17:30:00 28.9 C 8.28 g/m*3 28.9 C 8.1 km/h
1364 13-07-2020 17:35:00 28.8 C 8.52 g/m*3 28.8 C 8.1 km/h
1365 13-07-2020 17:40:00 28.7 C 8.19 g/m*3 28.7 C 9.7 km/h
1366 13-07-2020 17:45:00 28.7 C 8.19 g/m*3 28.7 C 4.8 km/h
1367 13-07-2020 17:50:00 28.8 C 8.24 g/m*3 28.8 C 9.7 km/h
1368 13-07-2020 17:55:00 28.7 C 7.91 g/m*3 28.7 C 9.7 km/h
1369 13-07-2020 18:00:00 28.6 C 7.87 g/m*3 28.6 C 8.1 km/h
1370 13-07-2020 18:05:00 28.4 C 8.06 g/m*3 28.4 C 6.4 km/h
1371 13-07-2020 18:10:00 28.5 C 7.83 g/m*3 28.5 C 4.8 km/h
1372 13-07-2020 18:15:00 28.5 C 7.83 g/m*3 28.5 C 6.4 km/h
1373 13-07-2020 18:20:00 28.7 C 7.91 g/m*3 28.7 C 3.2 km/h
1374 13-07-2020 18:25:00 28.9 C 8 g/m*3 28.9 C 4.8 km/h
1375 13-07-2020 18:30:00 29.1 C 7.8 g/m*3 29.1 C 4.8 km/h
Sensor: Nr:Datum:Temp:Abs-Feuchte:Windchill:Wind:
Aussen-T/F 1376 13-07-2020 18:35:00 29.2 C 8.42 g/m*3 29.2 C 3.2 km/h
1377 13-07-2020 18:40:00 29.3 C 8.17 g/m*3 29.3 C 8.1 km/h
1378 13-07-2020 18:45:00 28.8 C 7.67 g/m*3 28.8 C 9.7 km/h
1379 13-07-2020 18:50:00 28.3 C 7.74 g/m*3 28.3 C 8.1 km/h
1380 13-07-2020 18:55:00 28.4 C 8.06 g/m*3 28.4 C 4.8 km/h
1381 13-07-2020 19:00:00 28.6 C 7.59 g/m*3 28.6 C 8.1 km/h
1382 13-07-2020 19:05:00 28.5 C 7.83 g/m*3 28.5 C 4.8 km/h
1383 13-07-2020 19:10:00 28.5 C 8.11 g/m*3 28.5 C 3.2 km/h
1384 13-07-2020 19:15:00 28.6 C 7.59 g/m*3 28.6 C 6.4 km/h
1385 13-07-2020 19:20:00 28.4 C 7.51 g/m*3 28.4 C 9.7 km/h
1386 13-07-2020 19:25:00 28.2 C 7.7 g/m*3 28.2 C 8.1 km/h
1387 13-07-2020 19:30:00 28 C 7.61 g/m*3 28 C 3.2 km/h
1388 13-07-2020 19:35:00 27.8 C 7.53 g/m*3 27.8 C 6.4 km/h
1389 13-07-2020 19:40:00 27.7 C 7.49 g/m*3 27.7 C 8.1 km/h
1390 13-07-2020 19:45:00 27.4 C 7.37 g/m*3 27.4 C 8.1 km/h
1391 13-07-2020 19:50:00 27.2 C 7.55 g/m*3 27.2 C 9.7 km/h
1392 13-07-2020 19:55:00 27.1 C 7.5 g/m*3 27.1 C 4.8 km/h
1393 13-07-2020 20:00:00 27.1 C 7.5 g/m*3 27.1 C 4.8 km/h
1394 13-07-2020 20:05:00 27 C 7.46 g/m*3 27 C 3.2 km/h
1395 13-07-2020 20:10:00 27 C 7.46 g/m*3 27 C 4.8 km/h
1396 13-07-2020 20:15:00 27 C 7.72 g/m*3 27 C 4.8 km/h
1397 13-07-2020 20:20:00 27 C 7.46 g/m*3 27 C 3.2 km/h
1398 13-07-2020 20:25:00 26.9 C 7.93 g/m*3 26.9 C 8.1 km/h
1399 13-07-2020 20:30:00 26.7 C 7.85 g/m*3 26.7 C 6.4 km/h
1400 13-07-2020 20:35:00 26.5 C 8.01 g/m*3 26.5 C 6.4 km/h
Sensor: Nr:Datum:Temp:Abs-Feuchte:Windchill:Wind:
Aussen-T/F 1401 13-07-2020 20:40:00 26.3 C 8.42 g/m*3 26.3 C 8.1 km/h
1402 13-07-2020 20:45:00 26 C 8.52 g/m*3 26 C 6.4 km/h
1403 13-07-2020 20:50:00 25.7 C 8.38 g/m*3 25.7 C 6.4 km/h
1404 13-07-2020 20:55:00 25.6 C 8.33 g/m*3 25.6 C 4.8 km/h
1405 13-07-2020 21:00:00 25.4 C 8.24 g/m*3 25.4 C 3.2 km/h
1406 13-07-2020 21:05:00 25.3 C 9.36 g/m*3 25.3 C 0 km/h
1407 13-07-2020 21:10:00 25.1 C 9.49 g/m*3 25.1 C 1.6 km/h
1408 13-07-2020 21:15:00 24.8 C 9.79 g/m*3 24.8 C 1.6 km/h
1409 13-07-2020 21:20:00 24.6 C 9.9 g/m*3 24.6 C 0 km/h
1410 13-07-2020 21:25:00 24.1 C 9.85 g/m*3 24.1 C 1.6 km/h
1411 13-07-2020 21:30:00 23.7 C 9.63 g/m*3 23.7 C 3.2 km/h
1412 13-07-2020 21:35:00 23.3 C 9.83 g/m*3 23.3 C 3.2 km/h
1413 13-07-2020 21:40:00 22.9 C 9.61 g/m*3 22.9 C 1.6 km/h
1414 13-07-2020 21:45:00 22.6 C 9.64 g/m*3 22.6 C 0 km/h
1415 13-07-2020 21:50:00 22.3 C 9.48 g/m*3 22.3 C 0 km/h
1416 13-07-2020 21:55:00 22 C 9.51 g/m*3 22 C 4.8 km/h
1417 13-07-2020 22:00:00 21.7 C 9.73 g/m*3 21.7 C 4.8 km/h
1418 13-07-2020 22:05:00 21.5 C 9.62 g/m*3 21.5 C 3.2 km/h
1419 13-07-2020 22:10:00 21.3 C 9.69 g/m*3 21.3 C 3.2 km/h
1420 13-07-2020 22:15:00 21.1 C 9.77 g/m*3 21.1 C 3.2 km/h
1421 13-07-2020 22:20:00 20.8 C 9.6 g/m*3 20.8 C 4.8 km/h
1422 13-07-2020 22:25:00 20.7 C 9.72 g/m*3 20.7 C 4.8 km/h
1423 13-07-2020 22:30:00 20.5 C 9.61 g/m*3 20.5 C 4.8 km/h
1424 13-07-2020 22:35:00 20.3 C 9.5 g/m*3 20.3 C 4.8 km/h
1425 13-07-2020 22:40:00 20.2 C 9.79 g/m*3 20.2 C 4.8 km/h
Sensor: Nr:Datum:Temp:Abs-Feuchte:Windchill:Wind:
Aussen-T/F 1426 13-07-2020 22:45:00 19.9 C 9.62 g/m*3 19.9 C 1.6 km/h
1427 13-07-2020 22:50:00 19.7 C 9.51 g/m*3 19.7 C 3.2 km/h
1428 13-07-2020 22:55:00 19.6 C 9.62 g/m*3 19.6 C 1.6 km/h
1429 13-07-2020 23:00:00 19.4 C 9.51 g/m*3 19.4 C 4.8 km/h
1430 13-07-2020 23:05:00 19.2 C 9.56 g/m*3 19.2 C 1.6 km/h
1431 13-07-2020 23:10:00 19.1 C 9.51 g/m*3 19.1 C 4.8 km/h
1432 13-07-2020 23:15:00 18.9 C 9.4 g/m*3 18.9 C 4.8 km/h
1433 13-07-2020 23:20:00 18.8 C 9.5 g/m*3 18.8 C 4.8 km/h
1434 13-07-2020 23:25:00 18.7 C 9.45 g/m*3 18.7 C 4.8 km/h
1435 13-07-2020 23:30:00 18.6 C 9.39 g/m*3 18.6 C 4.8 km/h
1436 13-07-2020 23:35:00 18.5 C 9.49 g/m*3 18.5 C 4.8 km/h
1437 13-07-2020 23:40:00 18.4 C 9.59 g/m*3 18.4 C 3.2 km/h
1438 13-07-2020 23:45:00 18.3 C 9.54 g/m*3 18.3 C 3.2 km/h
1439 13-07-2020 23:50:00 18.2 C 9.79 g/m*3 18.2 C 3.2 km/h
1440 13-07-2020 23:55:00 18.1 C 9.58 g/m*3 18.1 C 6.4 km/h
1441 14-07-2020 00:00:00 17.9 C 9.47 g/m*3 17.9 C 4.8 km/h
1442 14-07-2020 00:05:00 17.8 C 9.56 g/m*3 17.8 C 0 km/h
1443 14-07-2020 00:10:00 17.8 C 9.56 g/m*3 17.8 C 3.2 km/h
1444 14-07-2020 00:15:00 17.7 C 9.51 g/m*3 17.7 C 4.8 km/h
1445 14-07-2020 00:20:00 17.7 C 9.51 g/m*3 17.7 C 3.2 km/h
1446 14-07-2020 00:25:00 17.6 C 9.45 g/m*3 17.6 C 4.8 km/h
1447 14-07-2020 00:30:00 17.6 C 9.45 g/m*3 17.6 C 3.2 km/h
1448 14-07-2020 00:35:00 17.5 C 9.39 g/m*3 17.5 C 4.8 km/h
1449 14-07-2020 00:40:00 17.4 C 9.48 g/m*3 17.4 C 3.2 km/h
1450 14-07-2020 00:45:00 17.4 C 9.48 g/m*3 17.4 C 0 km/h
Sensor: Nr:Datum:Temp:Abs-Feuchte:Windchill:Wind:
Aussen-T/F 1451 14-07-2020 00:50:00 17.3 C 9.43 g/m*3 17.3 C 0 km/h
1452 14-07-2020 00:55:00 17.2 C 9.37 g/m*3 17.2 C 0 km/h
1453 14-07-2020 01:00:00 17.2 C 9.37 g/m*3 17.2 C 4.8 km/h
1454 14-07-2020 01:05:00 17.1 C 9.46 g/m*3 17.1 C 3.2 km/h
1455 14-07-2020 01:10:00 17 C 9.55 g/m*3 17 C 3.2 km/h
1456 14-07-2020 01:15:00 16.9 C 9.49 g/m*3 16.9 C 3.2 km/h
1457 14-07-2020 01:20:00 16.7 C 9.52 g/m*3 16.7 C 0 km/h
1458 14-07-2020 01:25:00 16.6 C 9.46 g/m*3 16.6 C 1.6 km/h
1459 14-07-2020 01:30:00 16.5 C 9.55 g/m*3 16.5 C 0 km/h
1460 14-07-2020 01:35:00 16.3 C 9.57 g/m*3 16.3 C 0 km/h
1461 14-07-2020 01:40:00 16.2 C 9.52 g/m*3 16.2 C 0 km/h
1462 14-07-2020 01:45:00 16.1 C 9.6 g/m*3 16.1 C 4.8 km/h
1463 14-07-2020 01:50:00 15.9 C 9.62 g/m*3 15.9 C 1.6 km/h
1464 14-07-2020 01:55:00 15.8 C 9.56 g/m*3 15.8 C 0 km/h
1465 14-07-2020 02:00:00 15.7 C 9.63 g/m*3 15.7 C 0 km/h
1466 14-07-2020 02:05:00 15.6 C 9.58 g/m*3 15.6 C 0 km/h
1467 14-07-2020 02:10:00 15.4 C 9.59 g/m*3 15.4 C 0 km/h
1468 14-07-2020 02:15:00 15.4 C 9.59 g/m*3 15.4 C 0 km/h
1469 14-07-2020 02:20:00 15.3 C 9.66 g/m*3 15.3 C 0 km/h
1470 14-07-2020 02:25:00 15.2 C 9.61 g/m*3 15.2 C 0 km/h
1471 14-07-2020 02:30:00 15.1 C 9.68 g/m*3 15.1 C 0 km/h
1472 14-07-2020 02:35:00 14.9 C 9.56 g/m*3 14.9 C 0 km/h
1473 14-07-2020 02:40:00 14.8 C 9.5 g/m*3 14.8 C 0 km/h
1474 14-07-2020 02:45:00 14.6 C 9.51 g/m*3 14.6 C 0 km/h
1475 14-07-2020 02:50:00 14.5 C 9.45 g/m*3 14.5 C 0 km/h
Sensor: Nr:Datum:Temp:Abs-Feuchte:Windchill:Wind:
Aussen-T/F 1476 14-07-2020 02:55:00 14.4 C 9.39 g/m*3 14.4 C 0 km/h
1477 14-07-2020 03:00:00 14.3 C 9.46 g/m*3 14.3 C 0 km/h
1478 14-07-2020 03:05:00 14.2 C 9.52 g/m*3 14.2 C 0 km/h
1479 14-07-2020 03:10:00 14 C 9.41 g/m*3 14 C 0 km/h
1480 14-07-2020 03:15:00 13.9 C 9.35 g/m*3 13.9 C 0 km/h
1481 14-07-2020 03:20:00 13.8 C 9.41 g/m*3 13.8 C 0 km/h
1482 14-07-2020 03:25:00 13.7 C 9.35 g/m*3 13.7 C 0 km/h
1483 14-07-2020 03:30:00 13.7 C 9.35 g/m*3 13.7 C 0 km/h
1484 14-07-2020 03:35:00 13.6 C 9.42 g/m*3 13.6 C 0 km/h
1485 14-07-2020 03:40:00 13.6 C 9.42 g/m*3 13.6 C 0 km/h
1486 14-07-2020 03:45:00 13.5 C 9.36 g/m*3 13.5 C 0 km/h
1487 14-07-2020 03:50:00 13.4 C 9.3 g/m*3 13.4 C 0 km/h
1488 14-07-2020 03:55:00 13.3 C 9.36 g/m*3 13.3 C 0 km/h
1489 14-07-2020 04:00:00 13.2 C 9.3 g/m*3 13.2 C 0 km/h
1490 14-07-2020 04:05:00 13.2 C 9.3 g/m*3 13.2 C 0 km/h
1491 14-07-2020 04:10:00 13.1 C 9.36 g/m*3 13.1 C 0 km/h
1492 14-07-2020 04:15:00 13.1 C 9.36 g/m*3 13.1 C 0 km/h
1493 14-07-2020 04:20:00 13 C 9.3 g/m*3 13 C 0 km/h
1494 14-07-2020 04:25:00 12.9 C 9.24 g/m*3 12.9 C 0 km/h
1495 14-07-2020 04:30:00 12.9 C 9.24 g/m*3 12.9 C 0 km/h
1496 14-07-2020 04:35:00 12.9 C 9.35 g/m*3 12.9 C 0 km/h
1497 14-07-2020 04:40:00 12.8 C 9.3 g/m*3 12.8 C 0 km/h
1498 14-07-2020 04:45:00 12.8 C 9.3 g/m*3 12.8 C 0 km/h
1499 14-07-2020 04:50:00 12.7 C 9.24 g/m*3 12.7 C 0 km/h
1500 14-07-2020 04:55:00 12.7 C 9.24 g/m*3 12.7 C 0 km/h
Sensor: Nr:Datum:Temp:Abs-Feuchte:Windchill:Wind:
Aussen-T/F 1501 14-07-2020 05:00:00 12.6 C 9.18 g/m*3 12.6 C 0 km/h
1502 14-07-2020 05:05:00 12.6 C 9.29 g/m*3 12.6 C 0 km/h
1503 14-07-2020 05:10:00 12.5 C 9.24 g/m*3 12.5 C 0 km/h
1504 14-07-2020 05:15:00 12.5 C 9.24 g/m*3 12.5 C 0 km/h
1505 14-07-2020 05:20:00 12.4 C 9.18 g/m*3 12.4 C 0 km/h
1506 14-07-2020 05:25:00 12.4 C 9.18 g/m*3 12.4 C 0 km/h
1507 14-07-2020 05:30:00 12.3 C 9.23 g/m*3 12.3 C 0 km/h
1508 14-07-2020 05:35:00 12.3 C 9.23 g/m*3 12.3 C 0 km/h
1509 14-07-2020 05:40:00 12.3 C 9.23 g/m*3 12.3 C 0 km/h
1510 14-07-2020 05:45:00 12.3 C 9.23 g/m*3 12.3 C 0 km/h
1511 14-07-2020 05:50:00 12.3 C 9.23 g/m*3 12.3 C 0 km/h
1512 14-07-2020 05:55:00 12.3 C 9.23 g/m*3 12.3 C 0 km/h
1513 14-07-2020 06:00:00 12.3 C 9.23 g/m*3 12.3 C 0 km/h
1514 14-07-2020 06:05:00 12.3 C 9.23 g/m*3 12.3 C 0 km/h
1515 14-07-2020 06:10:00 12.3 C 9.23 g/m*3 12.3 C 0 km/h
1516 14-07-2020 06:15:00 12.3 C 9.23 g/m*3 12.3 C 0 km/h
1517 14-07-2020 06:20:00 12.2 C 9.17 g/m*3 12.2 C 0 km/h
1518 14-07-2020 06:25:00 12.3 C 9.34 g/m*3 12.3 C 0 km/h
1519 14-07-2020 06:30:00 12.3 C 9.34 g/m*3 12.3 C 0 km/h
1520 14-07-2020 06:35:00 12.4 C 9.4 g/m*3 12.4 C 0 km/h
1521 14-07-2020 06:40:00 12.4 C 9.4 g/m*3 12.4 C 0 km/h
1522 14-07-2020 06:45:00 12.5 C 9.46 g/m*3 12.5 C 0 km/h
1523 14-07-2020 06:50:00 12.6 C 9.51 g/m*3 12.6 C 0 km/h
1524 14-07-2020 06:55:00 12.7 C 9.57 g/m*3 12.7 C 0 km/h
1525 14-07-2020 07:00:00 12.8 C 9.63 g/m*3 12.8 C 0 km/h
Sensor: Nr:Datum:Temp:Abs-Feuchte:Windchill:Wind:
Aussen-T/F 1526 14-07-2020 07:05:00 12.9 C 9.69 g/m*3 12.9 C 0 km/h
1527 14-07-2020 07:10:00 13.1 C 9.81 g/m*3 13.1 C 0 km/h
1528 14-07-2020 07:15:00 13.3 C 9.82 g/m*3 13.3 C 0 km/h
1529 14-07-2020 07:20:00 13.4 C 9.76 g/m*3 13.4 C 0 km/h
1530 14-07-2020 07:25:00 13.7 C 9.83 g/m*3 13.7 C 0 km/h
1531 14-07-2020 07:30:00 13.9 C 10.07 g/m*3 13.9 C 0 km/h
1532 14-07-2020 07:35:00 14.1 C 10.19 g/m*3 14.1 C 0 km/h
1533 14-07-2020 07:40:00 14.3 C 10.2 g/m*3 14.3 C 0 km/h
1534 14-07-2020 07:45:00 14.4 C 10.14 g/m*3 14.4 C 0 km/h
1535 14-07-2020 07:50:00 14.6 C 10.14 g/m*3 14.6 C 0 km/h
1536 14-07-2020 07:55:00 14.7 C 10.07 g/m*3 14.7 C 0 km/h
1537 14-07-2020 08:00:00 14.8 C 10.13 g/m*3 14.8 C 0 km/h
1538 14-07-2020 08:05:00 14.8 C 10.13 g/m*3 14.8 C 0 km/h
1539 14-07-2020 08:10:00 14.8 C 10.13 g/m*3 14.8 C 0 km/h
1540 14-07-2020 08:15:00 14.8 C 10.13 g/m*3 14.8 C 0 km/h
1541 14-07-2020 08:20:00 14.9 C 10.2 g/m*3 14.9 C 0 km/h
1542 14-07-2020 08:25:00 14.9 C 10.2 g/m*3 14.9 C 0 km/h
1543 14-07-2020 08:30:00 15 C 10.39 g/m*3 15 C 0 km/h
1544 14-07-2020 08:35:00 15 C 10.39 g/m*3 15 C 0 km/h
1545 14-07-2020 08:40:00 15.1 C 10.58 g/m*3 15.1 C 0 km/h
1546 14-07-2020 08:45:00 15.1 C 10.58 g/m*3 15.1 C 0 km/h
1547 14-07-2020 08:50:00 15.1 C 10.58 g/m*3 15.1 C 0 km/h
1548 14-07-2020 08:55:00 15.1 C 10.58 g/m*3 15.1 C 0 km/h
1549 14-07-2020 09:00:00 15.2 C 10.64 g/m*3 15.2 C 0 km/h
1550 14-07-2020 09:05:00 15.2 C 10.64 g/m*3 15.2 C 0 km/h
Sensor: Nr:Datum:Temp:Abs-Feuchte:Windchill:Wind:
Aussen-T/F 1551 14-07-2020 09:10:00 15.3 C 10.71 g/m*3 15.3 C 0 km/h
1552 14-07-2020 09:15:00 15.4 C 10.77 g/m*3 15.4 C 0 km/h
1553 14-07-2020 09:20:00 15.6 C 10.91 g/m*3 15.6 C 0 km/h
1554 14-07-2020 09:25:00 15.7 C 10.84 g/m*3 15.7 C 0 km/h
1555 14-07-2020 09:30:00 15.9 C 10.83 g/m*3 15.9 C 0 km/h
1556 14-07-2020 09:35:00 16.1 C 10.97 g/m*3 16.1 C 0 km/h
1557 14-07-2020 09:40:00 16.3 C 10.96 g/m*3 16.3 C 0 km/h
1558 14-07-2020 09:45:00 16.4 C 10.89 g/m*3 16.4 C 0 km/h
1559 14-07-2020 09:50:00 16.6 C 10.88 g/m*3 16.6 C 0 km/h
1560 14-07-2020 09:55:00 16.8 C 10.87 g/m*3 16.8 C 0 km/h
1561 14-07-2020 10:00:00 17.1 C 10.77 g/m*3 17.1 C 0 km/h
1562 14-07-2020 10:05:00 17.4 C 10.82 g/m*3 17.4 C 0 km/h
1563 14-07-2020 10:10:00 17.7 C 10.71 g/m*3 17.7 C 0 km/h
1564 14-07-2020 10:15:00 18 C 10.91 g/m*3 18 C 0 km/h
1565 14-07-2020 10:20:00 18.3 C 11.1 g/m*3 18.3 C 0 km/h
1566 14-07-2020 10:25:00 18.7 C 10.89 g/m*3 18.7 C 0 km/h
1567 14-07-2020 10:30:00 19.2 C 11.05 g/m*3 19.2 C 0 km/h
1568 14-07-2020 10:35:00 19.8 C 10.76 g/m*3 19.8 C 0 km/h
1569 14-07-2020 10:40:00 20.3 C 10.73 g/m*3 20.3 C 0 km/h
1570 14-07-2020 10:45:00 20.7 C 10.98 g/m*3 20.7 C 0 km/h
1571 14-07-2020 10:50:00 21.2 C 11.3 g/m*3 21.2 C 0 km/h
1572 14-07-2020 10:55:00 21.4 C 10.87 g/m*3 21.4 C 0 km/h
1573 14-07-2020 11:00:00 21.6 C 10.62 g/m*3 21.6 C 0 km/h
1574 14-07-2020 11:05:00 21.7 C 10.87 g/m*3 21.7 C 0 km/h
1575 14-07-2020 11:10:00 21.9 C 10.81 g/m*3 21.9 C 0 km/h
Sensor: Nr:Datum:Temp:Abs-Feuchte:Windchill:Wind:
Aussen-T/F 1576 14-07-2020 11:15:00 22 C 10.67 g/m*3 22 C 0 km/h
1577 14-07-2020 11:20:00 22.2 C 10.8 g/m*3 22.2 C 0 km/h
1578 14-07-2020 11:25:00 22.3 C 10.47 g/m*3 22.3 C 0 km/h
1579 14-07-2020 11:30:00 22.4 C 10.33 g/m*3 22.4 C 0 km/h
1580 14-07-2020 11:35:00 22.6 C 10.65 g/m*3 22.6 C 0 km/h
1581 14-07-2020 11:40:00 22.8 C 10.16 g/m*3 22.8 C 6.4 km/h
1582 14-07-2020 11:45:00 22.9 C 10.01 g/m*3 22.9 C 4.8 km/h
1583 14-07-2020 11:50:00 23.1 C 9.92 g/m*3 23.1 C 4.8 km/h
1584 14-07-2020 11:55:00 23.2 C 10.19 g/m*3 23.2 C 8.1 km/h
1585 14-07-2020 12:00:00 23.4 C 10.09 g/m*3 23.4 C 8.1 km/h
1586 14-07-2020 12:05:00 23.5 C 9.94 g/m*3 23.5 C 9.7 km/h
1587 14-07-2020 12:10:00 23.5 C 9.94 g/m*3 23.5 C 8.1 km/h
1588 14-07-2020 12:15:00 23.6 C 10 g/m*3 23.6 C 8.1 km/h
1589 14-07-2020 12:20:00 23.6 C 9.78 g/m*3 23.6 C 1.6 km/h
1590 14-07-2020 12:25:00 23.6 C 10 g/m*3 23.6 C 6.4 km/h
1591 14-07-2020 12:30:00 23.8 C 10.11 g/m*3 23.8 C 6.4 km/h
1592 14-07-2020 12:35:00 23.9 C 9.95 g/m*3 23.9 C 4.8 km/h
1593 14-07-2020 12:40:00 24.1 C 10.06 g/m*3 24.1 C 6.4 km/h
1594 14-07-2020 12:45:00 24.2 C 9.9 g/m*3 24.2 C 11.3 km/h
1595 14-07-2020 12:50:00 24.4 C 9.57 g/m*3 24.4 C 9.7 km/h
1596 14-07-2020 12:55:00 24.6 C 9.9 g/m*3 24.6 C 4.8 km/h
1597 14-07-2020 13:00:00 24.9 C 8.93 g/m*3 24.9 C 9.7 km/h
1598 14-07-2020 13:05:00 25.2 C 9.08 g/m*3 25.2 C 11.3 km/h
1599 14-07-2020 13:10:00 25.5 C 9.47 g/m*3 25.5 C 9.7 km/h
1600 14-07-2020 13:15:00 25.6 C 9.05 g/m*3 25.6 C 14.5 km/h
Sensor: Nr:Datum:Temp:Abs-Feuchte:Windchill:Wind:
Aussen-T/F 1601 14-07-2020 13:20:00 25.7 C 9.58 g/m*3 25.7 C 6.4 km/h
1602 14-07-2020 13:25:00 25.8 C 9.63 g/m*3 25.8 C 6.4 km/h
1603 14-07-2020 13:30:00 25.9 C 9.2 g/m*3 25.9 C 9.7 km/h
1604 14-07-2020 13:35:00 25.9 C 9.44 g/m*3 25.9 C 6.4 km/h
1605 14-07-2020 13:40:00 25.9 C 9.2 g/m*3 25.9 C 9.7 km/h
1606 14-07-2020 13:45:00 25.9 C 9.44 g/m*3 25.9 C 8.1 km/h
1607 14-07-2020 13:50:00 25.8 C 9.15 g/m*3 25.8 C 9.7 km/h
1608 14-07-2020 13:55:00 25.8 C 9.39 g/m*3 25.8 C 11.3 km/h
1609 14-07-2020 14:00:00 25.8 C 9.63 g/m*3 25.8 C 9.7 km/h
1610 14-07-2020 14:05:00 25.9 C 9.93 g/m*3 25.9 C 9.7 km/h
1611 14-07-2020 14:10:00 25.8 C 9.39 g/m*3 25.8 C 11.3 km/h
1612 14-07-2020 14:15:00 25.7 C 9.34 g/m*3 25.7 C 6.4 km/h
1613 14-07-2020 14:20:00 25.7 C 9.34 g/m*3 25.7 C 12.9 km/h
1614 14-07-2020 14:25:00 25.7 C 9.34 g/m*3 25.7 C 8.1 km/h
1615 14-07-2020 14:30:00 25.7 C 9.1 g/m*3 25.7 C 6.4 km/h
1616 14-07-2020 14:35:00 25.7 C 9.34 g/m*3 25.7 C 6.4 km/h
1617 14-07-2020 14:40:00 25.7 C 9.34 g/m*3 25.7 C 11.3 km/h
1618 14-07-2020 14:45:00 25.7 C 9.34 g/m*3 25.7 C 16.1 km/h
1619 14-07-2020 14:50:00 25.7 C 9.58 g/m*3 25.7 C 9.7 km/h
1620 14-07-2020 14:55:00 25.6 C 9.76 g/m*3 25.6 C 12.9 km/h
1621 14-07-2020 15:00:00 25.5 C 9.71 g/m*3 25.5 C 6.4 km/h
1622 14-07-2020 15:05:00 25.4 C 9.65 g/m*3 25.4 C 8.1 km/h
1623 14-07-2020 15:10:00 25.3 C 9.6 g/m*3 25.3 C 8.1 km/h
1624 14-07-2020 15:15:00 25.3 C 9.36 g/m*3 25.3 C 9.7 km/h
1625 14-07-2020 15:20:00 25.3 C 9.36 g/m*3 25.3 C 8.1 km/h
Sensor: Nr:Datum:Temp:Abs-Feuchte:Windchill:Wind:
Aussen-T/F 1626 14-07-2020 15:25:00 25.3 C 9.6 g/m*3 25.3 C 8.1 km/h
1627 14-07-2020 15:30:00 25.3 C 9.6 g/m*3 25.3 C 6.4 km/h
1628 14-07-2020 15:35:00 25.3 C 9.36 g/m*3 25.3 C 8.1 km/h
1629 14-07-2020 15:40:00 25.3 C 9.6 g/m*3 25.3 C 8.1 km/h
1630 14-07-2020 15:45:00 25.4 C 9.42 g/m*3 25.4 C 4.8 km/h
1631 14-07-2020 15:50:00 25.4 C 9.42 g/m*3 25.4 C 4.8 km/h
1632 14-07-2020 15:55:00 25.4 C 9.65 g/m*3 25.4 C 9.7 km/h
1633 14-07-2020 16:00:00 25.5 C 9.47 g/m*3 25.5 C 6.4 km/h
1634 14-07-2020 16:05:00 25.6 C 9.52 g/m*3 25.6 C 6.4 km/h
1635 14-07-2020 16:10:00 25.7 C 10.06 g/m*3 25.7 C 6.4 km/h
1636 14-07-2020 16:15:00 25.8 C 10.11 g/m*3 25.8 C 6.4 km/h
1637 14-07-2020 16:20:00 25.8 C 9.87 g/m*3 25.8 C 6.4 km/h
1638 14-07-2020 16:25:00 25.7 C 10.29 g/m*3 25.7 C 11.3 km/h
1639 14-07-2020 16:30:00 25.7 C 10.29 g/m*3 25.7 C 9.7 km/h
1640 14-07-2020 16:35:00 25.7 C 10.29 g/m*3 25.7 C 12.9 km/h
1641 14-07-2020 16:40:00 25.6 C 10.24 g/m*3 25.6 C 11.3 km/h
1642 14-07-2020 16:45:00 25.6 C 10.24 g/m*3 25.6 C 8.1 km/h
1643 14-07-2020 16:50:00 25.6 C 10 g/m*3 25.6 C 14.5 km/h
1644 14-07-2020 16:55:00 25.4 C 10.12 g/m*3 25.4 C 12.9 km/h
1645 14-07-2020 17:00:00 25.4 C 10.36 g/m*3 25.4 C 12.9 km/h
1646 14-07-2020 17:05:00 25.4 C 10.36 g/m*3 25.4 C 11.3 km/h
1647 14-07-2020 17:10:00 25.6 C 10.71 g/m*3 25.6 C 11.3 km/h
1648 14-07-2020 17:15:00 25.7 C 10.77 g/m*3 25.7 C 16.1 km/h
1649 14-07-2020 17:20:00 25.7 C 11.01 g/m*3 25.7 C 16.1 km/h
1650 14-07-2020 17:25:00 25.3 C 10.77 g/m*3 25.3 C 14.5 km/h
Sensor: Nr:Datum:Temp:Abs-Feuchte:Windchill:Wind:
Aussen-T/F 1651 14-07-2020 17:30:00 24.9 C 10.53 g/m*3 24.9 C 14.5 km/h
1652 14-07-2020 17:35:00 24.6 C 10.58 g/m*3 24.6 C 12.9 km/h
1653 14-07-2020 17:40:00 24.3 C 10.62 g/m*3 24.3 C 20.9 km/h
1654 14-07-2020 17:45:00 24.1 C 10.5 g/m*3 24.1 C 12.9 km/h
1655 14-07-2020 17:50:00 23.7 C 10.69 g/m*3 23.7 C 17.7 km/h
1656 14-07-2020 17:55:00 23.3 C 10.66 g/m*3 23.3 C 25.7 km/h
1657 14-07-2020 18:00:00 22.9 C 10.83 g/m*3 22.9 C 17.7 km/h
1658 14-07-2020 18:05:00 22.6 C 10.65 g/m*3 22.6 C 14.5 km/h
1659 14-07-2020 18:10:00 22.4 C 10.53 g/m*3 22.4 C 16.1 km/h
1660 14-07-2020 18:15:00 22.1 C 10.54 g/m*3 22.1 C 14.5 km/h
1661 14-07-2020 18:20:00 21.8 C 10.55 g/m*3 21.8 C 16.1 km/h
1662 14-07-2020 18:25:00 21.7 C 10.87 g/m*3 21.7 C 11.3 km/h
1663 14-07-2020 18:30:00 21.7 C 10.68 g/m*3 21.7 C 12.9 km/h
1664 14-07-2020 18:35:00 21.7 C 10.49 g/m*3 21.7 C 17.7 km/h
1665 14-07-2020 18:40:00 21.5 C 10.37 g/m*3 21.5 C 12.9 km/h
1666 14-07-2020 18:45:00 21.3 C 10.44 g/m*3 21.3 C 11.3 km/h
1667 14-07-2020 18:50:00 21.1 C 10.5 g/m*3 21.1 C 14.5 km/h
1668 14-07-2020 18:55:00 20.9 C 10.56 g/m*3 20.9 C 12.9 km/h
1669 14-07-2020 19:00:00 20.7 C 10.62 g/m*3 20.7 C 9.7 km/h
1670 14-07-2020 19:05:00 20.5 C 10.85 g/m*3 20.5 C 8.1 km/h
1671 14-07-2020 19:10:00 20.3 C 10.9 g/m*3 20.3 C 9.7 km/h
1672 14-07-2020 19:15:00 20.1 C 10.95 g/m*3 20.1 C 9.7 km/h
1673 14-07-2020 19:20:00 20 C 11.06 g/m*3 20 C 11.3 km/h
1674 14-07-2020 19:25:00 19.9 C 11 g/m*3 19.9 C 11.3 km/h
1675 14-07-2020 19:30:00 19.8 C 11.1 g/m*3 19.8 C 6.4 km/h
Sensor: Nr:Datum:Temp:Abs-Feuchte:Windchill:Wind:
Aussen-T/F 1676 14-07-2020 19:35:00 19.8 C 11.27 g/m*3 19.8 C 6.4 km/h
1677 14-07-2020 19:40:00 19.7 C 11.21 g/m*3 19.7 C 8.1 km/h
1678 14-07-2020 19:45:00 19.7 C 11.21 g/m*3 19.7 C 6.4 km/h
1679 14-07-2020 19:50:00 19.6 C 11.31 g/m*3 19.6 C 6.4 km/h
1680 14-07-2020 19:55:00 19.5 C 11.58 g/m*3 19.5 C 6.4 km/h
1681 14-07-2020 20:00:00 19.3 C 11.61 g/m*3 19.3 C 11.3 km/h
1682 14-07-2020 20:05:00 19.1 C 11.64 g/m*3 19.1 C 8.1 km/h
1683 14-07-2020 20:10:00 18.9 C 11.66 g/m*3 18.9 C 11.3 km/h
1684 14-07-2020 20:15:00 18.8 C 11.76 g/m*3 18.8 C 8.1 km/h
1685 14-07-2020 20:20:00 18.7 C 11.85 g/m*3 18.7 C 4.8 km/h
1686 14-07-2020 20:25:00 18.7 C 12.17 g/m*3 18.7 C 6.4 km/h
1687 14-07-2020 20:30:00 18.6 C 12.1 g/m*3 18.6 C 6.4 km/h
1688 14-07-2020 20:35:00 18.4 C 12.11 g/m*3 18.4 C 4.8 km/h
1689 14-07-2020 20:40:00 18.3 C 12.2 g/m*3 18.3 C 6.4 km/h
1690 14-07-2020 20:45:00 18.2 C 12.28 g/m*3 18.2 C 4.8 km/h
1691 14-07-2020 20:50:00 18.1 C 12.36 g/m*3 18.1 C 4.8 km/h
1692 14-07-2020 20:55:00 18 C 12.44 g/m*3 18 C 4.8 km/h
1693 14-07-2020 21:00:00 17.9 C 12.52 g/m*3 17.9 C 4.8 km/h
1694 14-07-2020 21:05:00 17.8 C 12.6 g/m*3 17.8 C 0 km/h
1695 14-07-2020 21:10:00 17.8 C 12.6 g/m*3 17.8 C 3.2 km/h
1696 14-07-2020 21:15:00 17.7 C 12.67 g/m*3 17.7 C 0 km/h
1697 14-07-2020 21:20:00 17.6 C 12.6 g/m*3 17.6 C 0 km/h
1698 14-07-2020 21:25:00 17.6 C 12.6 g/m*3 17.6 C 1.6 km/h
1699 14-07-2020 21:30:00 17.4 C 12.6 g/m*3 17.4 C 0 km/h
1700 14-07-2020 21:35:00 17.3 C 12.67 g/m*3 17.3 C 0 km/h
Sensor: Nr:Datum:Temp:Abs-Feuchte:Windchill:Wind:
Aussen-T/F 1701 14-07-2020 21:40:00 17.2 C 12.59 g/m*3 17.2 C 0 km/h
1702 14-07-2020 21:45:00 17.1 C 12.52 g/m*3 17.1 C 1.6 km/h
1703 14-07-2020 21:50:00 17 C 12.59 g/m*3 17 C 1.6 km/h
1704 14-07-2020 21:55:00 16.9 C 12.51 g/m*3 16.9 C 0 km/h
1705 14-07-2020 22:00:00 16.8 C 12.44 g/m*3 16.8 C 0 km/h
1706 14-07-2020 22:05:00 16.7 C 12.36 g/m*3 16.7 C 0 km/h
1707 14-07-2020 22:10:00 16.6 C 12.43 g/m*3 16.6 C 0 km/h
1708 14-07-2020 22:15:00 16.5 C 12.36 g/m*3 16.5 C 1.6 km/h
1709 14-07-2020 22:20:00 16.4 C 12.28 g/m*3 16.4 C 3.2 km/h
1710 14-07-2020 22:25:00 16.4 C 12.28 g/m*3 16.4 C 3.2 km/h
1711 14-07-2020 22:30:00 16.3 C 12.21 g/m*3 16.3 C 3.2 km/h
1712 14-07-2020 22:35:00 16.3 C 12.21 g/m*3 16.3 C 3.2 km/h
1713 14-07-2020 22:40:00 16.3 C 12.35 g/m*3 16.3 C 3.2 km/h
1714 14-07-2020 22:45:00 16.2 C 12.27 g/m*3 16.2 C 3.2 km/h
1715 14-07-2020 22:50:00 16.2 C 12.27 g/m*3 16.2 C 0 km/h
1716 14-07-2020 22:55:00 16.1 C 12.2 g/m*3 16.1 C 1.6 km/h
1717 14-07-2020 23:00:00 16.1 C 12.2 g/m*3 16.1 C 0 km/h
1718 14-07-2020 23:05:00 16 C 12.13 g/m*3 16 C 0 km/h
1719 14-07-2020 23:10:00 15.9 C 12.05 g/m*3 15.9 C 1.6 km/h
1720 14-07-2020 23:15:00 15.9 C 12.05 g/m*3 15.9 C 1.6 km/h
1721 14-07-2020 23:20:00 15.9 C 12.05 g/m*3 15.9 C 0 km/h
1722 14-07-2020 23:25:00 15.9 C 12.05 g/m*3 15.9 C 0 km/h
1723 14-07-2020 23:30:00 15.8 C 11.98 g/m*3 15.8 C 3.2 km/h
1724 14-07-2020 23:35:00 15.8 C 11.98 g/m*3 15.8 C 3.2 km/h
1725 14-07-2020 23:40:00 15.7 C 11.91 g/m*3 15.7 C 3.2 km/h
Sensor: Nr:Datum:Temp:Abs-Feuchte:Windchill:Wind:
Aussen-T/F 1726 14-07-2020 23:45:00 15.7 C 11.91 g/m*3 15.7 C 0 km/h
1727 14-07-2020 23:50:00 15.7 C 11.91 g/m*3 15.7 C 0 km/h
1728 14-07-2020 23:55:00 15.7 C 12.04 g/m*3 15.7 C 0 km/h
1729 15-07-2020 00:00:00 15.7 C 11.91 g/m*3 15.7 C 0 km/h
1730 15-07-2020 00:05:00 15.7 C 11.91 g/m*3 15.7 C 0 km/h
1731 15-07-2020 00:10:00 15.7 C 11.91 g/m*3 15.7 C 0 km/h
1732 15-07-2020 00:15:00 15.7 C 11.91 g/m*3 15.7 C 0 km/h
1733 15-07-2020 00:20:00 15.7 C 11.91 g/m*3 15.7 C 0 km/h
1734 15-07-2020 00:25:00 15.7 C 11.91 g/m*3 15.7 C 0 km/h
1735 15-07-2020 00:30:00 15.7 C 11.91 g/m*3 15.7 C 0 km/h
1736 15-07-2020 00:35:00 15.7 C 11.91 g/m*3 15.7 C 0 km/h
1737 15-07-2020 00:40:00 15.7 C 11.91 g/m*3 15.7 C 0 km/h
1738 15-07-2020 00:45:00 15.7 C 11.91 g/m*3 15.7 C 0 km/h
1739 15-07-2020 00:50:00 15.7 C 11.91 g/m*3 15.7 C 0 km/h
1740 15-07-2020 00:55:00 15.8 C 11.98 g/m*3 15.8 C 0 km/h
1741 15-07-2020 01:00:00 15.8 C 11.85 g/m*3 15.8 C 0 km/h
1742 15-07-2020 01:05:00 15.8 C 11.71 g/m*3 15.8 C 0 km/h
1743 15-07-2020 01:10:00 15.8 C 11.71 g/m*3 15.8 C 0 km/h
1744 15-07-2020 01:15:00 15.8 C 11.71 g/m*3 15.8 C 0 km/h
1745 15-07-2020 01:20:00 15.9 C 11.78 g/m*3 15.9 C 0 km/h
1746 15-07-2020 01:25:00 15.9 C 11.51 g/m*3 15.9 C 6.4 km/h
1747 15-07-2020 01:30:00 16 C 11.58 g/m*3 16 C 1.6 km/h
1748 15-07-2020 01:35:00 16.1 C 11.51 g/m*3 16.1 C 6.4 km/h
1749 15-07-2020 01:40:00 16.1 C 11.51 g/m*3 16.1 C 3.2 km/h
1750 15-07-2020 01:45:00 16.2 C 11.58 g/m*3 16.2 C 4.8 km/h
Sensor: Nr:Datum:Temp:Abs-Feuchte:Windchill:Wind:
Aussen-T/F 1751 15-07-2020 01:50:00 16.2 C 11.58 g/m*3 16.2 C 6.4 km/h
1752 15-07-2020 01:55:00 16.2 C 11.58 g/m*3 16.2 C 1.6 km/h
1753 15-07-2020 02:00:00 16.1 C 11.65 g/m*3 16.1 C 4.8 km/h
1754 15-07-2020 02:05:00 16.1 C 11.65 g/m*3 16.1 C 6.4 km/h
1755 15-07-2020 02:10:00 16.1 C 11.65 g/m*3 16.1 C 3.2 km/h
1756 15-07-2020 02:15:00 16.1 C 11.65 g/m*3 16.1 C 4.8 km/h
1757 15-07-2020 02:20:00 16.1 C 11.51 g/m*3 16.1 C 4.8 km/h
1758 15-07-2020 02:25:00 16.1 C 11.51 g/m*3 16.1 C 4.8 km/h
1759 15-07-2020 02:30:00 16.2 C 11.58 g/m*3 16.2 C 3.2 km/h
1760 15-07-2020 02:35:00 16.2 C 11.58 g/m*3 16.2 C 6.4 km/h
1761 15-07-2020 02:40:00 16.2 C 11.58 g/m*3 16.2 C 3.2 km/h
1762 15-07-2020 02:45:00 16.2 C 11.72 g/m*3 16.2 C 4.8 km/h
1763 15-07-2020 02:50:00 16.2 C 11.72 g/m*3 16.2 C 4.8 km/h
1764 15-07-2020 02:55:00 16.2 C 11.86 g/m*3 16.2 C 3.2 km/h
1765 15-07-2020 03:00:00 16.1 C 11.79 g/m*3 16.1 C 3.2 km/h
1766 15-07-2020 03:05:00 16 C 11.72 g/m*3 16 C 8.1 km/h
1767 15-07-2020 03:10:00 15.9 C 11.78 g/m*3 15.9 C 3.2 km/h
1768 15-07-2020 03:15:00 15.9 C 11.78 g/m*3 15.9 C 8.1 km/h
1769 15-07-2020 03:20:00 15.8 C 11.71 g/m*3 15.8 C 6.4 km/h
1770 15-07-2020 03:25:00 15.8 C 11.71 g/m*3 15.8 C 6.4 km/h
1771 15-07-2020 03:30:00 15.8 C 11.71 g/m*3 15.8 C 4.8 km/h
1772 15-07-2020 03:35:00 15.8 C 11.71 g/m*3 15.8 C 8.1 km/h
1773 15-07-2020 03:40:00 15.8 C 11.85 g/m*3 15.8 C 3.2 km/h
1774 15-07-2020 03:45:00 15.8 C 11.85 g/m*3 15.8 C 3.2 km/h
1775 15-07-2020 03:50:00 15.8 C 11.85 g/m*3 15.8 C 0 km/h
Sensor: Nr:Datum:Temp:Abs-Feuchte:Windchill:Wind:
Aussen-T/F 1776 15-07-2020 03:55:00 15.8 C 11.98 g/m*3 15.8 C 0 km/h
1777 15-07-2020 04:00:00 15.8 C 11.98 g/m*3 15.8 C 0 km/h
1778 15-07-2020 04:05:00 15.7 C 12.04 g/m*3 15.7 C 3.2 km/h
1779 15-07-2020 04:10:00 15.7 C 12.04 g/m*3 15.7 C 0 km/h
1780 15-07-2020 04:15:00 15.6 C 11.97 g/m*3 15.6 C 0 km/h
1781 15-07-2020 04:20:00 15.6 C 12.1 g/m*3 15.6 C 0 km/h
1782 15-07-2020 04:25:00 15.5 C 12.03 g/m*3 15.5 C 1.6 km/h
1783 15-07-2020 04:30:00 15.4 C 11.96 g/m*3 15.4 C 0 km/h
1784 15-07-2020 04:35:00 15.4 C 12.09 g/m*3 15.4 C 0 km/h
1785 15-07-2020 04:40:00 15.3 C 12.01 g/m*3 15.3 C 0 km/h
1786 15-07-2020 04:45:00 15.3 C 12.01 g/m*3 15.3 C 1.6 km/h
1787 15-07-2020 04:50:00 15.2 C 11.94 g/m*3 15.2 C 0 km/h
1788 15-07-2020 04:55:00 15.2 C 12.07 g/m*3 15.2 C 0 km/h
1789 15-07-2020 05:00:00 15.2 C 12.07 g/m*3 15.2 C 1.6 km/h
1790 15-07-2020 05:05:00 15.2 C 12.07 g/m*3 15.2 C 1.6 km/h
1791 15-07-2020 05:10:00 15.1 C 12 g/m*3 15.1 C 1.6 km/h
1792 15-07-2020 05:15:00 15.1 C 12 g/m*3 15.1 C 1.6 km/h
1793 15-07-2020 05:20:00 15.1 C 12.13 g/m*3 15.1 C 3.2 km/h
1794 15-07-2020 05:25:00 15.1 C 12.13 g/m*3 15.1 C 1.6 km/h
1795 15-07-2020 05:30:00 15.1 C 12.13 g/m*3 15.1 C 3.2 km/h
1796 15-07-2020 05:35:00 15.1 C 12.13 g/m*3 15.1 C 1.6 km/h
1797 15-07-2020 05:40:00 15.1 C 12.13 g/m*3 15.1 C 0 km/h
1798 15-07-2020 05:45:00 15.1 C 12.13 g/m*3 15.1 C 0 km/h
1799 15-07-2020 05:50:00 15.1 C 12.13 g/m*3 15.1 C 0 km/h
1800 15-07-2020 05:55:00 15.1 C 12.13 g/m*3 15.1 C 0 km/h
Sensor: Nr:Datum:Temp:Abs-Feuchte:Windchill:Wind:
Aussen-T/F 1801 15-07-2020 06:00:00 15.1 C 12.13 g/m*3 15.1 C 3.2 km/h
1802 15-07-2020 06:05:00 15 C 12.05 g/m*3 15 C 0 km/h
1803 15-07-2020 06:10:00 15 C 12.05 g/m*3 15 C 0 km/h
1804 15-07-2020 06:15:00 15 C 12.05 g/m*3 15 C 1.6 km/h
1805 15-07-2020 06:20:00 14.9 C 11.98 g/m*3 14.9 C 3.2 km/h
1806 15-07-2020 06:25:00 14.8 C 11.91 g/m*3 14.8 C 3.2 km/h
1807 15-07-2020 06:30:00 14.8 C 11.91 g/m*3 14.8 C 1.6 km/h
1808 15-07-2020 06:35:00 14.8 C 11.91 g/m*3 14.8 C 3.2 km/h
1809 15-07-2020 06:40:00 14.7 C 11.83 g/m*3 14.7 C 1.6 km/h
1810 15-07-2020 06:45:00 14.7 C 11.83 g/m*3 14.7 C 4.8 km/h
1811 15-07-2020 06:50:00 14.6 C 11.76 g/m*3 14.6 C 8.1 km/h
1812 15-07-2020 06:55:00 14.6 C 11.76 g/m*3 14.6 C 4.8 km/h
1813 15-07-2020 07:00:00 14.6 C 11.89 g/m*3 14.6 C 3.2 km/h
1814 15-07-2020 07:05:00 14.5 C 11.69 g/m*3 14.5 C 3.2 km/h
1815 15-07-2020 07:10:00 14.6 C 11.89 g/m*3 14.6 C 0 km/h
1816 15-07-2020 07:15:00 14.6 C 11.89 g/m*3 14.6 C 0 km/h
1817 15-07-2020 07:20:00 14.7 C 11.96 g/m*3 14.7 C 1.6 km/h
1818 15-07-2020 07:25:00 14.6 C 11.89 g/m*3 14.6 C 0 km/h
1819 15-07-2020 07:30:00 14.6 C 11.89 g/m*3 14.6 C 1.6 km/h
1820 15-07-2020 07:35:00 14.6 C 11.89 g/m*3 14.6 C 0 km/h
1821 15-07-2020 07:40:00 14.6 C 11.89 g/m*3 14.6 C 0 km/h
1822 15-07-2020 07:45:00 14.6 C 11.89 g/m*3 14.6 C 1.6 km/h
1823 15-07-2020 07:50:00 14.6 C 11.89 g/m*3 14.6 C 0 km/h
1824 15-07-2020 07:55:00 14.6 C 11.89 g/m*3 14.6 C 1.6 km/h
1825 15-07-2020 08:00:00 14.7 C 11.96 g/m*3 14.7 C 0 km/h
Sensor: Nr:Datum:Temp:Abs-Feuchte:Windchill:Wind:
Aussen-T/F 1826 15-07-2020 08:05:00 14.8 C 12.03 g/m*3 14.8 C 4.8 km/h
1827 15-07-2020 08:10:00 14.8 C 12.03 g/m*3 14.8 C 0 km/h
1828 15-07-2020 08:15:00 14.8 C 12.03 g/m*3 14.8 C 6.4 km/h
1829 15-07-2020 08:20:00 14.8 C 11.91 g/m*3 14.8 C 8.1 km/h
1830 15-07-2020 08:25:00 14.9 C 11.98 g/m*3 14.9 C 4.8 km/h
1831 15-07-2020 08:30:00 14.9 C 11.98 g/m*3 14.9 C 3.2 km/h
1832 15-07-2020 08:35:00 14.8 C 11.78 g/m*3 14.8 C 6.4 km/h
1833 15-07-2020 08:40:00 14.8 C 11.78 g/m*3 14.8 C 4.8 km/h
1834 15-07-2020 08:45:00 14.8 C 11.65 g/m*3 14.8 C 8.1 km/h
1835 15-07-2020 08:50:00 14.8 C 11.65 g/m*3 14.8 C 9.7 km/h
1836 15-07-2020 08:55:00 14.8 C 11.4 g/m*3 14.8 C 9.7 km/h
1837 15-07-2020 09:00:00 14.9 C 11.47 g/m*3 14.9 C 9.7 km/h
1838 15-07-2020 09:05:00 15.2 C 11.81 g/m*3 15.2 C 4.8 km/h
1839 15-07-2020 09:10:00 15.3 C 11.62 g/m*3 15.3 C 11.3 km/h
1840 15-07-2020 09:15:00 15.3 C 11.49 g/m*3 15.3 C 12.9 km/h
1841 15-07-2020 09:20:00 15.3 C 11.36 g/m*3 15.3 C 8.1 km/h
1842 15-07-2020 09:25:00 15.4 C 11.43 g/m*3 15.4 C 1.6 km/h
1843 15-07-2020 09:30:00 15.6 C 11.3 g/m*3 15.6 C 11.3 km/h
1844 15-07-2020 09:35:00 15.7 C 11.24 g/m*3 15.7 C 11.3 km/h
1845 15-07-2020 09:40:00 15.8 C 11.17 g/m*3 15.8 C 12.9 km/h
1846 15-07-2020 09:45:00 15.8 C 11.31 g/m*3 15.8 C 8.1 km/h
1847 15-07-2020 09:50:00 15.8 C 10.77 g/m*3 15.8 C 11.3 km/h
1848 15-07-2020 09:55:00 15.8 C 11.04 g/m*3 15.8 C 12.9 km/h
1849 15-07-2020 10:00:00 15.8 C 11.04 g/m*3 15.8 C 6.4 km/h
1850 15-07-2020 10:05:00 15.8 C 10.9 g/m*3 15.8 C 14.5 km/h
Sensor: Nr:Datum:Temp:Abs-Feuchte:Windchill:Wind:
Aussen-T/F 1851 15-07-2020 10:10:00 15.9 C 10.7 g/m*3 15.9 C 14.5 km/h
1852 15-07-2020 10:15:00 15.9 C 10.43 g/m*3 15.9 C 8.1 km/h
1853 15-07-2020 10:20:00 15.9 C 10.43 g/m*3 15.9 C 12.9 km/h
1854 15-07-2020 10:25:00 15.9 C 10.43 g/m*3 15.9 C 9.7 km/h
1855 15-07-2020 10:30:00 16.2 C 10.89 g/m*3 16.2 C 8.1 km/h
1856 15-07-2020 10:35:00 16.4 C 10.47 g/m*3 16.4 C 14.5 km/h
1857 15-07-2020 10:40:00 16.8 C 10.44 g/m*3 16.8 C 14.5 km/h
1858 15-07-2020 10:45:00 16.9 C 10.21 g/m*3 16.9 C 9.7 km/h
1859 15-07-2020 10:50:00 17 C 9.98 g/m*3 17 C 12.9 km/h
1860 15-07-2020 10:55:00 17.2 C 10.25 g/m*3 17.2 C 11.3 km/h
1861 15-07-2020 11:00:00 17.3 C 10.02 g/m*3 17.3 C 11.3 km/h
1862 15-07-2020 11:05:00 17.4 C 10.08 g/m*3 17.4 C 17.7 km/h
1863 15-07-2020 11:10:00 17.5 C 10.14 g/m*3 17.5 C 17.7 km/h
1864 15-07-2020 11:15:00 17.7 C 10.11 g/m*3 17.7 C 9.7 km/h
1865 15-07-2020 11:20:00 17.7 C 9.96 g/m*3 17.7 C 12.9 km/h
1866 15-07-2020 11:25:00 17.7 C 9.81 g/m*3 17.7 C 11.3 km/h
1867 15-07-2020 11:30:00 17.8 C 10.02 g/m*3 17.8 C 11.3 km/h
1868 15-07-2020 11:35:00 17.9 C 9.92 g/m*3 17.9 C 11.3 km/h
1869 15-07-2020 11:40:00 18.1 C 9.89 g/m*3 18.1 C 11.3 km/h
1870 15-07-2020 11:45:00 18.1 C 9.89 g/m*3 18.1 C 11.3 km/h
1871 15-07-2020 11:50:00 18.2 C 9.79 g/m*3 18.2 C 9.7 km/h
1872 15-07-2020 11:55:00 18.2 C 9.64 g/m*3 18.2 C 11.3 km/h
1873 15-07-2020 12:00:00 18.1 C 9.43 g/m*3 18.1 C 9.7 km/h
1874 15-07-2020 12:05:00 18.2 C 9.79 g/m*3 18.2 C 9.7 km/h
1875 15-07-2020 12:10:00 18.4 C 9.28 g/m*3 18.4 C 12.9 km/h
Sensor: Nr:Datum:Temp:Abs-Feuchte:Windchill:Wind:
Aussen-T/F 1876 15-07-2020 12:15:00 18.3 C 9.54 g/m*3 18.3 C 6.4 km/h
1877 15-07-2020 12:20:00 18.3 C 9.54 g/m*3 18.3 C 17.7 km/h
1878 15-07-2020 12:25:00 18.3 C 9.54 g/m*3 18.3 C 16.1 km/h
1879 15-07-2020 12:30:00 18.3 C 9.38 g/m*3 18.3 C 19.3 km/h
1880 15-07-2020 12:35:00 18.5 C 9.65 g/m*3 18.5 C 12.9 km/h
1881 15-07-2020 12:40:00 18.6 C 9.39 g/m*3 18.6 C 12.9 km/h
1882 15-07-2020 12:45:00 18.6 C 9.55 g/m*3 18.6 C 14.5 km/h
1883 15-07-2020 12:50:00 18.6 C 9.23 g/m*3 18.6 C 20.9 km/h
1884 15-07-2020 12:55:00 18.6 C 9.55 g/m*3 18.6 C 11.3 km/h
1885 15-07-2020 13:00:00 18.7 C 9.61 g/m*3 18.7 C 9.7 km/h
1886 15-07-2020 13:05:00 18.9 C 9.72 g/m*3 18.9 C 11.3 km/h
1887 15-07-2020 13:10:00 19.2 C 9.56 g/m*3 19.2 C 9.7 km/h
1888 15-07-2020 13:15:00 19.1 C 9.51 g/m*3 19.1 C 16.1 km/h
1889 15-07-2020 13:20:00 19 C 9.61 g/m*3 19 C 19.3 km/h
1890 15-07-2020 13:25:00 19 C 9.45 g/m*3 19 C 16.1 km/h
1891 15-07-2020 13:30:00 19 C 9.61 g/m*3 19 C 12.9 km/h
1892 15-07-2020 13:35:00 19.1 C 9.34 g/m*3 19.1 C 9.7 km/h
1893 15-07-2020 13:40:00 19.3 C 9.95 g/m*3 19.3 C 11.3 km/h
1894 15-07-2020 13:45:00 19.7 C 9.51 g/m*3 19.7 C 16.1 km/h
1895 15-07-2020 13:50:00 19.7 C 9.51 g/m*3 19.7 C 8.1 km/h
1896 15-07-2020 13:55:00 19.7 C 9.68 g/m*3 19.7 C 14.5 km/h
1897 15-07-2020 14:00:00 19.9 C 9.62 g/m*3 19.9 C 14.5 km/h
1898 15-07-2020 14:05:00 19.9 C 9.62 g/m*3 19.9 C 12.9 km/h
1899 15-07-2020 14:10:00 19.9 C 9.62 g/m*3 19.9 C 8.1 km/h
1900 15-07-2020 14:15:00 19.9 C 9.62 g/m*3 19.9 C 16.1 km/h
Sensor: Nr:Datum:Temp:Abs-Feuchte:Windchill:Wind:
Aussen-T/F 1901 15-07-2020 14:20:00 19.9 C 9.62 g/m*3 19.9 C 12.9 km/h
1902 15-07-2020 14:25:00 19.8 C 9.39 g/m*3 19.8 C 12.9 km/h
1903 15-07-2020 14:30:00 19.8 C 9.74 g/m*3 19.8 C 11.3 km/h
1904 15-07-2020 14:35:00 20 C 9.68 g/m*3 20 C 17.7 km/h
1905 15-07-2020 14:40:00 20.2 C 9.27 g/m*3 20.2 C 16.1 km/h
1906 15-07-2020 14:45:00 20.4 C 9.38 g/m*3 20.4 C 12.9 km/h
1907 15-07-2020 14:50:00 20.4 C 9.38 g/m*3 20.4 C 12.9 km/h
1908 15-07-2020 14:55:00 20.5 C 9.61 g/m*3 20.5 C 16.1 km/h
1909 15-07-2020 15:00:00 20.4 C 9.38 g/m*3 20.4 C 17.7 km/h
1910 15-07-2020 15:05:00 20.6 C 9.66 g/m*3 20.6 C 17.7 km/h
1911 15-07-2020 15:10:00 20.9 C 9.47 g/m*3 20.9 C 14.5 km/h
1912 15-07-2020 15:15:00 20.9 C 9.47 g/m*3 20.9 C 12.9 km/h
1913 15-07-2020 15:20:00 20.7 C 9.54 g/m*3 20.7 C 9.7 km/h
1914 15-07-2020 15:25:00 20.8 C 9.42 g/m*3 20.8 C 20.9 km/h
1915 15-07-2020 15:30:00 21.2 C 10.01 g/m*3 21.2 C 17.7 km/h
1916 15-07-2020 15:35:00 21.3 C 9.51 g/m*3 21.3 C 8.1 km/h
1917 15-07-2020 15:40:00 21.3 C 9.51 g/m*3 21.3 C 14.5 km/h
1918 15-07-2020 15:45:00 21 C 9.71 g/m*3 21 C 14.5 km/h
1919 15-07-2020 15:50:00 21 C 9.71 g/m*3 21 C 9.7 km/h
1920 15-07-2020 15:55:00 21.2 C 9.82 g/m*3 21.2 C 12.9 km/h
1921 15-07-2020 16:00:00 21.7 C 9.73 g/m*3 21.7 C 11.3 km/h
1922 15-07-2020 16:05:00 22 C 9.7 g/m*3 22 C 17.7 km/h
1923 15-07-2020 16:10:00 21.8 C 9.59 g/m*3 21.8 C 14.5 km/h
1924 15-07-2020 16:15:00 21.6 C 10.05 g/m*3 21.6 C 11.3 km/h
1925 15-07-2020 16:20:00 21.4 C 9.56 g/m*3 21.4 C 14.5 km/h
Sensor: Nr:Datum:Temp:Abs-Feuchte:Windchill:Wind:
Aussen-T/F 1926 15-07-2020 16:25:00 21.4 C 9.94 g/m*3 21.4 C 16.1 km/h
1927 15-07-2020 16:30:00 21.5 C 9.62 g/m*3 21.5 C 19.3 km/h
1928 15-07-2020 16:35:00 21.4 C 9.75 g/m*3 21.4 C 16.1 km/h
1929 15-07-2020 16:40:00 21.4 C 9.75 g/m*3 21.4 C 9.7 km/h
1930 15-07-2020 16:45:00 21.6 C 10.05 g/m*3 21.6 C 14.5 km/h
1931 15-07-2020 16:50:00 21.6 C 9.86 g/m*3 21.6 C 16.1 km/h
1932 15-07-2020 16:55:00 21.7 C 9.73 g/m*3 21.7 C 11.3 km/h
1933 15-07-2020 17:00:00 21.6 C 9.86 g/m*3 21.6 C 16.1 km/h
1934 15-07-2020 17:05:00 21.3 C 9.69 g/m*3 21.3 C 12.9 km/h
1935 15-07-2020 17:10:00 21.1 C 9.58 g/m*3 21.1 C 11.3 km/h
1936 15-07-2020 17:15:00 21.3 C 9.88 g/m*3 21.3 C 11.3 km/h
1937 15-07-2020 17:20:00 21.6 C 9.86 g/m*3 21.6 C 14.5 km/h
1938 15-07-2020 17:25:00 21.7 C 9.54 g/m*3 21.7 C 14.5 km/h
1939 15-07-2020 17:30:00 21.4 C 9.56 g/m*3 21.4 C 8.1 km/h
1940 15-07-2020 17:35:00 21.3 C 9.69 g/m*3 21.3 C 11.3 km/h
1941 15-07-2020 17:40:00 21.2 C 9.64 g/m*3 21.2 C 11.3 km/h
1942 15-07-2020 17:45:00 21.1 C 9.58 g/m*3 21.1 C 11.3 km/h
1943 15-07-2020 17:50:00 20.9 C 9.29 g/m*3 20.9 C 14.5 km/h
1944 15-07-2020 17:55:00 20.9 C 9.65 g/m*3 20.9 C 12.9 km/h
1945 15-07-2020 18:00:00 21 C 9.34 g/m*3 21 C 12.9 km/h
1946 15-07-2020 18:05:00 21.1 C 9.58 g/m*3 21.1 C 9.7 km/h
1947 15-07-2020 18:10:00 20.9 C 9.29 g/m*3 20.9 C 12.9 km/h
1948 15-07-2020 18:15:00 20.7 C 9.36 g/m*3 20.7 C 8.1 km/h
1949 15-07-2020 18:20:00 20.6 C 9.49 g/m*3 20.6 C 8.1 km/h
1950 15-07-2020 18:25:00 20.6 C 9.49 g/m*3 20.6 C 11.3 km/h
Sensor: Nr:Datum:Temp:Abs-Feuchte:Windchill:Wind:
Aussen-T/F 1951 15-07-2020 18:30:00 20.4 C 9.38 g/m*3 20.4 C 9.7 km/h
1952 15-07-2020 18:35:00 20.4 C 9.38 g/m*3 20.4 C 11.3 km/h
1953 15-07-2020 18:40:00 20.4 C 9.38 g/m*3 20.4 C 8.1 km/h
1954 15-07-2020 18:45:00 20.4 C 9.2 g/m*3 20.4 C 11.3 km/h
1955 15-07-2020 18:50:00 20.4 C 9.38 g/m*3 20.4 C 8.1 km/h
1956 15-07-2020 18:55:00 20.3 C 9.15 g/m*3 20.3 C 8.1 km/h
1957 15-07-2020 19:00:00 20.4 C 9.38 g/m*3 20.4 C 11.3 km/h
1958 15-07-2020 19:05:00 20.4 C 9.2 g/m*3 20.4 C 12.9 km/h
1959 15-07-2020 19:10:00 20.3 C 9.32 g/m*3 20.3 C 8.1 km/h
1960 15-07-2020 19:15:00 20.3 C 9.15 g/m*3 20.3 C 11.3 km/h
1961 15-07-2020 19:20:00 20.3 C 9.15 g/m*3 20.3 C 9.7 km/h
1962 15-07-2020 19:25:00 20.3 C 9.15 g/m*3 20.3 C 8.1 km/h
1963 15-07-2020 19:30:00 20.3 C 9.32 g/m*3 20.3 C 8.1 km/h
1964 15-07-2020 19:35:00 20.2 C 9.27 g/m*3 20.2 C 8.1 km/h
1965 15-07-2020 19:40:00 20.2 C 9.27 g/m*3 20.2 C 8.1 km/h
1966 15-07-2020 19:45:00 20.1 C 9.21 g/m*3 20.1 C 8.1 km/h
1967 15-07-2020 19:50:00 20 C 9.33 g/m*3 20 C 8.1 km/h
1968 15-07-2020 19:55:00 19.9 C 9.11 g/m*3 19.9 C 6.4 km/h
1969 15-07-2020 20:00:00 19.9 C 9.11 g/m*3 19.9 C 6.4 km/h
1970 15-07-2020 20:05:00 19.9 C 9.11 g/m*3 19.9 C 8.1 km/h
1971 15-07-2020 20:10:00 19.9 C 9.11 g/m*3 19.9 C 3.2 km/h
1972 15-07-2020 20:15:00 19.9 C 9.11 g/m*3 19.9 C 4.8 km/h
1973 15-07-2020 20:20:00 19.8 C 9.22 g/m*3 19.8 C 4.8 km/h
1974 15-07-2020 20:25:00 19.8 C 9.22 g/m*3 19.8 C 4.8 km/h
1975 15-07-2020 20:30:00 19.8 C 9.57 g/m*3 19.8 C 1.6 km/h
Sensor: Nr:Datum:Temp:Abs-Feuchte:Windchill:Wind:
Aussen-T/F 1976 15-07-2020 20:35:00 19.8 C 9.91 g/m*3 19.8 C 4.8 km/h
1977 15-07-2020 20:40:00 19.8 C 10.76 g/m*3 19.8 C 3.2 km/h
1978 15-07-2020 20:45:00 19.7 C 10.87 g/m*3 19.7 C 1.6 km/h
1979 15-07-2020 20:50:00 19.4 C 10.68 g/m*3 19.4 C 1.6 km/h
1980 15-07-2020 20:55:00 19.2 C 10.55 g/m*3 19.2 C 1.6 km/h
1981 15-07-2020 21:00:00 19 C 10.59 g/m*3 19 C 3.2 km/h
1982 15-07-2020 21:05:00 18.7 C 10.57 g/m*3 18.7 C 3.2 km/h
1983 15-07-2020 21:10:00 18.5 C 10.76 g/m*3 18.5 C 3.2 km/h
1984 15-07-2020 21:15:00 18.3 C 10.63 g/m*3 18.3 C 3.2 km/h
1985 15-07-2020 21:20:00 18.1 C 10.51 g/m*3 18.1 C 1.6 km/h
1986 15-07-2020 21:25:00 17.9 C 10.38 g/m*3 17.9 C 0 km/h
1987 15-07-2020 21:30:00 17.8 C 10.32 g/m*3 17.8 C 3.2 km/h
1988 15-07-2020 21:35:00 17.7 C 10.41 g/m*3 17.7 C 3.2 km/h
1989 15-07-2020 21:40:00 17.6 C 10.35 g/m*3 17.6 C 0 km/h
1990 15-07-2020 21:45:00 17.4 C 10.37 g/m*3 17.4 C 0 km/h
1991 15-07-2020 21:50:00 17.3 C 10.16 g/m*3 17.3 C 0 km/h
1992 15-07-2020 21:55:00 17.2 C 10.25 g/m*3 17.2 C 4.8 km/h
1993 15-07-2020 22:00:00 17.2 C 10.25 g/m*3 17.2 C 6.4 km/h
1994 15-07-2020 22:05:00 17.1 C 10.34 g/m*3 17.1 C 6.4 km/h
1995 15-07-2020 22:10:00 17 C 10.27 g/m*3 17 C 6.4 km/h
1996 15-07-2020 22:15:00 16.9 C 10.07 g/m*3 16.9 C 4.8 km/h
1997 15-07-2020 22:20:00 16.8 C 10.01 g/m*3 16.8 C 6.4 km/h
1998 15-07-2020 22:25:00 16.8 C 10.01 g/m*3 16.8 C 6.4 km/h
1999 15-07-2020 22:30:00 16.7 C 10.23 g/m*3 16.7 C 8.1 km/h
2000 15-07-2020 22:35:00 16.7 C 10.09 g/m*3 16.7 C 8.1 km/h
Sensor: Nr:Datum:Temp:Abs-Feuchte:Windchill:Wind:
Aussen-T/F 2001 15-07-2020 22:40:00 16.7 C 10.09 g/m*3 16.7 C 6.4 km/h
2002 15-07-2020 22:45:00 16.6 C 10.03 g/m*3 16.6 C 8.1 km/h
2003 15-07-2020 22:50:00 16.6 C 10.03 g/m*3 16.6 C 4.8 km/h
2004 15-07-2020 22:55:00 16.6 C 10.17 g/m*3 16.6 C 4.8 km/h
2005 15-07-2020 23:00:00 16.6 C 10.45 g/m*3 16.6 C 1.6 km/h
2006 15-07-2020 23:05:00 16.6 C 10.45 g/m*3 16.6 C 3.2 km/h
2007 15-07-2020 23:10:00 16.5 C 10.53 g/m*3 16.5 C 3.2 km/h
2008 15-07-2020 23:15:00 16.4 C 10.33 g/m*3 16.4 C 1.6 km/h
2009 15-07-2020 23:20:00 16.4 C 10.33 g/m*3 16.4 C 1.6 km/h
2010 15-07-2020 23:25:00 16.3 C 10.27 g/m*3 16.3 C 4.8 km/h
2011 15-07-2020 23:30:00 16.3 C 10.27 g/m*3 16.3 C 3.2 km/h
2012 15-07-2020 23:35:00 16.2 C 10.2 g/m*3 16.2 C 3.2 km/h
2013 15-07-2020 23:40:00 16.2 C 10.34 g/m*3 16.2 C 3.2 km/h
2014 15-07-2020 23:45:00 16.1 C 10.28 g/m*3 16.1 C 4.8 km/h
2015 15-07-2020 23:50:00 16.1 C 10.28 g/m*3 16.1 C 3.2 km/h
2016 15-07-2020 23:55:00 16.1 C 10.14 g/m*3 16.1 C 1.6 km/h

Legende:
   Min
   Max


Maximal/Minimal-Werte vom 09.07.2020 - 15.07.2020

Sensor Min Max Avg
Temp
(Aussen-T/F)
9.2 °C
12-07-2020  05:50:00
29.3 °C
13-07-2020  18:40:00
18.43 °C
Abs-Feuchte
(Aussen-T/F)
7.15 g/m*3
11-07-2020  16:55:00
15.4 g/m*3
09-07-2020  13:05:00
10.54 g/m*3
Windchill
(Aussen-T/F)
9.2 C
12-07-2020  05:50:00
29.3 C
13-07-2020  18:40:00
18.42 C

Die Daten stammen von einer Davis Vantage Pro 2 Wetter-Station und werden unter Linux mit der Software wview2wettercgi und aufbereitet. Alle Angaben erfolgen ohne Gewähr für ihre Vollständigkeit oder Richtigkeit.
Kontakt: Rainer Krienke krienke@uni-koblenz.de . Meine Webseiten an der Uni Koblenz oder privat.
Version: $Revision: 0.78 $